[[{"header":{"parameterUnit":"m.s-1","parameterCategory":1,"la1":30.6,"la2":29.2853,"lo1":-89.7004,"lo2":-87.6739,"dy":0.0162,"dx":0.0183,"nx":112,"ny":82,"refTime":"2023-04-04T06:00:00:Z","depth":0,"parameterNumber":2,"parameterNumberName":"U-component_of_WINDS"},"data":[0.0,0.0,0.0,0.0,0.0,0.0,0.0,0.0,0.0,0.0,0.0,0.0,0.0,0.0,0.0,0.0,0.0,0.0,0.0,0.0,0.0,0.0,0.0,0.0,0.0,0.0,0.0,0.0,0.0,0.0,0.0,0.0,0.0,0.0,0.0,0.0,0.0,0.0,0.0,0.0,0.0,0.0,0.0,0.0,0.0,0.0,0.0,0.0,0.0,0.0,0.0,0.0,0.0,0.0,0.0,0.0,0.0,0.0,0.0,0.0,0.0,0.0,0.0,0.0,0.0,0.0,0.0,0.0,0.0,0.0,0.0,0.0,0.0,0.0,0.0,0.0,0.0,0.0,0.0,0.0,0.0,0.0,0.0,0.0,0.0,0.0,0.0,0.0,0.0,0.0,-5.6515,-5.89,-6.1761,-6.201,-5.8228,-5.6122,-5.3619,-5.0304,0.0,0.0,0.0,0.0,0.0,0.0,0.0,0.0,0.0,0.0,0.0,0.0,0.0,0.0,0.0,0.0,0.0,0.0,0.0,0.0,0.0,0.0,0.0,0.0,0.0,0.0,0.0,0.0,0.0,0.0,0.0,0.0,0.0,0.0,0.0,0.0,0.0,0.0,0.0,0.0,0.0,0.0,0.0,0.0,0.0,0.0,0.0,0.0,0.0,0.0,0.0,0.0,0.0,0.0,0.0,0.0,0.0,0.0,0.0,0.0,0.0,0.0,0.0,0.0,0.0,0.0,0.0,0.0,0.0,0.0,0.0,0.0,0.0,0.0,0.0,0.0,0.0,0.0,0.0,0.0,0.0,0.0,0.0,0.0,0.0,0.0,0.0,0.0,0.0,0.0,0.0,0.0,0.0,0.0,0.0,0.0,0.0,0.0,0.0,0.0,0.0,0.0,0.0,0.0,-5.6643,-5.9617,-6.1606,-6.1424,-5.8194,-5.4194,-5.1386,-5.0168,0.0,0.0,0.0,0.0,0.0,0.0,0.0,0.0,0.0,0.0,0.0,0.0,0.0,0.0,0.0,0.0,0.0,0.0,0.0,0.0,0.0,0.0,0.0,0.0,0.0,0.0,0.0,0.0,0.0,0.0,0.0,0.0,0.0,0.0,0.0,0.0,0.0,0.0,0.0,0.0,0.0,0.0,0.0,0.0,0.0,0.0,0.0,0.0,0.0,0.0,0.0,0.0,0.0,0.0,0.0,0.0,0.0,0.0,0.0,0.0,0.0,0.0,0.0,0.0,0.0,0.0,0.0,0.0,0.0,0.0,0.0,0.0,0.0,0.0,0.0,0.0,0.0,0.0,0.0,0.0,0.0,0.0,0.0,0.0,0.0,0.0,0.0,0.0,0.0,0.0,0.0,0.0,0.0,0.0,0.0,0.0,0.0,0.0,0.0,0.0,0.0,0.0,0.0,-5.7135,-5.8839,-6.1155,-6.2756,-6.2309,-5.8798,-5.5141,-5.2536,-5.1352,-4.8409,0.0,0.0,0.0,0.0,0.0,0.0,0.0,0.0,0.0,0.0,0.0,0.0,0.0,0.0,0.0,0.0,0.0,0.0,0.0,0.0,0.0,0.0,0.0,0.0,0.0,0.0,0.0,0.0,0.0,0.0,0.0,0.0,0.0,0.0,0.0,0.0,0.0,0.0,0.0,0.0,0.0,0.0,0.0,0.0,0.0,0.0,0.0,0.0,0.0,0.0,0.0,0.0,0.0,0.0,0.0,0.0,0.0,0.0,0.0,0.0,0.0,0.0,0.0,0.0,0.0,0.0,0.0,0.0,0.0,0.0,0.0,0.0,0.0,0.0,0.0,0.0,0.0,0.0,0.0,0.0,0.0,0.0,0.0,0.0,0.0,0.0,0.0,0.0,0.0,0.0,0.0,0.0,0.0,0.0,0.0,0.0,0.0,0.0,0.0,0.0,0.0,0.0,-5.9741,-6.0835,-6.2322,-6.3592,-6.2821,-5.9066,-5.5852,-5.3484,-5.2131,-4.7902,0.0,0.0,0.0,0.0,0.0,0.0,0.0,0.0,0.0,0.0,0.0,0.0,0.0,0.0,0.0,0.0,0.0,0.0,0.0,0.0,0.0,0.0,0.0,0.0,0.0,0.0,0.0,0.0,0.0,0.0,0.0,0.0,0.0,0.0,0.0,0.0,0.0,0.0,0.0,0.0,0.0,0.0,0.0,0.0,0.0,0.0,0.0,0.0,0.0,0.0,0.0,0.0,0.0,0.0,0.0,0.0,0.0,0.0,0.0,0.0,0.0,0.0,0.0,0.0,0.0,0.0,0.0,0.0,0.0,0.0,0.0,0.0,0.0,0.0,0.0,0.0,0.0,0.0,0.0,0.0,0.0,0.0,0.0,0.0,0.0,0.0,0.0,0.0,0.0,0.0,0.0,0.0,0.0,0.0,0.0,0.0,0.0,0.0,0.0,0.0,0.0,0.0,-5.9859,-6.149,-6.2305,-6.3097,-6.2076,-5.8287,-5.46,-5.2131,-5.1352,-4.7124,0.0,0.0,0.0,0.0,0.0,0.0,0.0,0.0,0.0,0.0,0.0,0.0,0.0,0.0,0.0,0.0,0.0,0.0,0.0,0.0,0.0,0.0,0.0,0.0,0.0,0.0,0.0,0.0,0.0,0.0,0.0,0.0,0.0,0.0,0.0,0.0,0.0,0.0,0.0,0.0,0.0,0.0,0.0,0.0,0.0,0.0,0.0,0.0,0.0,0.0,0.0,0.0,0.0,0.0,0.0,0.0,0.0,0.0,0.0,0.0,0.0,0.0,0.0,0.0,0.0,0.0,0.0,0.0,0.0,0.0,0.0,0.0,0.0,0.0,0.0,0.0,0.0,0.0,0.0,0.0,0.0,0.0,0.0,0.0,0.0,0.0,0.0,0.0,0.0,0.0,0.0,0.0,0.0,0.0,0.0,0.0,0.0,0.0,0.0,0.0,0.0,0.0,-5.8909,-6.1076,-6.2295,-6.2651,-6.1839,-5.9471,-5.5852,-5.3213,-5.1961,0.0,0.0,0.0,0.0,0.0,0.0,0.0,0.0,0.0,0.0,0.0,0.0,0.0,0.0,0.0,0.0,0.0,0.0,0.0,0.0,0.0,0.0,0.0,0.0,0.0,0.0,0.0,0.0,0.0,0.0,0.0,0.0,0.0,0.0,0.0,0.0,0.0,0.0,0.0,0.0,0.0,0.0,0.0,0.0,0.0,0.0,0.0,0.0,0.0,0.0,0.0,0.0,0.0,0.0,0.0,0.0,0.0,0.0,0.0,0.0,0.0,0.0,0.0,0.0,0.0,0.0,0.0,0.0,0.0,0.0,0.0,0.0,0.0,0.0,0.0,0.0,0.0,0.0,0.0,0.0,0.0,0.0,0.0,0.0,0.0,0.0,0.0,0.0,0.0,0.0,0.0,0.0,0.0,0.0,0.0,0.0,0.0,0.0,0.0,0.0,0.0,0.0,-5.5348,-5.8082,-6.0271,-6.1545,-6.211,-6.1467,-5.9235,-5.5649,-5.3078,-5.2029,0.0,0.0,0.0,0.0,0.0,0.0,0.0,0.0,0.0,0.0,0.0,0.0,0.0,0.0,0.0,0.0,0.0,0.0,0.0,0.0,0.0,0.0,0.0,0.0,0.0,0.0,0.0,0.0,0.0,0.0,0.0,0.0,0.0,0.0,0.0,0.0,0.0,0.0,0.0,0.0,0.0,0.0,0.0,0.0,0.0,0.0,0.0,0.0,0.0,0.0,0.0,0.0,0.0,0.0,0.0,0.0,0.0,0.0,0.0,0.0,0.0,0.0,0.0,0.0,0.0,0.0,0.0,0.0,0.0,0.0,0.0,0.0,0.0,0.0,0.0,0.0,0.0,0.0,0.0,0.0,0.0,0.0,0.0,0.0,0.0,0.0,0.0,0.0,0.0,0.0,0.0,0.0,0.0,0.0,0.0,0.0,0.0,0.0,0.0,0.0,0.0,0.0,-5.5211,-5.7566,-5.9268,-6.0013,-6.1434,-6.0825,-5.7137,-5.3382,-5.1185,0.0,0.0,0.0,0.0,0.0,0.0,0.0,0.0,0.0,0.0,0.0,0.0,0.0,0.0,0.0,0.0,0.0,0.0,0.0,0.0,0.0,0.0,0.0,0.0,0.0,0.0,0.0,0.0,0.0,0.0,0.0,0.0,0.0,0.0,0.0,0.0,0.0,0.0,0.0,0.0,0.0,0.0,0.0,0.0,0.0,0.0,0.0,0.0,0.0,0.0,0.0,0.0,0.0,0.0,0.0,0.0,0.0,0.0,0.0,0.0,0.0,0.0,0.0,0.0,0.0,0.0,0.0,0.0,0.0,0.0,0.0,0.0,0.0,0.0,0.0,0.0,0.0,0.0,0.0,0.0,0.0,0.0,0.0,0.0,0.0,0.0,0.0,0.0,0.0,0.0,0.0,0.0,0.0,0.0,0.0,0.0,0.0,0.0,0.0,0.0,0.0,0.0,0.0,-5.4532,-5.5924,-5.7577,-5.9844,-5.9573,-5.8761,-5.7679,-5.3653,-5.1185,-5.1185,0.0,0.0,0.0,0.0,0.0,0.0,0.0,0.0,0.0,0.0,0.0,0.0,0.0,0.0,0.0,0.0,0.0,0.0,0.0,0.0,0.0,0.0,0.0,0.0,0.0,0.0,0.0,0.0,0.0,0.0,0.0,0.0,0.0,0.0,0.0,0.0,0.0,0.0,0.0,0.0,0.0,0.0,0.0,0.0,0.0,0.0,0.0,0.0,0.0,0.0,0.0,0.0,0.0,0.0,0.0,0.0,0.0,0.0,0.0,0.0,0.0,0.0,0.0,0.0,0.0,0.0,0.0,0.0,0.0,0.0,0.0,0.0,0.0,0.0,0.0,0.0,0.0,0.0,0.0,0.0,0.0,0.0,0.0,0.0,0.0,0.0,0.0,0.0,0.0,0.0,0.0,0.0,0.0,0.0,0.0,0.0,0.0,0.0,0.0,0.0,0.0,0.0,-5.3348,-5.46,-5.6055,-5.8118,-5.7814,-5.7205,-5.663,-5.301,-5.0642,-5.0338,0.0,0.0,0.0,0.0,0.0,0.0,0.0,0.0,0.0,0.0,0.0,0.0,0.0,0.0,0.0,0.0,0.0,0.0,0.0,0.0,0.0,0.0,0.0,0.0,0.0,0.0,0.0,0.0,0.0,0.0,0.0,0.0,0.0,0.0,0.0,0.0,0.0,0.0,0.0,0.0,0.0,0.0,0.0,0.0,0.0,0.0,0.0,0.0,0.0,0.0,0.0,0.0,0.0,0.0,0.0,0.0,0.0,0.0,0.0,0.0,0.0,0.0,0.0,0.0,0.0,0.0,0.0,0.0,0.0,0.0,0.0,0.0,0.0,0.0,0.0,0.0,0.0,0.0,0.0,0.0,0.0,0.0,0.0,0.0,0.0,0.0,0.0,0.0,0.0,0.0,0.0,0.0,0.0,0.0,0.0,0.0,0.0,0.0,0.0,0.0,0.0,0.0,-5.2198,-5.3551,-5.4735,-5.5615,-5.6258,-5.6055,-5.4702,-5.1826,-4.9796,-4.9052,0.0,0.0,0.0,0.0,0.0,0.0,0.0,0.0,0.0,0.0,0.0,0.0,0.0,0.0,0.0,0.0,0.0,0.0,0.0,0.0,0.0,0.0,0.0,0.0,0.0,0.0,0.0,0.0,0.0,0.0,0.0,0.0,0.0,0.0,0.0,0.0,0.0,0.0,0.0,0.0,0.0,0.0,0.0,0.0,0.0,0.0,0.0,0.0,0.0,0.0,0.0,0.0,0.0,0.0,0.0,0.0,0.0,0.0,0.0,0.0,-5.9294,-5.998,0.0,0.0,0.0,0.0,0.0,0.0,0.0,0.0,0.0,0.0,0.0,0.0,0.0,0.0,0.0,0.0,0.0,0.0,0.0,0.0,0.0,0.0,0.0,0.0,0.0,0.0,0.0,0.0,0.0,0.0,0.0,0.0,0.0,0.0,0.0,0.0,0.0,0.0,0.0,0.0,-5.2976,-5.2976,-5.3551,-5.5478,-5.531,-5.4938,-5.4634,-5.1826,-4.9796,-4.9052,-4.638,0.0,0.0,0.0,0.0,0.0,0.0,0.0,0.0,0.0,0.0,0.0,0.0,0.0,0.0,0.0,0.0,0.0,0.0,0.0,0.0,0.0,0.0,0.0,0.0,0.0,0.0,0.0,0.0,0.0,0.0,0.0,0.0,0.0,0.0,0.0,0.0,0.0,0.0,0.0,0.0,0.0,0.0,0.0,0.0,0.0,0.0,0.0,0.0,0.0,0.0,0.0,0.0,0.0,0.0,0.0,0.0,0.0,0.0,0.0,-6.1712,-6.1357,0.0,0.0,0.0,0.0,0.0,0.0,0.0,0.0,0.0,0.0,0.0,0.0,0.0,0.0,0.0,0.0,0.0,0.0,0.0,0.0,0.0,0.0,0.0,0.0,0.0,0.0,0.0,0.0,0.0,0.0,0.0,0.0,0.0,0.0,0.0,0.0,0.0,0.0,0.0,0.0,-5.2672,-5.2266,-5.2536,-5.4465,-5.4296,-5.3923,-5.3518,-5.1386,-4.9458,-4.8037,-4.6177,0.0,0.0,0.0,0.0,0.0,0.0,0.0,0.0,0.0,0.0,0.0,0.0,0.0,0.0,0.0,0.0,0.0,0.0,0.0,0.0,0.0,0.0,0.0,0.0,0.0,0.0,0.0,0.0,0.0,0.0,0.0,0.0,0.0,0.0,0.0,0.0,0.0,0.0,0.0,0.0,0.0,0.0,0.0,0.0,0.0,0.0,0.0,0.0,0.0,0.0,0.0,0.0,0.0,-6.5501,-6.5963,-6.6989,-6.8383,-6.7092,-6.396,-6.6166,-6.4276,-5.9832,-6.1996,0.0,0.0,0.0,0.0,0.0,0.0,0.0,0.0,0.0,0.0,0.0,0.0,0.0,0.0,0.0,0.0,0.0,0.0,0.0,0.0,0.0,0.0,-5.7442,-5.9268,-5.981,-5.8829,-5.4938,0.0,0.0,0.0,0.0,0.0,0.0,0.0,0.0,0.0,0.0,0.0,-5.1961,-5.1589,-5.1758,-5.3145,-5.3281,-5.2976,-5.2198,-5.0879,-4.9154,-4.6921,-4.5974,-4.4587,0.0,0.0,0.0,0.0,0.0,0.0,0.0,0.0,0.0,0.0,0.0,0.0,0.0,0.0,0.0,0.0,0.0,0.0,0.0,0.0,0.0,0.0,0.0,0.0,0.0,0.0,0.0,0.0,0.0,0.0,0.0,0.0,-6.13,-6.141,0.0,0.0,0.0,0.0,0.0,0.0,0.0,0.0,0.0,0.0,0.0,0.0,0.0,-6.5479,-6.7502,-6.6001,-6.4766,-6.3859,-6.5821,-6.6619,-6.6379,-6.8399,-6.9417,-6.9658,-7.0422,0.0,-6.1855,-6.0324,0.0,0.0,0.0,0.0,0.0,0.0,0.0,0.0,0.0,0.0,0.0,0.0,0.0,0.0,0.0,0.0,0.0,0.0,0.0,0.0,0.0,0.0,-5.7814,-5.8118,-5.8693,-5.866,-5.6765,-5.6427,-5.5953,-5.4025,-5.3078,-5.2807,0.0,0.0,0.0,0.0,0.0,0.0,-5.1319,-5.1285,-5.1522,-5.2367,-5.2469,-5.2164,-5.142,-5.0574,-4.9154,-4.6921,-4.5529,-4.4282,-4.3301,-4.2117,0.0,0.0,0.0,0.0,0.0,0.0,0.0,0.0,0.0,0.0,0.0,0.0,0.0,0.0,0.0,0.0,0.0,0.0,0.0,0.0,0.0,0.0,0.0,0.0,0.0,0.0,0.0,0.0,0.0,-6.3686,-6.5044,-6.3209,-6.4456,-6.5505,0.0,0.0,0.0,0.0,0.0,0.0,0.0,0.0,0.0,-6.6109,-6.7252,-6.7406,-6.6557,-6.6556,-6.6608,-6.6677,-6.8676,-6.9877,-7.0386,-7.3096,-7.3916,-7.3233,-7.4001,-7.2006,-6.808,-6.5197,-6.2966,-6.1223,0.0,0.0,0.0,0.0,-6.2266,-6.2363,-6.3798,-6.3939,-6.3241,-6.2309,0.0,0.0,0.0,0.0,0.0,0.0,0.0,-5.7408,-5.6765,-5.849,-6.0419,-6.0419,-6.0994,-6.1028,-5.9066,-5.7983,-5.69,-5.5108,-5.4465,-5.4194,-5.4126,-5.3112,0.0,0.0,0.0,-5.0879,-5.1725,-5.1082,-5.1014,-5.2198,-5.1928,-5.1217,-5.0067,-4.9661,-4.8545,-4.6312,-4.5162,-4.4073,-4.2828,-4.2997,-4.3166,0.0,0.0,0.0,0.0,0.0,0.0,0.0,0.0,0.0,0.0,0.0,0.0,0.0,0.0,0.0,0.0,0.0,0.0,0.0,0.0,0.0,0.0,0.0,0.0,0.0,0.0,0.0,0.0,-6.5338,-6.7056,-6.3795,-6.5524,-6.6852,0.0,0.0,0.0,0.0,0.0,0.0,-6.5815,-6.743,-6.8495,-6.8898,-6.9973,-6.9683,-6.7904,-6.8489,-6.9282,-7.0229,-7.1542,-7.2871,-7.423,-7.6327,-7.6874,-7.607,-7.6076,-7.5107,-7.3178,-6.9425,-6.5865,-6.2685,-6.2279,-6.1772,-6.1511,-6.3878,-6.4474,-6.4362,-6.6313,-6.6441,-6.5495,-6.3804,-6.2408,-6.097,-5.8642,0.0,0.0,0.0,0.0,-5.9336,-5.9539,-6.1129,-6.2685,-6.2685,-6.326,-6.3125,-6.0622,-5.9099,-5.7645,-5.5784,-5.5108,-5.4735,-5.4363,-5.3044,0.0,-5.1758,-5.0947,-5.071,-5.1623,-5.1116,-5.1014,-5.1928,-5.1555,-5.0541,-4.8883,-4.8714,-4.7767,-4.5568,-4.4688,-4.3673,-4.2354,-4.3058,-4.3193,-4.2591,0.0,0.0,0.0,0.0,0.0,0.0,0.0,0.0,0.0,0.0,0.0,0.0,0.0,0.0,0.0,0.0,0.0,0.0,0.0,0.0,0.0,0.0,0.0,0.0,0.0,0.0,0.0,0.0,0.0,-6.2048,-6.3798,0.0,0.0,0.0,0.0,-6.7266,-6.8128,-6.8238,-6.7614,-6.9119,-7.066,-7.2202,-7.1894,-7.3102,-7.5974,-7.4119,-7.323,-7.3274,-7.34,-7.4332,-7.6037,-7.5197,-7.6223,-7.868,-7.5922,-7.4808,-7.4626,-6.9868,-6.7354,-6.6406,-6.4986,-6.441,-6.4377,-6.4519,-6.5026,-6.5392,-6.4146,-6.4593,-6.5711,-6.5568,-6.5026,-6.3983,-6.1738,-6.1061,0.0,0.0,-5.9471,-6.0216,-6.0994,-6.2313,-6.3463,-6.3463,-6.4005,-6.3734,-6.0757,-5.9505,-5.8084,-5.5209,-5.3484,-5.2706,-5.345,0.0,-5.1014,-5.0304,-5.0744,-5.0913,-5.027,-5.1352,-5.1961,-5.132,-5.1219,-5.0306,-4.8142,-4.7939,-4.7022,-4.4818,-4.391,-4.3132,-4.232,-4.1027,-4.1271,-4.3308,-4.2692,0.0,0.0,0.0,0.0,0.0,0.0,0.0,0.0,0.0,0.0,0.0,0.0,0.0,0.0,0.0,0.0,0.0,0.0,0.0,0.0,0.0,0.0,0.0,0.0,0.0,0.0,0.0,0.0,-6.7564,-6.9358,0.0,-6.9593,-6.8033,-6.7883,-6.987,-7.0293,-7.0991,-7.2275,-7.3854,-7.5506,-7.7157,-7.7032,-7.6839,-7.6576,-7.5854,-7.4792,-7.3477,-7.3477,-7.3809,-7.4468,-7.4792,-7.5509,-7.644,-7.5388,-7.5092,-7.5128,-7.2081,-6.9789,-6.8199,-6.7117,-6.644,-6.6136,-6.7151,-6.7658,-6.7963,-6.8368,-6.8571,-6.8199,-6.5764,-6.4174,-6.2956,-6.167,-6.1298,-6.1298,-6.1197,-6.1366,-6.1738,-6.2516,-6.3125,-6.3531,-6.3531,-6.3328,-6.2482,-5.9945,-5.8457,-5.7002,-5.4972,-5.416,-5.3721,-5.3551,-5.2604,-5.1826,-5.1555,-5.0913,-5.0574,-5.0777,-5.0439,-5.027,-5.0473,-5.0067,-4.9086,-4.7327,-4.7192,-4.6244,-4.3978,-4.3572,-4.2861,-4.1644,-4.1542,-4.1644,-4.1982,-4.1745,-4.2049,0.0,0.0,0.0,0.0,0.0,0.0,0.0,0.0,0.0,0.0,0.0,0.0,0.0,0.0,0.0,0.0,0.0,0.0,0.0,0.0,0.0,0.0,0.0,0.0,0.0,-6.8825,-7.0749,-7.1344,-7.2713,-7.3576,-7.3408,-7.138,-7.0961,-7.3171,-7.3597,-7.4698,-7.6864,-7.7965,-7.9176,-8.0571,-8.0243,-7.9212,-7.7429,-7.6785,-7.5566,-7.3849,-7.3612,-7.3477,-7.3523,-7.4237,-7.474,-7.5049,-7.4455,-7.4517,-7.4817,-7.2868,-7.1176,-6.9789,-6.9282,-6.8741,-6.847,-6.9485,-6.9992,-7.0364,-7.1345,-7.1041,-6.9722,-6.7015,-6.5256,-6.4072,-6.3091,-6.2787,-6.2888,-6.3362,-6.3497,-6.3632,-6.4106,-6.4241,-6.414,-6.3632,-6.3125,-6.2144,-5.9877,-5.822,-5.6731,-5.5243,-5.4566,-5.4059,-5.3585,-5.2841,-5.2401,-5.2672,-5.1623,-5.1116,-5.1894,-5.0913,-5.0202,-5.0439,-4.9796,-4.868,-4.6955,-4.7022,-4.6007,-4.32,-4.324,-4.2733,-4.1271,-4.1677,-4.1914,-4.1948,-4.1948,-4.2422,-4.3375,0.0,0.0,0.0,0.0,0.0,0.0,0.0,0.0,0.0,0.0,0.0,0.0,0.0,0.0,0.0,0.0,0.0,0.0,0.0,0.0,0.0,0.0,0.0,-6.5986,-7.0632,-7.3367,-7.2557,-7.3316,-7.3852,-7.379,-7.3132,-7.4033,-7.7206,-7.8259,-7.9396,-8.1048,-8.1085,-8.1415,-8.2223,-8.1195,-8.0107,-7.8988,-7.7181,-7.5667,-7.4525,-7.3815,-7.3443,-7.3409,-7.3409,-7.4024,-7.486,-7.314,-7.2976,-7.3837,-7.2049,-7.1312,-7.1356,-7.1312,-7.1312,-7.1312,-7.1312,-7.1751,-7.236,-7.236,-7.1413,-7.0094,-6.935,-6.8571,-6.7658,-6.617,-6.573,-6.573,-6.573,-6.5696,-6.5696,-6.573,-6.5696,-6.529,-6.3869,-6.3497,-6.2821,-6.0554,-5.8896,-5.7442,-5.5987,-5.4532,-5.3518,-5.3518,-5.2841,-5.2604,-5.3382,-5.2807,0.0,-5.3382,-5.2773,-5.1995,-5.1285,-5.0574,-4.9255,-4.7056,-4.7496,-4.6346,-4.2591,-4.2997,-4.2699,-4.1271,-4.117,-4.1847,-4.3274,-4.3375,-4.3375,-4.3375,0.0,0.0,0.0,0.0,0.0,0.0,0.0,0.0,0.0,0.0,0.0,0.0,0.0,0.0,0.0,0.0,0.0,0.0,0.0,0.0,0.0,-6.2564,-6.5145,-6.6832,-7.0405,-7.3057,-7.3654,-7.635,-7.8009,-7.7841,-7.7804,-7.8656,-8.0718,-8.1085,-8.1893,-8.3508,-8.3067,-8.2847,-8.3067,-8.2212,-8.0586,-7.8138,-7.7606,-7.586,-7.3003,-7.28,-7.2428,-7.1921,-7.1921,-7.2067,-7.2311,-7.1819,-7.2181,-7.3026,-7.18,-7.1732,-7.2321,-7.1556,-7.1312,-7.1312,-7.1312,-7.1447,-7.1616,-7.1616,-7.1345,-7.0804,-6.9519,-6.8944,-6.8504,-6.6948,-6.6508,-6.6508,-6.6508,-6.6102,-6.5797,-6.6373,-6.5696,-6.4783,-6.441,-6.3091,-6.1434,-5.9674,-5.8152,-5.6833,-5.5886,-5.4938,-5.4126,-5.3585,-5.3315,-5.3247,-5.3484,-5.2807,-5.2367,-5.2604,-5.1995,-5.142,-5.1219,-5.1014,-5.0236,-4.8545,-4.8105,-4.6786,-4.4141,-4.3098,-4.2185,-4.1238,-4.0696,-4.0832,-4.1813,-4.2834,-4.3375,0.0,0.0,0.0,0.0,0.0,0.0,0.0,0.0,0.0,0.0,0.0,0.0,0.0,0.0,0.0,0.0,0.0,0.0,0.0,0.0,0.0,0.0,-6.4778,-6.7924,-6.9246,-7.1624,-7.4134,-7.6583,-7.8135,-7.9642,-8.1411,-8.0711,-8.0984,-8.3034,-8.3214,-8.3765,-8.5013,-8.4352,-8.3911,-8.3911,-8.2698,-8.0695,-7.7819,-7.7062,-7.5246,-7.2394,-7.209,-7.1718,-7.1312,-7.1312,-7.1312,-7.1312,-7.1312,-7.1873,-7.2714,-7.1732,-7.1917,-7.2673,0.0,0.0,0.0,0.0,-7.1312,-7.1312,-7.1312,-7.1312,-7.1075,-6.9586,-6.9113,-6.8808,-6.7286,-6.6812,-6.6745,-6.644,-6.6034,-6.5662,-6.5493,-6.4783,-6.4072,-6.3734,-6.2685,-6.1332,-5.981,-5.8558,-5.7408,-5.6359,-5.531,0.0,-5.4025,-5.3687,-5.3619,-5.3923,-5.3315,-5.2909,-5.3213,-5.2334,-5.1555,-5.1219,-5.0913,-5.0135,-4.868,-4.8443,0.0,0.0,0.0,-4.3234,-4.2185,-4.1711,0.0,0.0,0.0,-4.3741,-4.3375,-4.3876,0.0,0.0,-4.3301,-4.3301,0.0,0.0,0.0,0.0,0.0,0.0,0.0,0.0,0.0,0.0,0.0,0.0,0.0,0.0,0.0,0.0,-6.7713,-7.0574,-7.2598,-7.3829,-7.5935,-7.9784,-7.9153,-7.996,-8.39,-8.2246,-8.1959,-8.4541,-8.4756,-8.5086,-8.5894,-8.5086,0.0,0.0,0.0,-8.0543,-7.7819,-7.6111,-7.4309,-7.2394,-7.1751,-7.1379,-7.1312,-7.1413,-7.1379,-7.1312,-7.1312,-7.1786,-7.2582,-7.1688,-7.183,-7.254,-7.1644,-7.1312,-7.1312,-7.1312,-7.1312,-7.1312,-7.1312,0.0,0.0,-6.9688,-6.918,-6.8842,-6.7387,-6.688,-6.6677,-6.6,-6.5797,-6.5527,-6.4208,-6.3768,-6.3463,-6.2787,-6.2448,-6.1873,-6.0419,-5.9539,-5.8592,-5.7205,-5.5784,-5.4837,-5.4837,-5.4093,-5.3721,-5.4363,-5.3923,-5.3754,-5.4397,-5.3281,-5.2198,-5.1555,-5.0777,0.0,-4.8379,-4.8714,-4.78,-4.5021,-4.5229,-4.479,-4.3341,-4.3341,-4.3741,-4.4479,-4.4547,-4.4282,-4.3646,-4.3606,-4.3606,-4.3646,-4.4215,-4.4113,0.0,0.0,0.0,0.0,0.0,0.0,0.0,0.0,0.0,0.0,0.0,0.0,0.0,0.0,0.0,-6.686,-6.9823,-7.2836,-7.5655,-7.6224,-7.6759,-7.7822,-8.0538,-8.2315,-8.236,-8.2675,-8.36,-8.5453,-8.5563,-8.593,-8.6738,-8.538,-8.4609,-8.4609,-8.2974,-8.0728,-7.7819,-7.6883,-7.5053,-7.2394,-7.2259,0.0,-7.1345,-7.1921,-7.1853,-7.1312,-7.1312,-7.1412,-7.159,-7.1401,-7.1412,-7.1556,-7.1401,-7.1312,-7.1312,-7.1312,-7.1312,-7.1312,-7.1312,-7.1312,-7.1176,-7.0263,-6.9586,-6.891,-6.7963,-6.7286,0.0,-6.6643,-6.6609,-6.6542,-6.6237,-6.529,-6.4343,-6.4208,-6.2821,-6.1264,-6.0317,-5.9539,-5.8761,-5.7848,-5.6968,-5.6359,-5.6359,-5.4769,-5.3551,-5.3687,-5.3585,-5.3551,-5.3687,-5.345,-5.3213,-5.3078,-5.2367,-5.1522,-5.0642,-4.9593,-4.824,-4.6481,-4.479,-4.3436,-4.2557,-4.3098,-4.3477,-4.3639,-4.4248,-4.4823,-4.5263,-4.4654,-4.4654,-4.5229,-4.4147,-4.391,0.0,0.0,0.0,0.0,0.0,0.0,0.0,0.0,0.0,0.0,0.0,-6.0385,-6.1129,0.0,-6.8571,-7.0398,-7.3544,-7.6284,-7.7807,-7.9138,-7.9924,-7.9931,-8.0881,-8.2304,-8.4209,-8.4026,-8.453,-8.6263,-8.604,-8.5967,-8.6371,-8.527,-8.4425,-8.4022,-8.2703,-8.0659,-7.7819,-7.6911,-7.5265,-7.2935,-7.2935,-7.2766,-7.2428,-7.2766,-7.2563,-7.1853,-7.1853,-7.193,-7.2056,-7.2056,-7.1742,-7.1312,-7.1312,-7.1312,-7.1312,-7.1312,-7.1312,-7.1312,-7.1312,-7.1312,-7.1176,-7.0432,-6.9688,-6.8944,-6.8132,-6.7387,-6.6745,-6.6339,-6.6237,-6.617,-6.5797,-6.4884,-6.4072,-6.4072,-6.2922,-6.1637,-6.0858,-6.008,-5.9336,-5.8592,-5.7577,-5.6697,-5.6325,-5.504,-5.4059,-5.4059,-5.3754,-5.3518,-5.3518,-5.3518,-5.3348,-5.2942,-5.2232,-5.1454,-5.071,-4.9323,-4.8139,-4.7394,-4.5602,-4.4384,-4.4012,-4.4012,-4.4012,-4.4012,-4.4756,-4.5331,-4.5703,-4.5331,-4.5331,-4.5669,-4.4519,-4.4012,0.0,0.0,0.0,0.0,0.0,0.0,0.0,-5.6596,-5.8017,-6.0114,-6.2482,-6.4749,-6.6677,-6.9722,-7.2428,-7.3916,-7.6927,-7.916,-7.9295,-8.1345,-8.2788,-8.2722,-8.1442,-8.2111,-8.6063,-8.5264,-8.5191,-8.6852,-8.6407,-8.604,-8.604,-8.527,-8.4462,-8.3654,-8.279,-8.0941,-7.8067,-7.7215,-7.575,-7.3713,-7.3713,-7.3612,-7.3477,-7.3646,-7.324,-7.2394,-7.2259,-7.2322,-7.2498,-7.2498,-7.2013,-7.1312,-7.1312,-7.1312,-7.1312,-7.1312,-7.1412,-7.1556,-7.1556,-7.1556,-7.1454,-7.0886,-7.0032,-6.918,-6.8368,-6.7624,-6.688,-6.6102,-6.5899,-6.5764,-6.5189,-6.4478,-6.3903,-6.3768,-6.3159,-6.2381,-6.1501,-6.0791,-6.008,-5.9201,-5.8051,-5.7002,-5.6258,-5.5513,-5.4871,-5.4431,-5.389,-5.3518,-5.3518,-5.3518,-5.3247,-5.2604,-5.1725,-5.0845,-4.9965,-4.8815,-4.8041,-4.7906,-4.665,-4.5906,-4.5906,-4.5331,-4.5021,-4.5021,-4.5602,-4.5974,-4.6143,-4.5974,-4.6007,-4.6109,-4.5196,-4.4384,-5.9404,-5.7712,-5.6427,-5.7306,-5.6664,-5.6494,0.0,-5.9607,-6.0182,-6.1806,-6.4444,-6.6711,-6.7624,-7.1312,-7.4728,-7.6284,-7.7976,-7.9329,-7.9972,-8.1174,-8.237,-8.3351,-8.3549,-8.386,-8.4457,-8.5189,-8.6011,-8.6958,-8.6921,-8.6885,-8.6885,-8.6114,-8.5306,-8.4499,-8.4361,-8.254,-7.8917,-7.8801,-7.7333,-7.4492,-7.4492,-7.4119,-7.351,-7.4187,-7.3713,-7.236,-7.1718,-7.1424,-7.1457,-7.1457,-7.1401,-7.1312,-7.1312,-7.1312,-7.1312,-7.1312,-7.1873,-7.2624,-7.2624,-7.2624,-7.2589,-7.2562,-7.1439,-6.9925,-6.918,-6.8402,-6.7624,-6.688,-6.6677,-6.6677,-6.6609,-6.6,-6.529,-6.4647,-6.3903,-6.3024,-6.1603,-6.1231,-6.0757,-5.9302,-5.8896,-5.8524,-5.778,-5.7036,-5.5886,-5.3923,-5.3551,-5.3518,-5.3518,-5.3518,-5.3484,-5.3382,-5.2097,-5.0642,-4.9255,-4.8984,-4.8612,-4.7939,-4.7124,-4.6684,-4.6684,-4.6583,-4.6549,-4.6549,-4.6616,-4.6989,-4.7635,-4.6989,-4.7022,-4.7601,-4.6244,-4.5162,-5.9573,-5.866,-5.822,-5.7949,-5.8761,-6.0047,-6.1704,-6.2753,-6.3903,-6.5899,-6.8301,-7.0567,-7.2157,-7.4695,-7.7063,-7.8585,-8.0073,-8.0987,-8.0851,-8.1628,-8.2177,-8.2234,-8.2755,-8.3843,-8.5664,-8.6236,-8.6628,-8.6995,-8.6591,-8.6297,-8.6297,-8.5334,-8.4428,-8.3628,-8.3043,-8.1608,-7.9355,-7.8489,-7.7352,-7.5946,-7.5473,-7.5067,-7.4796,-7.51,-7.4424,-7.3003,-7.2259,-7.1718,-7.1312,-7.1312,-7.1312,-7.1312,-7.1312,-7.1312,-7.1312,-7.1312,-7.159,-7.196,-7.196,-7.196,-7.196,-7.196,-7.1134,-7.0128,-6.9823,-6.8876,-6.7827,-6.7523,-6.7151,-6.6812,-6.6812,-6.6237,-6.5595,-6.529,-6.4343,-6.3362,-6.2719,-6.1907,-6.096,-5.9877,-5.9302,-5.866,-5.7442,-5.7002,-5.619,-5.4397,-5.4126,-5.3991,-5.3551,-5.3518,-5.3315,-5.2841,-5.2232,-5.1251,-4.9763,-4.9627,-4.9323,-4.8612,-4.7868,-4.7462,-4.7462,-4.7022,-4.6786,-4.6786,-4.7225,-4.7597,-4.7906,-4.7597,-4.7597,-4.7838,-4.6413,-4.5534,-5.9539,-5.9539,-6.0047,-5.981,-6.1535,-6.37,-6.529,-6.6474,-6.7929,-7.0398,-7.2022,-7.3646,-7.5676,-7.7096,-7.8483,-7.9972,-8.1257,-8.19,-8.1359,-8.1665,-8.1778,-8.1232,-8.1637,-8.2981,-8.5722,-8.6407,-8.6664,-8.6664,-8.6334,-8.6114,-8.6114,-8.5045,-8.4087,-8.3256,-8.2388,-8.109,-7.9301,-7.8445,-7.7468,-7.6555,-7.598,-7.5967,-7.6514,-7.6275,-7.5389,-7.3878,-7.2836,-7.1988,-7.1312,-7.1312,-7.1312,-7.1312,-7.1312,-7.1312,-7.1312,-7.1312,-7.1457,-7.1732,-7.1732,-7.1732,-7.1732,-7.1732,-7.1172,-7.0432,-7.0026,-6.9113,-6.8132,-6.7726,-6.7218,-6.6812,-6.6812,-6.6406,-6.5933,-6.573,-6.4715,-6.3768,-6.3565,-6.2516,-6.1298,-6.0283,-5.9674,-5.8829,-5.7374,-5.7103,-5.6596,-5.5141,-5.4905,-5.4566,-5.3619,-5.3518,-5.3179,-5.2401,-5.2503,-5.1928,-5.0236,-5.027,-4.9999,-4.9052,-4.8511,-4.8176,-4.8176,-4.7699,-4.7394,-4.7394,-4.7936,-4.8176,-4.8176,-4.8176,-4.8176,-4.8142,-4.6921,-4.6312,-5.8829,-5.9539,-6.0791,-6.3666,-6.4986,-6.6542,-7.0229,-7.1109,-7.1954,-7.4897,-7.4999,-7.5033,-7.6589,-7.7468,-7.8483,-7.9972,-8.0818,-8.1325,-8.1291,-8.1071,-8.0966,-8.1182,-8.0921,-8.1489,-8.3334,-8.4903,-8.582,-8.582,-8.6554,-8.6958,-8.6958,-8.5881,-8.4881,-8.4085,-8.3743,-8.1899,-7.8583,-7.9242,-7.8305,-7.5743,-7.5709,-7.6675,-7.8489,-7.7727,-7.6505,-7.4929,-7.3174,-7.1988,-7.1312,-7.1312,-7.1312,-7.1312,-7.1312,-7.1312,-7.1312,-7.1312,-7.1917,-7.2756,-7.2756,-7.2756,-7.2756,-7.2756,-7.2065,-7.1007,-6.9586,-6.9113,-6.8741,-6.7252,-6.6846,-6.6812,-6.6812,-6.6779,-6.6609,-6.5865,-6.5121,-6.4377,-6.3666,-6.2888,-6.1907,-6.0385,-6.008,-5.9607,-5.8118,-5.7848,-5.7374,-5.5919,-5.5683,-5.5141,-5.3687,-5.3518,-5.3179,-5.2401,-5.301,-5.2536,-5.027,-5.0777,-5.0574,-4.9086,-4.8984,-4.8984,-4.8984,-4.8951,-4.8951,-4.8951,-4.8951,-4.8984,-4.8984,-4.8984,-4.8984,-4.8951,-4.8206,-4.7804,-5.9674,-6.2448,-6.5764,-6.7793,-6.9586,-7.1447,-7.3713,-7.4221,-7.4356,-7.4864,-7.3206,-7.1988,-7.3003,-7.2969,-7.3781,-7.6724,-7.9092,-8.075,-8.1224,-8.2072,-8.1605,-7.8937,-8.0017,-8.0488,-7.9275,-8.1745,-8.4058,-8.5673,-8.5563,-8.5764,-8.6569,-8.506,-8.3939,-8.3367,-8.1609,-8.0268,-7.963,-7.8961,-7.8346,-7.7942,-7.8195,-7.8706,-7.9332,-7.9282,-7.8049,-7.5828,-7.4705,-7.3088,-7.1312,-7.1312,-7.1312,-7.1312,-7.1312,-7.1312,-7.1312,-7.1312,-7.1501,-7.1786,-7.1786,-7.1786,-7.1786,-7.1786,-7.159,-7.121,-7.0737,-6.9891,-6.8977,-6.847,-6.7963,-6.7421,-6.6948,-6.7184,-6.7354,-6.6609,-6.5493,-6.4546,-6.4275,-6.326,-6.2076,-6.1095,-6.0452,-5.9776,-5.8795,-5.822,-5.7408,-5.5919,-5.4871,-5.4059,-5.3551,-5.3518,-5.3416,-5.3145,-5.3348,-5.2976,-5.1657,-5.1352,-5.0777,-4.9796,-4.9255,-4.9018,-4.9018,-4.9018,-4.9018,-4.9018,-4.9018,-4.9018,-4.9018,-4.9018,-4.9018,-4.8984,-4.821,-4.7906,-6.2381,-6.5933,-6.962,-7.165,-7.3742,-7.5537,-7.6313,-7.6428,-7.59,-7.4484,-7.1616,-6.9451,-6.9654,-6.8436,-6.8707,-7.2699,-7.4728,-7.6826,-7.9701,-8.0006,-7.9571,-7.859,-7.9217,-7.9299,-7.8161,-7.9932,-8.2187,-8.4722,-8.527,-8.5734,-8.6397,-8.5133,-8.3974,-8.3018,-8.0975,-7.987,-7.9803,-7.8855,-7.8483,-7.8686,-7.9383,-7.9564,-7.9287,-7.9902,-7.8629,-7.5828,-7.53,-7.3644,-7.1312,-7.1312,-7.1312,-7.1312,-7.1312,-7.1312,-7.1312,-7.1312,-7.1312,-7.1312,-7.1312,-7.1312,-7.1312,-7.1312,-7.1312,-7.121,-7.0669,-7.0026,-6.9383,-6.8842,-6.8504,-6.8233,-6.776,-6.776,-6.7793,-6.732,-6.5865,-6.4613,-6.4613,-6.3429,-6.2178,-6.1434,-6.0655,-5.9877,-5.9133,-5.8186,-5.7171,-5.6258,-5.4837,-5.3788,-5.3551,-5.3518,-5.3518,-5.3518,-5.3518,-5.3179,-5.2367,-5.1623,-5.0913,-5.0135,-4.939,-4.9018,-4.9018,-4.9018,-4.912,-4.939,-4.912,-4.912,-4.939,-4.912,-4.9018,-4.8984,-4.8511,-4.8308,-6.6677,-6.9901,-7.2451,-7.5263,-7.7434,-7.8795,-7.8258,-7.7755,-7.6641,-7.3844,-7.0216,-6.7227,-6.644,-6.4072,-6.37,-6.8267,-6.8639,-7.0669,-7.7232,-7.5777,-7.5693,-8.0086,-7.8819,-7.8198,-7.9822,-7.9581,-8.0478,-8.32,-8.5532,-8.672,-8.6541,-8.6132,-8.5029,-8.3192,-8.1964,-8.0648,-7.9228,-7.9194,-7.8822,-7.816,-7.9326,-7.947,-7.8663,-7.9845,-7.8459,-7.5161,-7.5126,-7.3644,-7.1312,-7.1312,-7.1312,-7.1312,-7.1312,-7.1312,-7.1312,-7.1312,-7.1312,-7.1312,-7.1312,-7.1312,-7.1312,-7.1312,-7.1312,-7.1041,-6.9654,-6.9654,-6.9891,-6.8436,-6.8571,-6.9147,-6.9113,-6.8538,-6.7963,-6.7895,-6.6203,-6.4613,-6.4613,-6.3429,-6.2178,-6.1501,-6.0689,-5.9877,-5.9133,-5.7814,-5.6833,-5.6799,-5.5581,-5.4397,-5.3653,-5.3518,-5.3518,-5.3518,-5.3518,-5.3179,-5.2435,-5.1691,-5.098,-5.0236,-4.9526,-4.912,-4.912,-4.912,-4.9458,-5.0135,-4.9458,-4.9424,-5.0101,-4.939,-4.9052,-4.9018,-4.9018,-4.9018,-6.962,-7.4387,-7.8603,-7.9316,-8.1335,-8.2689,-8.0823,-7.8953,-7.6275,-7.149,-6.6148,-6.1725,-5.9722,-5.9641,-6.1535,-6.6576,-7.1447,-7.598,-7.9904,-8.1224,-8.1393,-8.0406,-8.0961,-8.0917,-7.9753,-8.0718,-8.1962,-8.3325,-8.3956,-8.5442,-8.8057,-8.6738,-8.5521,-8.4764,-8.3022,-8.1697,-8.075,-8.0175,-7.9837,-7.9684,-8.1687,-8.1769,-8.0268,-8.1617,-7.9973,-7.5932,-7.5335,-7.3644,-7.1312,-7.1312,-7.1312,-7.1312,-7.1312,-7.1312,-7.1312,-7.1312,-7.1312,-7.1312,-7.1312,-7.1312,-7.1312,-7.1312,-7.1312,-7.1244,-7.0872,-7.05,-7.0094,-6.9722,-6.9755,-6.9789,-6.9248,-6.8944,-6.8639,-6.803,-6.6203,-6.4613,-6.4613,-6.3429,-6.2347,-6.2144,-6.1028,-5.9877,-5.9133,-5.822,-5.7442,-5.69,-5.6021,-5.5141,-5.4397,-5.3856,-5.3518,-5.3518,-5.3518,-5.3416,-5.3213,-5.2469,-5.1961,-5.1758,-5.1048,-5.0642,-5.0642,-5.0642,-5.0744,-5.0913,-5.0744,-5.0473,-5.0101,-4.9898,-4.9526,-4.9018,-4.9018,-4.9018,-7.4462,-7.8867,-8.2626,-8.2338,-8.3684,-8.3809,-7.9175,-7.6729,-7.3264,-6.5918,-6.066,-5.6747,-5.4737,-5.504,-5.7306,-6.255,-6.7963,-7.3341,-7.8619,-8.0445,-8.1325,-8.1596,-8.2189,-8.2109,-8.0892,-8.1794,-8.3199,-8.4907,-8.5162,-8.5829,-8.7133,-8.7028,-8.6171,-8.4586,-8.3466,-8.2374,-8.1291,-8.0547,-8.0209,-8.0175,-8.1164,-8.087,-7.9574,-8.0555,-7.8855,-7.5053,-7.5085,-7.3644,-7.1312,-7.1312,-7.1312,-7.1312,-7.1312,-7.1312,-7.1312,-7.1312,-7.1312,-7.1312,-7.1312,-7.1312,-7.1312,-7.1312,-7.1312,-7.1244,-7.0939,-7.0737,-7.0601,-7.0297,-7.0432,-7.0601,-7.0161,-6.9586,-6.8977,-6.8538,-6.6711,-6.4986,-6.4681,-6.37,-6.2685,-6.2042,-6.1231,-6.0283,-5.9201,-5.866,-5.8118,-5.7374,-5.6393,-5.5547,-5.5141,-5.416,-5.3518,-5.3518,-5.3518,-5.3518,-5.3518,-5.2773,-5.23,-5.23,-5.1623,-5.1185,-5.1185,-5.1185,-5.1352,-5.1691,-5.1386,-5.1183,-5.1048,-5.0744,-5.0371,-4.9965,-4.9627,-4.9492,-7.996,-8.3056,-8.5308,-8.4796,-8.5095,-8.3608,-7.6142,-7.3277,-6.9389,-5.966,-5.5281,-5.2735,-5.1048,-5.0982,-5.301,-5.8558,-6.2685,-6.8107,-7.6524,-7.7827,-7.9389,-8.3378,-8.3311,-8.2886,-8.2712,-8.2915,-8.4071,-8.6586,-8.7201,-8.6966,-8.5902,-8.7325,-8.6789,-8.3764,-8.3456,-8.2746,-8.146,-8.0615,-8.0209,-8.0175,-7.9732,-7.8936,-7.7991,-7.8489,-7.685,-7.3705,-7.464,-7.3651,-7.1447,-7.1447,-7.1413,-7.1312,-7.1312,-7.1312,-7.1312,-7.1312,-7.1312,-7.1312,-7.1312,-7.1312,-7.1312,-7.1312,-7.1312,-7.1176,-7.0534,-7.0804,-7.1176,-7.0534,-7.0804,-7.1312,-7.1312,-7.0229,-6.9113,-6.9113,-6.7286,-6.5358,-6.4749,-6.3937,-6.299,-6.1704,-6.1366,-6.0892,-5.9539,-5.9167,-5.8795,-5.8118,-5.6799,-5.5818,-5.5681,-5.4431,-5.3518,-5.3518,-5.3518,-5.3518,-5.3518,-5.2875,-5.2469,-5.2469,-5.186,-5.1522,-5.1522,-5.1522,-5.1826,-5.2469,-5.1826,-5.1792,-5.23,-5.1657,-5.1319,-5.1151,-5.0541,-5.0168,-8.3358,-8.6083,-8.8032,-8.729,-8.6891,-8.4784,-7.7551,-7.3188,-6.7968,-5.8384,-5.3909,-5.108,-4.89,-4.9968,-5.3551,-6.0655,-6.5459,-7.1542,-8.0741,-8.2527,-8.3666,-8.5654,-8.5792,-8.5307,-8.434,-8.4257,-8.452,-8.4984,-8.6004,-8.7371,-8.9091,-8.8552,-8.7034,-8.449,-8.3253,-8.2475,-8.2205,-8.0885,-8.0209,-8.0209,-8.1036,-8.0234,-7.8025,-7.9039,-7.764,-7.4424,-7.4623,-7.3729,-7.2225,-7.2225,-7.1853,-7.1312,-7.1312,-7.1312,-7.1312,-7.1312,-7.1312,-7.1312,-7.1312,-7.1312,-7.1312,-7.1312,-7.1312,-7.1278,-7.1142,-7.121,-7.1278,-7.1142,-7.121,-7.1312,-7.1312,-7.0229,-6.9113,-6.9113,-6.688,-6.4749,-6.4647,-6.3531,-6.2516,-6.2245,-6.1704,-6.1231,-6.096,-5.9844,-5.8964,-5.8829,-5.7543,-5.6393,-5.5784,-5.4431,-5.3518,-5.3518,-5.3518,-5.3518,-5.3518,-5.3382,-5.3281,-5.3281,-5.3179,-5.3112,-5.3112,-5.3112,-5.3179,-5.3281,-5.3179,-5.2841,-5.23,-5.2164,-5.1826,-5.1185,-5.1082,-5.0676,-8.6222,-8.8449,-9.0177,-8.9155,-8.6677,-8.2462,-7.4954,-6.9102,-6.2694,-5.3683,-5.0581,-4.9035,-4.7517,-4.9389,-5.2711,-5.7431,-6.2382,-6.8777,-7.7787,-8.0383,-8.2592,-8.5998,-8.6795,-8.6385,-8.4747,-8.4979,-8.5332,-8.5498,-8.6053,-8.6623,-8.7151,-8.6658,-8.5614,-8.4084,-8.2983,-8.2238,-8.1832,-8.075,-8.0209,-8.0209,-8.0755,-7.9971,-7.8025,-7.8586,-7.7276,-7.4627,-7.4627,-7.3984,-7.2969,-7.2969,-7.2529,-7.1887,-7.1887,-7.165,-7.1312,-7.1312,-7.1312,-7.1312,-7.1312,-7.1312,-7.1312,-7.1312,-7.1312,-7.1312,-7.1312,-7.1312,-7.1312,-7.1312,-7.1312,-7.1312,-7.1312,-7.0229,-6.9113,-6.9113,-6.6812,-6.4613,-6.4613,-6.3429,-6.2381,-6.2381,-6.211,-6.1738,-6.1366,-6.0351,-5.9438,-5.9066,-5.7746,-5.6664,-5.6325,-5.5344,-5.4363,-5.3585,-5.3518,-5.3518,-5.3518,-5.3518,-5.3518,-5.3518,-5.3518,-5.3518,-5.3518,-5.3518,-5.3518,-5.3518,-5.3518,-5.3315,-5.2909,-5.2909,-5.2739,-5.2401,-5.1995,-5.1589,-8.8599,-9.0364,-9.1583,-9.0637,-8.6204,-8.0041,-7.2213,-6.5351,-5.8258,-4.9838,-4.7802,-4.7334,-4.6776,-4.8471,-5.0892,-5.3751,-5.8006,-6.4244,-7.3712,-7.7116,-8.0523,-8.577,-8.7353,-8.7169,-8.5071,-8.5418,-8.5864,-8.6022,-8.6003,-8.5684,-8.5014,-8.4766,-8.4336,-8.3761,-8.2881,-8.2137,-8.1528,-8.0648,-8.0209,-8.0209,-8.0209,-7.9431,-7.7976,-7.7976,-7.6826,-7.4864,-7.4864,-7.4424,-7.3713,-7.3713,-7.3206,-7.2394,-7.2394,-7.1954,-7.1312,-7.1312,-7.1312,-7.1312,-7.1312,-7.1312,-7.1312,-7.1312,-7.1312,-7.1312,-7.1312,-7.1312,-7.1312,-7.1312,-7.1312,-7.1312,-7.1312,-7.0229,-6.8977,-6.8504,-6.644,-6.4546,-6.441,-6.3328,-6.2381,-6.2381,-6.2381,-6.2212,-6.1637,-6.0757,-5.9911,-5.9336,-5.7983,-5.6968,-5.6833,-5.6292,-5.5446,-5.4126,-5.3822,-5.3754,-5.3754,-5.3585,-5.3518,-5.3518,-5.3518,-5.3518,-5.3518,-5.3518,-5.3518,-5.3518,-5.3518,-5.3518,-5.3518,-5.3518,-5.3518,-5.3484,-5.2841,-5.2469,-9.0108,-9.162,-9.1767,-9.1657,-8.6891,-8.0107,-7.2171,-6.5415,-5.8517,-5.0537,-4.7827,-4.6869,-4.6801,-4.6462,-4.7823,-5.2771,-5.5108,-6.0532,-7.2574,-7.6604,-8.0252,-8.5728,-8.8088,-8.8305,-8.5924,-8.5757,-8.5506,-8.48,-8.4766,-8.5222,-8.6167,-8.5222,-8.4606,-8.4539,-8.3152,-8.2374,-8.2306,-8.0885,-8.0209,-8.0209,-8.0209,-7.9431,-7.7976,-7.7976,-7.7096,-7.5608,-7.5608,-7.5168,-7.4525,-7.4525,-7.368,-7.2394,-7.2394,-7.1954,-7.1312,-7.1312,-7.1312,-7.1312,-7.1312,-7.1312,-7.1312,-7.1312,-7.1312,-7.1312,-7.1312,-7.1312,-7.1312,-7.1312,-7.1312,-7.1312,-7.1312,-7.0229,-6.8571,-6.6474,-6.529,-6.441,-6.3768,-6.2956,-6.2381,-6.2381,-6.2381,-6.2381,-6.2313,-6.1061,-6.008,-6.0013,-5.8727,-5.7543,-5.69,-5.6731,-5.6393,-5.5546,-5.4905,-5.4499,-5.4499,-5.389,-5.3518,-5.3518,-5.3518,-5.3518,-5.3518,-5.3518,-5.3518,-5.3518,-5.3518,-5.3518,-5.3518,-5.3518,-5.3518,-5.3518,-5.3416,-5.301,-8.9459,-9.1436,-9.1693,-9.1216,-8.4389,-7.6475,-7.1468,-6.3113,-5.5115,-5.0595,-4.8771,-4.7997,-4.7997,-4.7414,-4.7729,-5.0236,-5.1607,-5.5723,-6.5433,-6.8881,-7.358,-8.2049,-8.4577,-8.5804,-8.6447,-8.6873,-8.6602,-8.5418,-8.5317,-8.5347,-8.5326,-8.4838,-8.4403,-8.3964,-8.2949,-8.2408,-8.2408,-8.0953,-8.0412,-8.0851,-8.0412,-7.9431,-7.7976,-7.7976,-7.7164,-7.5709,-7.5709,-7.554,-7.5236,-7.4796,-7.3984,-7.3003,-7.2563,-7.1954,-7.1312,-7.1312,-7.1312,-7.1312,-7.1312,-7.1312,-7.1312,-7.1312,-7.1312,-7.1312,-7.1312,-7.1312,-7.1312,-7.1312,-7.1312,-7.1312,-7.1312,-7.0229,-6.8639,-6.6812,-6.5459,-6.4512,-6.4241,-6.3226,-6.2381,-6.2381,-6.2381,-6.2381,-6.2381,-6.1501,-6.0655,-6.0182,-5.9235,-5.8287,-5.7543,-5.7442,-5.734,-5.707,-5.5547,-5.46,-5.46,-5.3923,-5.3518,-5.3518,-5.3518,-5.3518,-5.3518,-5.3518,-5.3518,-5.3518,-5.3518,-5.3518,-5.3518,-5.3518,-5.3518,-5.3518,-5.3518,-5.3348,-8.7117,-9.0298,-9.162,-9.0812,-8.2902,-7.4403,-7.1045,-6.1802,-5.3169,-5.0604,-4.9274,-4.8529,-4.8529,-4.8107,-4.7914,0.0,0.0,-5.2914,-6.0047,-6.3484,-6.8562,-7.7327,-8.0224,-8.2404,-8.5037,-8.6535,-8.6907,-8.5858,-8.5587,-8.5215,-8.464,-8.464,-8.4268,-8.3524,-8.278,-8.2306,-8.2069,-8.0818,-8.0445,-8.0953,-8.0445,-7.9431,-7.7976,-7.7976,-7.7164,-7.5709,-7.5709,-7.5574,-7.5337,-7.483,-7.4052,-7.3105,-7.2597,-7.1954,-7.1312,-7.1312,-7.1312,-7.1312,-7.1312,-7.1312,-7.1312,-7.1312,-7.1312,-7.1312,-7.1312,-7.1312,-7.1312,-7.1312,-7.1312,-7.1142,-7.0466,-6.9722,-6.8707,-6.7184,-6.5662,-6.4647,-6.4884,-6.3768,-6.2787,-6.299,-6.3024,-6.299,-6.2753,-6.211,-6.1366,-6.0554,-5.981,-5.9066,-5.8321,-5.822,-5.8118,-5.7915,-5.6292,-5.5243,-5.5243,-5.4566,-5.4059,-5.3856,-5.3822,-5.3721,-5.3518,-5.3518,-5.3518,-5.3518,-5.3518,-5.3518,-5.3518,-5.3518,-5.3518,-5.3518,-5.3518,-5.3518,-8.31,-8.8169,-9.162,-9.0812,-8.3326,-7.5128,-7.1181,-6.2258,-5.3887,-5.0762,-4.8917,-4.7902,-4.7902,-4.7832,-4.7838,-4.7886,-4.9752,0.0,-5.8262,-6.2668,-6.7111,-7.1898,-7.5519,-7.8568,-8.1105,-8.4065,-8.579,-8.579,-8.508,-8.464,-8.464,-8.464,-8.4268,-8.3524,-8.278,-8.2069,-8.1291,-8.0547,-8.0209,-8.0209,-8.0209,-7.9431,-7.7976,-7.7976,-7.7164,-7.5709,-7.5709,-7.5303,-7.4627,-7.4627,-7.3747,-7.2428,-7.2394,-7.1954,-7.1312,-7.1312,-7.1312,-7.1312,-7.1312,-7.1312,-7.1312,-7.1312,-7.1312,-7.1312,-7.1312,-7.1312,-7.1312,-7.1312,-7.1312,-7.0804,-6.8538,-6.8504,-6.8707,-6.7184,-6.5662,-6.4783,-6.5527,-6.4546,-6.37,-6.4444,-6.458,-6.4343,-6.3632,-6.2888,-6.2144,-6.14,-6.0588,-5.981,-5.9099,-5.8998,-5.8727,-5.7983,-5.7239,-5.6799,-5.6799,-5.6122,-5.5378,-5.4634,-5.4566,-5.4262,-5.3551,-5.3518,-5.3518,-5.3518,-5.3518,-5.3518,-5.3518,-5.3518,-5.3518,-5.3518,-5.3518,-5.3518,-7.4998,-7.831,-8.0128,-7.926,-7.3101,-6.6912,-6.5616,-5.8968,-5.2793,-5.179,-5.0845,-4.9999,-4.9492,-4.9403,-4.9733,-5.0742,-5.1985,-5.3886,-5.7072,-6.2157,-6.7448,-7.2541,-8.0406,-8.5728,-8.6555,-8.7042,-8.7076,-8.6602,-8.5858,-8.5182,-8.464,-8.464,-8.4268,-8.3524,-8.278,-8.2306,-8.2069,-8.0818,-8.0209,-8.0209,-8.0209,-7.916,-7.7266,-7.7773,-7.7164,-7.5676,-7.5168,-7.483,-7.4525,-7.351,-7.2834,-7.236,-7.1853,-7.1515,-7.1312,-7.1312,-7.1312,-7.1312,-7.1312,-7.1312,-7.1312,-7.1312,-7.1312,-7.1312,-7.1312,-7.1312,-7.1312,-7.1312,-7.1312,-7.0906,-6.918,-6.891,-6.8707,-6.7184,-6.6068,-6.5392,-6.5628,-6.4918,-6.4343,-6.4546,-6.4613,-6.4546,-6.4309,-6.3632,-6.2922,-6.2144,-6.14,-6.0655,-5.9844,-5.9742,-5.9471,-5.8727,-5.8457,-5.7915,-5.69,-5.6122,-5.5615,-5.5378,-5.4871,-5.4499,-5.4262,-5.3788,-5.3518,-5.3518,-5.3518,-5.3518,-5.3518,-5.3518,-5.3518,-5.3518,-5.3518,-5.3518,-6.9264,-7.3026,-7.5075,-7.366,-6.8365,-6.3369,-6.2716,-5.7224,-5.23,-5.23,-5.1725,-5.098,-5.0236,-5.0317,-5.0646,-5.1011,-5.2425,-5.4226,-5.6496,-6.1704,-6.7523,-7.3612,-8.1562,-8.6569,-8.6569,-8.7177,-8.7279,-8.6535,-8.579,-8.5148,-8.464,-8.437,-8.3862,-8.3118,-8.2644,-8.2137,-8.1596,-8.0648,-8.0209,-8.0209,-7.9938,-7.8923,-7.7299,-7.7502,-7.6893,-7.5676,-7.4931,-7.4458,0.0,-7.2902,-7.2225,-7.1954,-7.1481,-7.1312,-7.1312,-7.1312,-7.1312,-7.1312,-7.1312,-7.1312,-7.1312,-7.1312,-7.1312,-7.1312,-7.1312,-7.1312,-7.1244,-7.0973,-7.1109,-7.0906,-6.9113,-6.8876,-6.8707,-6.7184,-6.6237,-6.5764,-6.6034,-6.5527,-6.5087,-6.5392,-6.5425,-6.5358,-6.5053,-6.4647,-6.4072,-6.3328,-6.2618,-6.1839,-6.1061,-6.0723,-6.025,-5.9505,-5.9438,-5.893,-5.7746,-5.6968,-5.6427,-5.6156,-5.5683,-5.531,-5.504,-5.4296,-5.3923,-5.3923,-5.3653,-5.3518,-5.3518,-5.3518,-5.3518,-5.3518,-5.3518,-5.3518,0.0,-7.0726,-7.422,-7.1965,-6.7382,-6.3058,-6.1703,-5.6744,0.0,-5.2401,-5.186,-5.115,-5.0371,-5.0823,-5.0823,-4.9548,-5.1713,-5.4372,-5.6635,-6.1839,-6.8098,-7.5473,-8.0209,-8.2847,-8.2746,-8.5283,-8.6636,-8.5926,-8.508,-8.464,-8.464,-8.3896,-8.3152,-8.2441,-8.2306,-8.1596,-8.0209,-8.0141,-8.0107,-8.004,-7.9363,-7.8619,-7.7807,-7.713,-7.6386,-7.5574,-7.4796,-7.4052,-7.3341,-7.2631,-7.1921,-7.1312,-7.1312,-7.1312,-7.1312,-7.1312,-7.1312,-7.1312,-7.1312,-7.1312,-7.1312,-7.1312,-7.1312,-7.1312,-7.1312,-7.1312,-7.1176,-7.0466,-7.077,-7.0804,-6.8639,-6.8571,-6.8741,-6.7252,-6.6305,-6.5967,-6.6677,-6.6271,-6.5967,-6.6677,-6.6812,-6.6576,-6.5899,-6.573,-6.5459,-6.4783,-6.4072,-6.3328,-6.2618,-6.1907,-6.1163,-6.0351,-6.0216,-5.9877,-5.9167,-5.8389,-5.7645,-5.6934,-5.6833,-5.6494,-5.5818,-5.5074,-5.4634,-5.46,-5.389,-5.3518,-5.3518,-5.3518,-5.3518,-5.3518,-5.3518,-5.3518,-5.9286,0.0,-6.1132,-5.9963,-5.7855,-5.6095,0.0,-5.4737,-5.3213,-5.3213,-5.3078,-5.2739,-5.1928,-5.1921,-5.2121,-5.24,-5.3957,-5.596,-5.8152,-6.6914,-7.5439,-8.1765,-8.5486,-8.7076,-8.596,-8.6501,-8.6839,-8.667,-8.5384,-8.464,-8.464,-8.3896,-8.3152,-8.2441,-8.1325,-8.0547,-8.0209,-7.9634,-7.9092,-7.8483,-7.8348,-7.7536,-7.6217,-7.6048,-7.5574,-7.4796,-7.3477,-7.2834,-7.2597,-7.1853,-7.1481,-7.1312,-7.1312,-7.1312,-7.1312,-7.1312,-7.1312,-7.1312,-7.1312,-7.1312,-7.1312,-7.1312,-7.1312,-7.1312,-7.1312,-7.1312,-7.1278,-7.1109,-7.1176,-7.1075,-6.9958,-6.9383,-6.8842,-6.7861,-6.7083,-6.6609,-6.6779,-6.6677,-6.6609,-6.6779,-6.6812,-6.6745,-6.6576,-6.6068,-6.5628,-6.5459,-6.4816,-6.4275,-6.4106,-6.3429,-6.2685,-6.1941,-6.1366,-6.0689,-5.9911,-5.9167,-5.8423,-5.7679,-5.7103,-5.6731,-5.6562,-5.5852,-5.5175,-5.46,-5.389,-5.3518,-5.3518,-5.3518,-5.3518,-5.3518,-5.3518,-5.3518,-5.6713,-5.7103,-5.7611,-5.6091,-5.509,-5.4528,-5.4601,-5.4025,-5.3518,-5.3518,-5.3213,-5.2807,-5.2367,-5.1488,-5.115,-5.2266,-5.3991,-5.7171,-6.2854,-7.0331,-7.7299,-8.2949,-8.5655,-8.7008,-8.6907,-8.6602,-8.623,-8.5892,-8.508,-8.4471,-8.4133,-8.3389,-8.2509,-8.1426,-8.031,-7.9701,-7.9701,-7.8957,-7.8382,-7.7976,-7.7638,-7.7063,-7.6251,-7.5879,-7.5303,-7.4559,-7.3409,-7.2699,-7.2326,-7.1616,-7.1312,-7.1312,-7.1312,-7.1312,-7.1312,-7.1312,-7.1312,-7.1312,-7.1312,-7.1312,-7.1312,-7.1312,-7.1312,-7.1312,-7.1312,-7.1312,-7.1312,-7.1312,-7.1312,-7.1142,-7.0398,-6.9891,-6.9316,-6.8166,-6.759,-6.7218,-6.688,-6.6812,-6.6812,-6.6812,-6.7083,-6.732,-6.732,-6.6981,-6.6711,-6.6711,-6.5797,-6.5087,-6.5087,-6.4478,-6.3869,-6.3429,-6.2753,-6.2009,-6.1231,-6.0486,-5.9573,-5.8457,-5.8051,-5.7679,-5.7306,-5.6596,-5.5716,-5.46,-5.389,-5.3687,-5.3991,-5.3687,-5.3687,-5.3991,-5.3653,-5.3518,-5.6393,-5.7736,-5.8889,-5.6203,-5.5527,-5.5367,-5.4737,-5.4025,-5.3484,-5.3348,-5.2773,-5.2232,-5.1995,-5.071,-5.0067,-5.1183,-5.4059,-5.9404,-6.8808,-7.3206,-7.7232,-8.2002,-8.3998,-8.5384,-8.6467,-8.6095,-8.552,-8.4843,-8.4674,-8.4302,-8.3524,-8.2813,-8.1799,-8.0412,-7.9431,-7.8923,-7.8923,-7.8213,-7.7807,-7.7807,-7.7063,-7.6724,-7.669,-7.5777,-7.5033,-7.439,-7.351,-7.28,-7.2191,-7.1582,-7.1312,-7.1312,-7.1312,-7.1312,-7.1312,-7.1312,-7.1312,-7.1312,-7.1312,-7.1312,-7.1312,-7.1312,-7.1312,-7.1312,-7.1312,-7.1312,-7.1312,-7.1312,-7.1312,-7.1176,-7.0534,-7.0263,-6.9823,-6.8402,-6.8098,-6.7895,-6.7151,-6.7083,-6.7151,-6.7151,-6.7658,-6.8098,-6.8098,-6.8098,-6.803,-6.7929,-6.6846,-6.6,-6.5865,-6.5222,-6.4783,-6.4783,-6.4005,-6.326,-6.2618,-6.1873,-6.0858,-5.9438,-5.9133,-5.8693,-5.7915,-5.707,-5.6055,-5.4769,-5.3923,-5.3856,-5.46,-5.3957,-5.3991,-5.4566,-5.3957,-5.3619,-5.7611,-5.9253,-5.9979,-5.5791,-5.4771,-5.4737,-5.4634,-5.4025,-5.3315,-5.2638,-5.2401,-5.1928,-5.0676,-5.1725,-5.2672,-5.2198,-5.8287,-6.5797,-7.3578,-7.7367,-8.0344,-8.3016,-8.5249,-8.6129,-8.508,-8.5452,-8.5723,-8.5621,-8.4979,-8.4302,-8.3524,-8.2813,-8.2002,-8.1156,-7.9194,-7.8145,-7.8145,-7.7435,-7.7063,-7.7063,-7.6251,-7.5879,-7.5845,-7.4458,-7.3781,-7.3578,-7.2225,-7.1582,-7.1481,-7.1379,-7.1312,-7.1312,-7.1312,-7.1312,-7.1312,-7.1312,-7.1312,-7.1312,-7.1312,-7.1312,-7.1312,-7.1312,-7.1312,-7.1312,-7.1312,-7.1312,-7.1312,-7.1312,-7.1312,-7.1278,-7.1176,-7.0669,-6.9958,-6.9113,-6.891,-6.8707,-6.7895,-6.8267,-6.8741,-6.8741,-6.8842,-6.891,-6.891,-6.891,-6.8673,-6.7996,-6.7692,-6.7354,-6.6711,-6.6,-6.5527,-6.5527,-6.4309,-6.3463,-6.3362,-6.2651,-6.1873,-6.0994,-5.9742,-5.8693,-5.7915,-5.6596,-5.5784,-5.5547,-5.4194,-5.3856,-5.46,-5.4465,-5.4465,-5.46,-5.4465,-5.4093,-5.6833,-5.7476,-5.7983,-5.6697,-5.6968,-5.7273,-5.6055,-5.5209,-5.4465,-5.3687,-5.3213,-5.2739,-5.2063,-5.3112,-5.5412,-5.9471,-6.4343,-6.9519,-7.4931,-7.7604,-7.9837,-8.2035,-8.393,-8.5114,-8.5249,-8.5182,-8.5148,-8.5148,-8.4437,-8.3693,-8.2949,-8.1832,-8.0682,-7.9532,-7.8145,-7.7198,-7.6758,-7.642,-7.6251,-7.6251,-7.5473,-7.51,-7.5067,-7.3984,-7.3274,-7.2868,-7.2191,-7.1684,-7.1312,-7.1312,-7.1312,-7.1312,-7.1312,-7.1312,-7.1312,-7.1312,-7.1312,-7.1312,-7.1312,-7.1312,-7.1312,-7.1312,-7.1312,-7.1312,-7.1312,-7.1312,-7.1312,-7.1312,-7.1312,-7.1312,-7.1312,-7.1075,-7.0601,-6.9857,-6.9688,-6.9485,-6.8707,-6.8842,-6.9113,-6.9113,-6.9417,-6.9688,-6.9688,-6.9688,-6.9553,-6.918,-6.8808,-6.8267,-6.7489,-6.7083,-6.6745,-6.6339,-6.5324,-6.4546,-6.414,-6.3429,-6.2516,-6.1366,-5.9877,-5.8863,-5.8524,-5.707,-5.6292,-5.6292,-5.5243,-5.5074,-5.5784,-5.5378,-5.5209,-5.5209,-5.5209,-5.46,-5.6325,-5.6359,-5.6664,-5.7442,-5.822,-5.8693,-5.822,-5.7137,-5.6224,-5.619,-5.5581,-5.4769,-5.3923,-5.4769,-5.8186,-6.6068,-6.9654,-7.2834,-7.6724,-7.8416,-7.9972,-8.1832,-8.3084,-8.4234,-8.5384,-8.4979,-8.4539,-8.437,-8.3828,-8.3016,-8.1934,-8.0818,-7.9498,-7.8044,-7.7266,-7.6521,-7.5709,-7.554,-7.5439,-7.5439,-7.4864,-7.4525,-7.4322,-7.3578,-7.2935,-7.2394,-7.2225,-7.1819,-7.1312,-7.1312,-7.1312,-7.1312,-7.1312,-7.1312,-7.1312,-7.1312,-7.1312,-7.1312,-7.1312,-7.1312,-7.1312,-7.1312,-7.1312,-7.1312,-7.1312,-7.1312,-7.1312,-7.1312,-7.1312,-7.1312,-7.1312,-7.1312,-7.1109,-7.0364,-7.0331,-7.0263,-6.9519,-6.9485,-6.962,-6.962,-7.006,-7.0466,-7.0466,-7.0466,-7.0398,-7.0229,-6.9553,-6.8808,-6.7996,-6.776,-6.7421,-6.688,-6.6136,-6.5324,-6.441,-6.3835,-6.2956,-6.1637,-5.9945,-5.9032,-5.9032,-5.7577,-5.6799,-5.6799,-5.6089,-5.6089,-5.6799,-5.6258,-5.5987,-5.5987,-5.5987,-5.5277,-5.7577,-5.8254,-5.8457,-5.7205,-5.5919,-5.6224,-6.0926,-5.9776,-5.8321,-6.0385,-6.0182,-5.8592,-5.5141,-5.6799,-6.096,-6.7827,-7.2529,-7.686,-8.1291,-8.2611,-8.3422,-8.4268,-8.4471,-8.4573,-8.4708,-8.464,-8.4336,-8.3625,-8.3524,-8.2577,-8.0479,-8.0242,-7.9498,-7.8044,-7.7266,-7.6521,-7.5709,-7.5033,-7.4695,-7.4695,-7.4627,-7.4255,-7.3544,-7.28,-7.2462,-7.236,-7.1684,-7.1379,-7.1312,-7.1312,-7.1312,-7.1312,-7.1312,-7.1312,-7.1312,-7.1312,-7.1312,-7.1312,-7.1312,-7.1312,-7.1312,-7.1312,-7.1312,-7.1312,-7.1312,-7.1312,-7.1312,-7.1312,-7.1312,-7.1312,-7.1312,-7.1312,-7.1109,-7.0364,-7.0737,-7.1041,-7.0263,-7.0669,-7.1142,-7.1142,-7.121,-7.1244,-7.1244,-7.1244,-7.1007,-7.0297,-6.9553,-6.8808,-6.7996,-6.732,-6.688,-6.6812,-6.6136,-6.5121,-6.37,-6.3531,-6.3159,-6.2347,-6.025,-5.9032,-5.9032,-5.7577,-5.6799,-5.6799,-5.6089,-5.6089,-5.6799,-5.6765,-5.6731,-5.6731,-5.6731,-5.6292,-5.7137,-5.8084,-5.8761,-5.7746,-5.707,-5.7645,-6.1501,-6.1501,-6.1332,-6.3565,-6.3768,-6.2888,-6.0554,-6.255,-6.6136,-7.1041,-7.5574,-7.9566,-8.2644,-8.4133,-8.4843,-8.464,-8.5046,-8.5148,-8.4674,-8.42,-8.3795,-8.3524,-8.2238,-8.1088,-8.0242,-7.8889,-7.7874,-7.7333,-7.6115,-7.5337,-7.5033,-7.4289,-7.368,-7.324,-7.324,-7.3105,-7.28,-7.2056,-7.1718,-7.1718,-7.1447,-7.1312,-7.1312,-7.1312,-7.1312,-7.1312,-7.1312,-7.1312,-7.1312,-7.1312,-7.1312,-7.1312,-7.1312,-7.1312,-7.1312,-7.1312,-7.1312,-7.1312,-7.1312,-7.1312,-7.1312,-7.1312,-7.1312,-7.1312,-7.1312,-7.1312,-7.1244,-7.0973,-7.1109,-7.1244,-7.0939,-7.1109,-7.1312,-7.1312,-7.1312,-7.1312,-7.1312,-7.1312,-7.121,-7.0939,-7.0263,-6.9519,-6.8741,-6.7963,-6.732,-6.688,-6.6136,-6.529,-6.4275,-6.3768,-6.3193,-6.2448,-6.1163,-6.0216,-5.9708,-5.8727,-5.7949,-5.7476,-5.7205,-5.7205,-5.7476,-5.7476,-5.7239,-5.6799,-5.7273,-5.6833,-5.6393,-5.6867,-5.7273,-5.7205,-5.7543,-5.8998,-6.3159,-6.3599,-6.4038,-6.7455,-6.7015,-6.5797,-6.5053,-6.6339,-6.8842,-7.2834,-7.7266,-8.0953,-8.3186,-8.4606,-8.5215,-8.4674,-8.508,-8.5114,-8.4336,-8.3795,-8.3219,-8.2509,-8.1054,-7.9769,-7.8822,-7.7333,-7.6318,-7.5845,-7.4796,-7.4153,-7.3916,-7.3409,-7.2766,-7.2056,-7.2056,-7.2056,-7.2056,-7.1548,-7.1312,-7.1312,-7.1312,-7.1312,-7.1312,-7.1312,-7.1312,-7.1312,-7.1312,-7.1312,-7.1312,-7.1312,-7.1312,-7.1312,-7.1312,-7.1312,-7.1312,-7.1312,-7.1312,-7.1312,-7.1312,-7.1312,-7.1312,-7.1312,-7.1312,-7.1312,-7.1312,-7.1312,-7.1312,-7.1312,-7.1312,-7.1312,-7.1312,-7.1312,-7.1312,-7.1312,-7.1312,-7.1312,-7.1312,-7.1312,-7.1312,-7.1312,-7.0669,-6.9992,-6.9519,-6.8538,-6.7624,-6.688,-6.6339,-6.573,-6.5019,-6.4275,-6.3531,-6.2787,-6.2042,-6.1298,-6.052,-5.9539,-5.8761,-5.8254,-5.8017,-5.7881,-5.7881,-5.7881,-5.7645,-5.7171,-5.7645,-5.734,-5.5547,-5.4702,-5.3957,-5.5412,-5.6867,-5.9708,-6.6373,-6.6203,-6.6305,-7.2293,-6.9958,-6.7083,-6.7793,-6.7354,-6.8301,-7.2732,-7.7232,-8.0953,-8.3152,-8.4133,-8.4606,-8.4606,-8.4606,-8.4302,-8.3558,-8.349,-8.2577,-8.0378,-8.0175,-7.8855,-7.5845,-7.5676,-7.4999,-7.3544,-7.3477,-7.3138,-7.2394,-7.2394,-7.2022,-7.1312,-7.1312,-7.1312,-7.1312,-7.1312,-7.1312,-7.1312,-7.1312,-7.1312,-7.1312,-7.1312,-7.1312,-7.1312,-7.1312,-7.1312,-7.1312,-7.1312,-7.1312,-7.1312,-7.1312,-7.1312,-7.1312,-7.1312,-7.1312,-7.1312,-7.1312,-7.1312,-7.1312,-7.1312,-7.1312,-7.1312,-7.1312,-7.1312,-7.1312,-7.1312,-7.1312,-7.1312,-7.1312,-7.1312,-7.1312,-7.1312,-7.1312,-7.1312,-7.1312,-7.1312,-7.1312,-7.1312,-7.0669,-7.0195,-7.0161,-6.8842,-6.7624,-6.6914,-6.6812,-6.6508,-6.5764,-6.5019,-6.4309,-6.3565,-6.2821,-6.2076,-6.1332,-5.9844,-5.9032,-5.9032,-5.8287,-5.7881,-5.7881,-5.7881,-5.7881,-5.7881,-5.7881,-5.7881,-5.7983,-5.9268,-6.025,-5.9099,-6.0723,-6.3531,-6.7083,-6.7387,-6.847,-7.3916,-7.2732,-7.05,-6.9654,-6.9755,-7.0398,-7.1751,-7.5709,-7.9228,-8.0919,-8.2272,-8.3084,-8.3084,-8.3084,-8.2983,-8.2746,-8.2238,-8.146,-8.0276,-7.8754,-7.7232,-7.5777,-7.4695,-7.395,-7.351,-7.3003,-7.2631,-7.2394,-7.1887,-7.1548,-7.1312,-7.1312,-7.1312,-7.1312,-7.1312,-7.1312,-7.1312,-7.1312,-7.1312,-7.1312,-7.1312,-7.1312,-7.1312,-7.1312,-7.1312,-7.1312,-7.1312,-7.1312,-7.1312,-7.1312,-7.1312,-7.1312,-7.1312,-7.1312,-7.1312,-7.1312,-7.1312,-7.1312,-7.1312,-7.1312,-7.1312,-7.1312,-7.1312,-7.1312,-7.1312,-7.1312,-7.1312,-7.1312,-7.1312,-7.1312,-7.1312,-7.1312,-7.1312,-7.1312,-7.1312,-7.1312,-7.1312,-7.0669,-6.9992,-6.9485,-6.9011,-6.8436,-6.7658,-6.7557,-6.7083,-6.5797,-6.5493,-6.485,-6.3599,-6.3768,-6.3159,-6.1366,-6.0858,-6.0114,-5.9032,-5.8795,-5.8423,-5.7881,-5.7881,-5.7881,-5.7881,-5.7881,-5.7881,-5.7611,-5.9032,-6.052,-6.0926,-6.2821,-6.5324,-6.8166,-6.9958,-7.2056,-7.5845,-7.4356,-7.2225,-7.1616,-7.1142,-7.1244,-7.2428,-7.5405,-7.8179,-7.9938,-8.1224,-8.1968,-8.1968,-8.1968,-8.1866,-8.1562,-8.0851,-8.0006,-7.8957,-7.7367,-7.5845,-7.4458,-7.3544,-7.2935,-7.2631,-7.2191,-7.1954,-7.1954,-7.1548,-7.1312,-7.1312,-7.1312,-7.1312,-7.1312,-7.1312,-7.1312,-7.1312,-7.1312,-7.1312,-7.1312,-7.1312,-7.1312,-7.1312,-7.1312,-7.1312,-7.1312,-7.1312,-7.1312,-7.1312,-7.1312,-7.1312,-7.1312,-7.1312,-7.1312,-7.1312,-7.1312,-7.1312,-7.1312,-7.1312,-7.1312,-7.1312,-7.1312,-7.1312,-7.1312,-7.1312,-7.1312,-7.1312,-7.1312,-7.1312,-7.1312,-7.1312,-7.1312,-7.1312,-7.1312,-7.1312,-7.1312,-7.1312,-7.0939,-7.0364,-6.962,-6.9553,-6.9113,-6.803,-6.7895,-6.7421,-6.6237,-6.5865,-6.5324,-6.4444,-6.4512,-6.4005,-6.2685,-6.2042,-6.1163,-5.9945,-5.9607,-5.9066,-5.8355,-5.8355,-5.8355,-5.8355,-5.8355,-5.8355,-5.6021,-5.6393,-5.7509,-6.167,-6.4005,-6.6203,-6.9688,-7.3071,-7.5879,-7.7299,-7.4931,-7.2766,-7.3375,-7.1785,-7.1278,-7.3984,-7.5709,-7.7435,-7.9498,-8.0344,-8.0818,-8.0953,-8.0919,-8.0648,-8.004,-7.9329,-7.8314,-7.6893,-7.598,-7.4593,-7.2496,-7.2326,-7.1988,-7.1345,-7.1312,-7.1312,-7.1312,-7.1312,-7.1312,-7.1312,-7.1312,-7.1278,-7.121,-7.1278,-7.1312,-7.1312,-7.1176,-7.1142,-7.121,-7.1142,-7.1142,-7.121,-7.121,-7.1244,-7.1312,-7.1312,-7.1312,-7.1312,-7.1312,-7.1312,-7.1312,-7.1312,-7.1312,-7.1312,-7.1312,-7.1312,-7.1312,-7.1312,-7.1312,-7.1312,-7.1312,-7.1312,-7.1312,-7.1312,-7.1312,-7.1312,-7.1312,-7.1312,-7.1312,-7.1312,-7.1312,-7.1312,-7.1312,-7.1312,-7.1312,-7.1312,-7.1312,-7.1075,-7.0398,-7.0297,-6.9722,-6.8267,-6.8098,-6.7827,-6.7083,-6.6339,-6.5865,-6.5797,-6.5155,-6.4749,-6.4613,-6.3226,-6.2144,-6.14,-6.0622,-5.9844,-5.9099,-5.9099,-5.9099,-5.9099,-5.9099,-5.9099,-5.9877,-6.1366,-6.3057,-6.458,-6.7861,-7.1075,-7.2462,-7.3375,-7.4052,-7.439,-7.4289,-7.4018,-7.3578,-7.2631,-7.2124,-7.2766,-7.4119,-7.5473,-7.6521,-7.6792,-7.7333,-7.8551,-7.8179,-7.801,-7.8416,-7.7807,-7.6995,-7.6014,-7.4728,-7.351,-7.2462,-7.1853,-7.1481,-7.1312,-7.1312,-7.1312,-7.1312,-7.1312,-7.1312,-7.1312,-7.1312,-7.1007,-7.0466,-7.1041,-7.1312,-7.1244,-7.0094,-6.9891,-7.0398,-6.9823,-6.9925,-7.0432,-7.0432,-7.0804,-7.1312,-7.1312,-7.1312,-7.1312,-7.1312,-7.1312,-7.1312,-7.1312,-7.1312,-7.1312,-7.1312,-7.1312,-7.1312,-7.1312,-7.1312,-7.1312,-7.1312,-7.1312,-7.1312,-7.1312,-7.1312,-7.1312,-7.1312,-7.1312,-7.1312,-7.1312,-7.1312,-7.1312,-7.1312,-7.1312,-7.1312,-7.1312,-7.1312,-7.1244,-7.1075,-7.1075,-7.0703,-6.9789,-6.9688,-6.9417,-6.8673,-6.7895,-6.7184,-6.6609,-6.6406,-6.5831,-6.4647,-6.3734,-6.2922,-6.2178,-6.1434,-6.0655,-5.9877,-5.9877,-5.9877,-5.9877,-5.9877,-5.9877,-5.9471,-6.1298,-6.37,-6.6609,-6.9891,-7.2394,-7.2428,-7.2969,-7.3274,-7.2597,-7.3037,-7.3443,-7.3037,-7.236,-7.1988,-7.2326,-7.3037,-7.395,-7.5033,-7.5168,-7.5473,-7.6284,-7.6048,-7.5946,-7.6318,-7.5709,-7.51,-7.4661,-7.3612,-7.2665,-7.1921,-7.1515,-7.1312,-7.1312,-7.1312,-7.1312,-7.1312,-7.1312,-7.1142,-7.077,-7.077,-7.0398,-6.9688,-7.006,-7.0263,-7.0195,-6.9451,-6.9316,-6.962,-6.9248,-6.9316,-6.9654,-6.9654,-7.0128,-7.077,-7.077,-7.1007,-7.1312,-7.1312,-7.1312,-7.1312,-7.1312,-7.1312,-7.1312,-7.1312,-7.1312,-7.1312,-7.1312,-7.1312,-7.1312,-7.1312,-7.1312,-7.1312,-7.1312,-7.1312,-7.1312,-7.1312,-7.1312,-7.1312,-7.1312,-7.1312,-7.1312,-7.1312,-7.1312,-7.1312,-7.1312,-7.1312,-7.1312,-7.1312,-7.1312,-7.1041,-7.0263,-7.0195,-6.9891,-6.9147,-6.8707,-6.8166,-6.7387,-6.7354,-6.6812,-6.5696,-6.4952,-6.4208,-6.3463,-6.2719,-6.1975,-6.1197,-6.0858,-6.0689,-6.0689,-6.0689,-6.0689,-5.7983,-5.9945,-6.299,-6.7726,-7.0567,-7.2056,-7.1447,-7.2225,-7.2766,-7.1548,-7.1887,-7.236,-7.2225,-7.1718,-7.1515,-7.2124,-7.2225,-7.2699,-7.4052,-7.4119,-7.4119,-7.439,-7.4322,-7.4289,-7.439,-7.3747,-7.3308,-7.3308,-7.2631,-7.1954,-7.1345,-7.1312,-7.1312,-7.1312,-7.1176,-7.1109,-7.1109,-7.1007,-7.0601,-6.9992,-6.9857,-6.9485,-6.8876,-6.8774,-6.8842,-6.9079,-6.8808,-6.8774,-6.8876,-6.8774,-6.8774,-6.8876,-6.8876,-6.935,-6.9992,-6.9992,-7.0466,-7.1109,-7.1109,-7.1109,-7.1109,-7.1109,-7.1109,-7.1109,-7.1109,-7.121,-7.1312,-7.1312,-7.1312,-7.1312,-7.1312,-7.1312,-7.1312,-7.1312,-7.1312,-7.1312,-7.1312,-7.1312,-7.1312,-7.1312,-7.1312,-7.1312,-7.1312,-7.1312,-7.1312,-7.1312,-7.1312,-7.1312,-7.1312,-7.1312,-7.1075,-7.0466,-7.0398,-7.0128,-6.9519,-6.935,-6.9011,-6.8335,-6.803,-6.7624,-6.7015,-6.6271,-6.5595,-6.4986,-6.4005,-6.3193,-6.2584,-6.1839,-6.1501,-6.1501,-6.1501,-6.1501,-5.9201,-6.1467,-6.4783,-6.7421,-6.9789,-7.1447,-7.1345,-7.1447,-7.1548,-7.1345,-7.1887,-7.2191,-7.1582,-7.1379,-7.1345,-7.1447,-7.1447,-7.1751,-7.2597,-7.2157,-7.2225,-7.3477,-7.3071,-7.2935,-7.3578,-7.2969,-7.2563,-7.2563,-7.1853,-7.1413,-7.1312,-7.1312,-7.1312,-7.1312,-7.0669,-7.0331,-7.0331,-6.9722,-6.935,-6.9248,-6.8538,-6.8166,-6.803,-6.7421,-6.7861,-6.9045,-6.7692,-6.7489,-6.7996,-6.7387,-6.7489,-6.8064,-6.8064,-6.8538,-6.9248,-6.9248,-6.9722,-7.0331,-7.0331,-7.0331,-7.0331,-7.0331,-7.0331,-7.0331,-7.0331,-7.0804,-7.1312,-7.1312,-7.1312,-7.1312,-7.1312,-7.1312,-7.1312,-7.1312,-7.1312,-7.1312,-7.1312,-7.1312,-7.1312,-7.1312,-7.1312,-7.1312,-7.1312,-7.1312,-7.1312,-7.1312,-7.1312,-7.1312,-7.1312,-7.1312,-7.1278,-7.1176,-7.1176,-7.1109,-7.1007,-7.0432,-6.9992,-6.9891,-6.8639,-6.7861,-6.776,-6.7049,-6.6609,-6.6508,-6.4546,-6.3463,-6.3362,-6.2618,-6.2245,-6.2245,-6.2245,-6.2245,-6.0858,-6.1806,-6.3565,-6.7049,-6.8335,-6.9011,-6.9891,-7.006,-7.006,-7.006,-7.0331,-7.0703,-7.121,-7.0973,-7.0804,-7.1244,-7.0973,-7.0939,-7.1684,-7.1515,-7.1548,-7.2191,-7.1988,-7.1921,-7.2225,-7.1988,-7.1785,-7.1785,-7.1481,-7.1312,-7.1312,-7.1312,-7.1312,-7.1312,-7.0567,-7.0195,-7.0195,-6.9451,-6.8876,-6.8402,-6.7658,-6.7286,-6.7286,-6.6948,-6.7184,-6.7793,-6.7117,-6.6981,-6.7252,-6.6948,-6.7015,-6.7286,-6.7286,-6.776,-6.8436,-6.8436,-6.891,-6.9586,-6.9586,-6.9857,-7.0128,-6.9722,-6.9857,-7.0195,-7.0195,-7.0432,-7.077,-7.121,-7.1312,-7.1312,-7.1312,-7.1312,-7.1312,-7.1312,-7.1312,-7.1312,-7.1312,-7.1312,-7.1312,-7.1312,-7.1312,-7.1312,-7.1312,-7.1312,-7.1312,-7.1312,-7.1312,-7.1312,-7.1312,-7.1312,-7.1312,-7.1312,-7.1312,-7.1312,-7.1312,-7.1007,-7.0635,-7.0229,-6.918,-6.8368,-6.7929,-6.7184,-6.6812,-6.6812,-6.5053,-6.414,-6.4106,-6.2956,-6.2618,-6.3024,-6.3024,-6.3226,-6.0994,-6.0994,-6.1569,-6.5053,-6.5933,-6.6373,-6.7895,-6.8233,-6.8301,-6.847,-6.8673,-6.9147,-7.0229,-7.0161,-7.0094,-7.0669,-7.0297,-7.0094,-7.0669,-7.0737,-7.0838,-7.1007,-7.1041,-7.1109,-7.1312,-7.1312,-7.1312,-7.1312,-7.1142,-7.1109,-7.1312,-7.0939,-7.0838,-7.1007,-7.0094,-6.962,-6.962,-6.8876,-6.8199,-6.7624,-6.7083,-6.6812,-6.6812,-6.6812,-6.6812,-6.6812,-6.6812,-6.6812,-6.6812,-6.6812,-6.6812,-6.6812,-6.6812,-6.7151,-6.7624,-6.7624,-6.8132,-6.8808,-6.8808,-6.9147,-6.9519,-6.8977,-6.918,-6.9654,-6.9857,-7.0026,-7.0331,-7.1109,-7.1312,-7.1312,-7.1312,-7.1312,-7.1312,-7.1312,-7.1312,-7.1312,-7.1312,-7.1312,-7.1312,-7.1312,-7.1312,-7.1312,-7.1312,-7.1312,-7.1312,-7.1312,-7.1312,-7.1312,-7.1312,-7.1312,-7.1312,-7.1312,-7.1312,-7.1312,-7.1312,-7.1312,-7.1075,-7.05,-6.9789,-6.9113,-6.8504,-6.7793,-6.7286,-6.7083,-6.5831,-6.5087,-6.4884,-6.3599,-6.3226,-6.3802,-6.3802,-6.4072,-5.8287,-5.8626,-5.9336,-6.0283,-6.211,-6.4072,-6.5527,-6.5865,-6.6068,-6.6779,-6.7489,-6.7996,-6.8064,-6.8673,-6.918,-6.9214,-6.918,-6.918,-6.9214,-6.9214,-6.9485,-7.0161,-7.0263,-7.0534,-7.1244,-7.1312,-7.1312,-7.1312,-7.0635,-7.0567,-7.1278,-6.9992,-6.9519,-7.0229,-6.8808,-6.803,-6.803,-6.7286,-6.6914,-6.688,-6.6846,-6.6812,-6.6812,-6.6812,-6.6812,-6.6812,-6.6812,-6.6812,-6.6812,-6.6812,-6.6812,-6.6812,-6.6812,-6.6846,-6.688,-6.688,-6.7354,-6.7963,-6.7963,-6.7996,-6.7996,-6.7963,-6.7996,-6.8166,-6.8944,-6.9654,-7.0331,-7.1109,-7.1312,-7.1312,-7.1312,-7.1312,-7.1312,-7.1312,-7.1312,-7.1312,-7.1312,-7.1312,-7.1312,-7.1312,-7.1312,-7.1312,-7.1312,-7.1312,-7.1312,-7.1312,-7.1312,-7.1312,-7.1312,-7.1312,-7.1312,-7.1312,-7.1312,-7.1312,-7.1312,-7.1312,-7.1312,-7.1278,-7.0534,-7.0094,-7.006,-6.9383,-6.8605,-6.7861,-6.7083,-6.6339,-6.5628,-6.485,-6.4512,-6.4546,-6.4546,-6.4546,-5.9505,-5.8118,-5.7306,-5.8964,-6.0013,-6.1028,-6.2516,-6.3599,-6.4377,-6.4647,-6.529,-6.5797,-6.5797,-6.6812,-6.7793,-6.8267,-6.7523,-6.7252,-6.8199,-6.8335,-6.8605,-6.9383,-6.9485,-6.9586,-6.9857,-6.9891,-6.9891,-6.9891,-6.9654,-6.962,-6.9891,-6.9383,-6.9214,-6.9485,-6.847,-6.7658,-6.7218,-6.6948,-6.6812,-6.6812,-6.6812,-6.6812,-6.6812,-6.6812,-6.6812,-6.6812,-6.6812,-6.6812,-6.6812,-6.6812,-6.6812,-6.6812,-6.6812,-6.6812,-6.6812,-6.6812,-6.6981,-6.7184,-6.7184,-6.7489,-6.7827,-6.7354,-6.7523,-6.8064,-6.8876,-6.9282,-6.9755,-7.0973,-7.1312,-7.1312,-7.1312,-7.1312,-7.1312,-7.1312,-7.1312,-7.1312,-7.1312,-7.1312,-7.1312,-7.1312,-7.1312,-7.1312,-7.1312,-7.1312,-7.1312,-7.1312,-7.1312,-7.1312,-7.1312,-7.1312,-7.1312,-7.1312,-7.1312,-7.1312,-7.1312,-7.1312,-7.1312,-7.1312,-7.0601,-7.0195,-7.0195,-6.9485,-6.8707,-6.7929,-6.7658,-6.6914,-6.5696,-6.4952,-6.485,-6.529,-6.529,-6.5561,-6.0148,-5.7949,-5.6427,-5.7915,-5.7881,-5.8051,-6.008,-6.1095,-6.1839,-6.2618,-6.3362,-6.3937,-6.4208,-6.5053,-6.5933,-6.6677,-6.5967,-6.5662,-6.6643,-6.6779,-6.7083,-6.7861,-6.8199,-6.8436,-6.8673,-6.8944,-6.9113,-6.9113,-6.8842,-6.8808,-6.9079,-6.8605,-6.8335,-6.8335,-6.7827,-6.732,-6.6812,-6.6812,-6.6812,-6.6812,-6.6812,-6.6812,-6.6812,-6.6812,-6.6812,-6.6812,-6.6812,-6.6812,-6.6812,-6.6812,-6.6812,-6.6812,-6.6812,-6.6812,-6.6812,-6.6812,-6.6812,-6.6812,-6.6812,-6.7117,-6.7455,-6.6981,-6.7151,-6.7692,-6.847,-6.8876,-6.9316,-7.0297,-7.0939,-7.1244,-7.1007,-7.1109,-7.1312,-7.1312,-7.1312,-7.1312,-7.1312,-7.1312,-7.1312,-7.1312,-7.1312,-7.1312,-7.1312,-7.1312,-7.1312,-7.1312,-7.1312,-7.1312,-7.1312,-7.1312,-7.1312,-7.1312,-7.1312,-7.1312,-7.1312,-7.1312,-7.1312,-7.1312,-7.0838,-7.0567,-7.0567,-7.0094,-6.9485,-6.8673,-6.8673,-6.8064,-6.6846,-6.5831,-6.5595,-6.6068,-6.6068,-6.6339,0.0,0.0,0.0,-5.6799,-5.5716,-5.5378,-5.8287,-5.8389,-5.8524,-6.0757,-6.1839,-6.2584,-6.3294,-6.3463,-6.37,-6.4377,-6.4512,-6.4546,-6.4546,-6.458,-6.485,-6.5561,-6.6305,-6.7015,-6.7726,-6.8538,-6.9011,-6.9011,-6.8301,-6.8199,-6.8977,-6.7624,-6.6812,-6.6812,-6.6812,-6.6812,-6.6812,-6.6812,-6.6812,-6.6812,-6.6812,-6.6812,-6.6812,-6.6812,-6.6812,-6.6812,-6.6812,-6.6812,-6.6812,-6.6812,-6.6812,-6.6812,-6.6812,-6.6812,-6.6812,-6.6812,-6.6812,-6.6812,-6.6812,-6.6812,-6.6812,-6.6812,-6.6812,-6.6948,-6.7692,-6.847,-6.9113,-6.9113,-7.0195,-7.1142,-7.0398,-7.077,-7.1312,-7.1312,-7.1312,-7.1312,-7.1312,-7.1312,-7.1312,-7.1312,-7.1312,-7.1312,-7.1312,-7.1312,-7.1312,-7.1312,-7.1312,-7.1312,-7.1312,-7.1312,-7.1312,-7.1312,-7.1312,-7.1312,-7.1312,-7.1312,-7.1312,-7.1312,-7.1312,-7.1312,-7.1312,-7.1312,-7.0973,-7.0195,-7.0195,-6.9823,-6.9113,-6.759,-6.6846,-6.6846,-6.6812,-6.6812,-6.1975,0.0,0.0,0.0,0.0,0.0,-5.7103,-5.7645,-5.822,-5.9404,-6.0689,-6.1501,-6.1129,-6.1941,-6.2584,-6.2279,-6.2651,-6.3193,-6.3734,-6.3802,-6.4106,-6.4816,-6.5087,-6.529,-6.5493,-6.6203,-6.6643,-6.6643,-6.6948,-6.7218,-6.7421,-6.7049,-6.6812,-6.6812,-6.6812,-6.6812,-6.6812,-6.6812,-6.6812,-6.6812,-6.6812,-6.6812,-6.6812,-6.6812,-6.6812,-6.6812,-6.6812,-6.6812,-6.6812,-6.6812,-6.6812,-6.6812,-6.6812,-6.6812,-6.6812,-6.6812,-6.6812,-6.6812,-6.6812,-6.6812,-6.6812,-6.6812,-6.6812,-6.6948,-6.7692,-6.847,-6.9214,-6.9755,-7.0567,-7.1278,-7.1075,-7.1142,-7.1312,-7.1312,-7.1312,-7.1312,-7.1312,-7.1312,-7.1312,-7.1312,-7.1312,-7.1312,-7.1312,-7.1312,-7.1312,-7.1312,-7.1312,-7.1312,-7.1312,-7.1312,-7.1312,-7.1312,-7.1312,-7.1312,-7.1312,-7.1312,-7.1312,-7.1312,-7.1312,-7.1312,-7.1312,-7.1312,-7.0973,-7.0195,-7.0195,-6.9823,-6.9113,-6.8098,-6.759,-6.759,-6.7049,-6.6812,-6.2415,-6.0723,-5.9268,-5.8389,0.0,0.0,-5.7476,-5.7577,-5.7746,-5.8795,-5.9708,-6.0283,-6.0148,-6.0825,-6.14,-6.1332,-6.167,-6.2212,-6.2956,-6.3057,-6.3193,-6.3632,-6.3937,-6.414,-6.414,-6.4816,-6.5222,-6.5222,-6.5933,-6.6474,-6.6779,-6.6812,-6.6812,-6.6812,-6.6812,-6.6812,-6.6812,-6.6812,-6.6812,-6.6812,-6.6812,-6.6812,-6.6812,-6.6812,-6.6812,-6.6812,-6.6812,-6.6812,-6.6812,-6.6812,-6.6812,-6.6812,-6.6812,-6.6812,-6.6812,-6.6812,-6.6812,-6.6812,-6.6812,-6.6812,-6.6812,-6.6812,-6.6812,-6.688,-6.732,-6.7996,-6.8707,-6.9113,-7.0026,-7.0906,-7.1244,-7.1312,-7.1312,-7.1312,-7.1312,-7.1312,-7.1312,-7.1312,-7.1312,-7.1312,-7.1312,-7.1312,-7.1312,-7.1312,-7.1312,-7.1312,-7.1312,-7.1312,-7.1312,-7.1312,-7.1312,-7.1312,-7.1312,-7.1312,-7.1312,-7.1312,-7.1312,-7.1312,-7.1312,-7.1312,-7.1312,-7.1312,-7.1109,-7.0669,-7.0669,-7.0297,-6.9553,-6.8436,-6.7726,-6.7421,-6.7015,-6.6812,-6.2245,-6.1028,-6.0351,-6.025,-5.8626,0.0,-5.8727,-5.7915,-5.7306,-5.8626,-5.8896,-5.9066,-5.9641,-5.981,-6.0047,-6.0689,-6.1028,-6.1467,-6.2279,-6.2381,-6.2347,-6.2279,-6.2922,-6.3362,-6.326,-6.4005,-6.4478,-6.4478,-6.5222,-6.6,-6.6779,-6.6812,-6.6812,-6.6812,-6.6812,-6.6812,-6.6812,-6.6812,-6.6812,-6.6812,-6.6812,-6.6812,-6.6812,-6.6812,-6.6812,-6.6812,-6.6812,-6.6812,-6.6812,-6.6812,-6.6812,-6.6812,-6.6812,-6.6812,-6.6812,-6.6812,-6.6812,-6.6812,-6.6812,-6.6812,-6.6812,-6.6812,-6.6812,-6.6812,-6.6812,-6.7387,-6.8064,-6.8233,-6.9248,-7.0466,-7.1142,-7.1312,-7.1312,-7.1312,-7.1312,-7.1312,-7.1312,-7.1312,-7.1312,-7.1312,-7.1312,-7.1312,-7.1312,-7.1312,-7.1312,-7.1312,-7.1312,-7.1312,-7.1312,-7.1312,-7.1312,-7.1312,-7.1312,-7.1312,-7.1312,-7.1312,-7.1312,-7.1312,-7.1312,-7.1312,-7.1312,-7.1312,-7.1312,-7.1312,-7.1312,-7.0939,-7.0195,-6.8808,-6.7726,-6.6948,-6.6948,-6.688,-6.441,-6.2956,-6.1806,-6.1197,-5.981,0.0,-5.893,-5.8321,-5.7746,-5.8051,-5.8118,-5.7983,-5.7543,-5.7915,-5.8186,-5.7746,-5.9167,-6.0825,-6.2212,-6.2381,-6.2178,-6.1603,-6.2178,-6.2381,-6.1806,-6.2956,-6.3734,-6.3734,-6.4952,-6.6,-6.6779,-6.6812,-6.6812,-6.6812,-6.6812,-6.6812,-6.6812,-6.6812,-6.6812,-6.6812,-6.6812,-6.6812,-6.6812,-6.6812,-6.6812,-6.6812,-6.6812,-6.6812,-6.6812,-6.6812,-6.6812,-6.6812,-6.6812,-6.6812,-6.6812,-6.6812,-6.6812,-6.6812,-6.6812,-6.6812,-6.6812,-6.6812,-6.6812,-6.6812,-6.6812,-6.776,-6.9113,-7.0297,-7.0872,-7.1142,-7.1278,-7.1312,-7.1312,-7.1312,-7.1312,-7.1312,-7.1312,-7.1312,-7.1312,-7.1312,-7.1312,-7.1312,-7.1312,-7.1312,-7.1312,-7.1312,-7.1312,-7.1312,-7.1312,-7.1312,-7.1312,-7.1312,-7.1312,-7.1312,-7.1312,-7.1312,-7.1312,-7.1312,-7.1312,-7.1312,-7.1312,-7.1312,-7.1312,-7.1312,-7.1312,-7.0939,-7.0195,-6.9891,-6.9045,-6.7692,-6.7692,-6.7387,-6.4546,-6.3531,-6.2753,-6.2042,-6.0994,0.0,0.0,-5.9268,-5.8457,-5.8457,-5.7848,-5.7239,-5.6867,-5.6799,-5.6799,-5.6799,-5.8355,-5.9708,-6.008,-6.1129,-6.1569,-6.0791,-6.1366,-6.1704,-6.1332,-6.2313,-6.3125,-6.3497,-6.4546,-6.5459,-6.6203,-6.6609,-6.6812,-6.6812,-6.6812,-6.6812,-6.6812,-6.6812,-6.6812,-6.6812,-6.6812,-6.6812,-6.6812,-6.6812,-6.6812,-6.6812,-6.6812,-6.6812,-6.6812,-6.6812,-6.6812,-6.6812,-6.6812,-6.6812,-6.6812,-6.6812,-6.6812,-6.6812,-6.6812,-6.6812,-6.6812,-6.6812,-6.7049,-6.7354,-6.7354,-6.8436,-6.9789,-7.0534,-7.1041,-7.1312,-7.1312,-7.1312,-7.1312,-7.1312,-7.1312,-7.1312,-7.1312,-7.1312,-7.1312,-7.1312,-7.1312,-7.1312,-7.1312,-7.1312,-7.1312,-7.1312,-7.1312,-7.1312,-7.1312,-7.1312,-7.1312,-7.1312,-7.1312,-7.1312,-7.1312,-7.1312,-7.1312,-7.1312,-7.1312,-7.1312,-7.1312,-7.1312,-7.1312,-7.1312,-7.1312,-7.1142,-7.0737,-7.0737,-6.9755,-6.7895,-6.7895,-6.7489,-6.4106,-6.3396,-6.3193,-6.2719,-6.2042,-6.1501,0.0,0.0,0.0,-5.9066,-5.7949,-5.6968,-5.6833,-5.6089,-5.5649,-5.6089,-5.7408,-5.8084,-5.7171,-5.8896,-6.0047,-5.9539,-6.0419,-6.1028,-6.0892,-6.1501,-6.2381,-6.3429,-6.3802,-6.4478,-6.5628,-6.6271,-6.6677,-6.6812,-6.6812,-6.6812,-6.6812,-6.6812,-6.688,-6.7015,-6.688,-6.688,-6.7015,-6.688,-6.6812,-6.6812,-6.6812,-6.6812,-6.6812,-6.6812,-6.6812,-6.6812,-6.6812,-6.6812,-6.6812,-6.6812,-6.6812,-6.6812,-6.6812,-6.6812,-6.6812,-6.6812,-6.732,-6.7963,-6.8233,-6.9214,-7.0229,-7.0364,-7.0838,-7.1312,-7.1312,-7.1312,-7.1312,-7.1312,-7.1312,-7.1312,-7.1312,-7.1312,-7.1312,-7.1312,-7.1312,-7.1312,-7.1312,-7.1312,-7.1312,-7.1312,-7.1312,-7.1312,-7.1312,-7.1312,-7.1312,-7.1312,-7.1312,-7.1312,-7.1312,-7.1312,-7.1312,-7.1312,-7.1312,-7.1312,-7.1312,-7.1312,-7.1312,-7.1312,-7.1312,-7.1312,-7.1312,-7.1312,-7.0297,-6.8335,-6.8335,-6.7861,-6.4106,-6.3024,-6.2651,-6.3226,-6.2821,-6.2279,-6.2279,0.0,-6.0655,-5.9302,0.0,-5.7577,-5.6934,0.0,0.0,-5.3991,-5.5108,-5.5615,-5.4194,-5.5344,-5.6562,-5.7103,-5.8998,-5.9979,-5.9336,-5.9945,-6.1231,-6.3362,-6.2381,-6.2854,-6.5561,-6.5764,-6.6102,-6.6779,-6.6812,-6.6812,-6.6812,-6.6812,-6.7151,-6.776,-6.7117,-6.7151,-6.776,-6.7117,-6.6812,-6.6812,-6.6812,-6.6812,-6.6812,-6.6812,-6.6812,-6.6812,-6.6812,-6.6812,-6.6812,-6.6812,-6.6812,-6.6812,-6.6812,-6.6812,-6.6812,-6.6812,-6.732,-6.8166,-6.9519,-7.006,-7.0331,-7.1007,-7.1244,-7.1312,-7.1312,-7.1312,-7.1312,-7.1312,-7.1312,-7.1312,-7.1312,-7.1312,-7.1312,-7.1312,-7.1312,-7.1312,-7.1312,-7.1312,-7.1312,-7.1312,-7.1312,-7.1312,-7.1312,-7.1312,-7.1312,-7.1312,-7.1312,-7.1312,-7.1312,-7.1312,-7.1312,-7.1312,-7.1312,-7.1312,-7.1312,-7.1312,-7.1312,-7.1312,-7.1312,-7.1312,-7.1312,-7.1312,-7.0838,-6.9925,-6.9925,-6.9147,-6.4749,-6.4546,-6.4816,-6.4275,-6.4241,-6.4174,-6.3768,-6.3125,-6.2415,-6.1738,0.0,0.0,0.0,0.0,0.0,0.0,-5.5378,-5.5513,-5.3145,-5.4499,-5.5683,-5.5547,-5.6731,-5.8118,-5.9505,-5.9911,-6.0858,-6.2719,-6.1907,-6.2415,-6.4918,-6.5459,-6.6034,-6.6779,-6.6812,-6.6812,-6.6812,-6.6812,-6.7184,-6.7895,-6.759,-6.759,-6.7895,-6.759,-6.7218,-6.6812,-6.6812,-6.7049,-6.7421,-6.6981,-6.7049,-6.7387,-6.6981,-6.6812,-6.6812,-6.6812,-6.6812,-6.688,-6.7286,-6.7184,-6.6948,-6.7861,-6.8335,-6.8876,-7.0398,-7.0838,-7.0906,-7.121,-7.1312,-7.1312,-7.1312,-7.1312,-7.1312,-7.1312,-7.1312,-7.1312,-7.1312,-7.1312,-7.1312,-7.1312,-7.1312,-7.1312,-7.1312,-7.1312,-7.1312,-7.1312,-7.1312,-7.1312,-7.1312,-7.1312,-7.1312,-7.1312,-7.1312,-7.1312,-7.1312,-7.1312,-7.1312,-7.1312,-7.1312,-7.1312,-7.1312,-7.1312,-7.1312,-7.1312,-7.1312,-7.1312,-7.1312,-7.1312,-7.1142,-7.0804,-6.9958,-6.8741,-6.5493,-6.5696,-6.6237,-6.5155,-6.5155,-6.529,-6.4986,-6.4174,-6.3531,-6.3531,-6.1603,0.0,0.0,0.0,-5.6325,-5.5344,0.0,-5.5344,-5.2976,-5.3856,-5.4499,-5.3754,-5.4702,-5.6393,-5.8964,-5.8998,-5.9607,-6.1332,-6.0791,-6.1434,-6.3869,-6.4884,-6.573,-6.6474,-6.6711,-6.6812,-6.6812,-6.6812,-6.7184,-6.7895,-6.7692,-6.7692,-6.7895,-6.7692,-6.732,-6.6812,-6.6812,-6.7117,-6.7557,-6.7015,-6.7117,-6.7557,-6.7015,-6.6812,-6.6812,-6.6812,-6.6812,-6.688,-6.7421,-6.7252,-6.7117,-6.8842,-6.9248,-6.9383,-7.0872,-7.1312,-7.1312,-7.1312,-7.1312,-7.1312,-7.1312,-7.1312,-7.1312,-7.1312,-7.1312,-7.1312,-7.1312,-7.1312,-7.1312,-7.1312,-7.1312,-7.1312,-7.1312,-7.1312,-7.1312,-7.1312,-7.1312,-7.1312,-7.1312,-7.1312,-7.1312,-7.1312,-7.1312,-7.1312,-7.1312,-7.1312,-7.1312,-7.1312,-7.1312,-7.1312,-7.1312,-7.1312,-7.1312,-7.1312,-7.1312,-7.1312,-7.1312,-7.1312,-7.121,-7.0973,-7.0128,-6.9011,-6.6271,-6.5696,-6.5696,-6.5662,-6.5155,-6.4816,-6.5493,-6.4546,-6.3531,-6.3531,-6.2854,-6.2076,-6.1366,-5.9945,0.0,0.0,-5.5547,0.0,0.0,-5.2841,-5.2131,-5.142,-5.3281,-5.5209,-5.6765,-5.6258,-5.6765,-5.8964,-5.8423,-5.9302,-6.2313,-6.3835,-6.4952,-6.5696,-6.644,-6.6812,-6.6812,-6.6812,-6.7184,-6.7895,-6.7184,-6.7218,-6.7895,-6.7184,-6.6846,-6.6812,-6.6812,-6.6812,-6.6846,-6.6812,-6.6812,-6.6846,-6.6812,-6.6812,-6.6812,-6.6812,-6.6812,-6.6812,-6.6846,-6.6846,-6.7184,-6.9417,-6.9688,-6.9383,-7.0872,-7.1312,-7.1312,-7.1312,-7.1312,-7.1312,-7.1312,-7.1312,-7.1312,-7.1312,-7.1312,-7.1312,-7.1312,-7.1312,-7.1312,-7.1312,-7.1312,-7.1312,-7.1312,-7.1312,-7.1312,-7.1312,-7.1312,-7.1312,-7.1312,-7.1312,-7.1312,-7.1312,-7.1312,-7.1312,-7.1312,-7.1312,-7.1312,-7.1312,-7.1312,-7.1312,-7.1312,-7.1312,-7.1312,-7.1312,-7.1312,-7.1312,-7.1312,-7.1312,-7.0939,-7.0229,-7.0939,-7.0838,-6.7523,-6.7895,-6.8402,-6.7387,-6.7354,-6.7387,-6.6609,-6.5662,-6.5087,-6.5595,-6.4343,-6.3193,-6.3429,-6.1873,0.0,0.0,0.0,0.0,0.0,-5.3416,-5.2198,-5.1961,-5.3518,-5.4972,-5.5987,-5.6292,-5.7137,-5.8896,-5.8795,-5.9945,-6.299,-6.4072,-6.5155,-6.6406,-6.6677,-6.6812,-6.6812,-6.6812,-6.7184,-6.7895,-6.7658,-6.7658,-6.7895,-6.7658,-6.7252,-6.6812,-6.6812,-6.7083,-6.7489,-6.7015,-6.7117,-6.7489,-6.7015,-6.6812,-6.6812,-6.6812,-6.6812,-6.688,-6.7354,-6.7895,-6.8538,-6.9789,-6.9688,-6.9383,-7.0872,-7.1312,-7.1312,-7.1312,-7.1312,-7.1312,-7.1312,-7.1312,-7.1312,-7.1312,-7.1312,-7.1312,-7.1312,-7.1312,-7.1312,-7.1312,-7.1312,-7.1312,-7.1312,-7.1312,-7.1312,-7.1312,-7.1312,-7.1312,-7.1312,-7.1312,-7.1312,-7.1312,-7.1312,-7.1312,-7.1312,-7.1312,-7.1312,-7.1312,-7.1312,-7.1312,-7.1312,-7.1312,-7.1312,-7.1312,-7.1312,-7.1312,-7.1312,-7.1312,-7.1176,-7.0939,-7.121,-7.0635,-6.8944,-6.9417,-6.9891,-6.8639,-6.8707,-6.8707,-6.7151,-6.644,-6.6068,-6.6034,-6.5087,-6.4208,-6.3869,-6.2854,0.0,0.0,0.0,0.0,0.0,-5.504,-5.4093,-5.3585,-5.3923,-5.4499,-5.5243,-5.5513,-5.6122,-5.734,-5.7915,-5.9302,-6.1772,-6.3632,-6.5155,-6.6373,-6.6677,-6.6812,-6.6812,-6.7083,-6.7421,-6.7895,-6.8199,-6.8166,-6.7895,-6.7895,-6.7489,-6.6812,-6.6812,-6.7083,-6.7489,-6.7015,-6.7252,-6.7861,-6.7387,-6.7184,-6.7184,-6.6914,-6.6812,-6.6914,-6.7658,-6.8233,-6.8842,-6.9857,-6.9857,-6.9722,-7.0939,-7.1312,-7.1278,-7.0973,-7.1109,-7.1244,-7.0973,-7.1109,-7.1312,-7.1312,-7.1312,-7.1312,-7.1312,-7.1312,-7.1312,-7.1312,-7.1312,-7.1312,-7.1312,-7.1312,-7.1312,-7.1312,-7.1312,-7.1312,-7.1312,-7.1312,-7.1312,-7.1312,-7.1312,-7.1312,-7.1312,-7.1312,-7.1312,-7.1312,-7.1312,-7.1312,-7.1312,-7.1312,-7.1312,-7.1312,-7.1312,-7.1312,-7.1312,-7.1312,-7.1312,-7.1312,-7.1312,-7.0804]},{"header":{"parameterUnit":"m.s-1","parameterCategory":1,"la1":30.6,"la2":29.2853,"lo1":-89.7004,"lo2":-87.6739,"dy":0.0162,"dx":0.0183,"nx":112,"ny":82,"refTime":"2023-04-04T06:00:00:Z","depth":0,"parameterNumber":3,"parameterNumberName":"V-component_of_WINDS"},"data":[0.0,0.0,0.0,0.0,0.0,0.0,0.0,0.0,0.0,0.0,0.0,0.0,0.0,0.0,0.0,0.0,0.0,0.0,0.0,0.0,0.0,0.0,0.0,0.0,0.0,0.0,0.0,0.0,0.0,0.0,0.0,0.0,0.0,0.0,0.0,0.0,0.0,0.0,0.0,0.0,0.0,0.0,0.0,0.0,0.0,0.0,0.0,0.0,0.0,0.0,0.0,0.0,0.0,0.0,0.0,0.0,0.0,0.0,0.0,0.0,0.0,0.0,0.0,0.0,0.0,0.0,0.0,0.0,0.0,0.0,0.0,0.0,0.0,0.0,0.0,0.0,0.0,0.0,0.0,0.0,0.0,0.0,0.0,0.0,0.0,0.0,0.0,0.0,0.0,0.0,2.2049,2.5687,3.029,3.3145,3.3364,3.2402,3.0957,2.9043,0.0,0.0,0.0,0.0,0.0,0.0,0.0,0.0,0.0,0.0,0.0,0.0,0.0,0.0,0.0,0.0,0.0,0.0,0.0,0.0,0.0,0.0,0.0,0.0,0.0,0.0,0.0,0.0,0.0,0.0,0.0,0.0,0.0,0.0,0.0,0.0,0.0,0.0,0.0,0.0,0.0,0.0,0.0,0.0,0.0,0.0,0.0,0.0,0.0,0.0,0.0,0.0,0.0,0.0,0.0,0.0,0.0,0.0,0.0,0.0,0.0,0.0,0.0,0.0,0.0,0.0,0.0,0.0,0.0,0.0,0.0,0.0,0.0,0.0,0.0,0.0,0.0,0.0,0.0,0.0,0.0,0.0,0.0,0.0,0.0,0.0,0.0,0.0,0.0,0.0,0.0,0.0,0.0,0.0,0.0,0.0,0.0,0.0,0.0,0.0,0.0,0.0,0.0,0.0,2.4997,3.0213,3.1899,3.2832,3.3345,3.1289,2.9668,2.8965,0.0,0.0,0.0,0.0,0.0,0.0,0.0,0.0,0.0,0.0,0.0,0.0,0.0,0.0,0.0,0.0,0.0,0.0,0.0,0.0,0.0,0.0,0.0,0.0,0.0,0.0,0.0,0.0,0.0,0.0,0.0,0.0,0.0,0.0,0.0,0.0,0.0,0.0,0.0,0.0,0.0,0.0,0.0,0.0,0.0,0.0,0.0,0.0,0.0,0.0,0.0,0.0,0.0,0.0,0.0,0.0,0.0,0.0,0.0,0.0,0.0,0.0,0.0,0.0,0.0,0.0,0.0,0.0,0.0,0.0,0.0,0.0,0.0,0.0,0.0,0.0,0.0,0.0,0.0,0.0,0.0,0.0,0.0,0.0,0.0,0.0,0.0,0.0,0.0,0.0,0.0,0.0,0.0,0.0,0.0,0.0,0.0,0.0,0.0,0.0,0.0,0.0,0.0,2.5812,2.7986,3.1835,3.3985,3.4717,3.3862,3.1836,3.0332,2.9648,2.7949,0.0,0.0,0.0,0.0,0.0,0.0,0.0,0.0,0.0,0.0,0.0,0.0,0.0,0.0,0.0,0.0,0.0,0.0,0.0,0.0,0.0,0.0,0.0,0.0,0.0,0.0,0.0,0.0,0.0,0.0,0.0,0.0,0.0,0.0,0.0,0.0,0.0,0.0,0.0,0.0,0.0,0.0,0.0,0.0,0.0,0.0,0.0,0.0,0.0,0.0,0.0,0.0,0.0,0.0,0.0,0.0,0.0,0.0,0.0,0.0,0.0,0.0,0.0,0.0,0.0,0.0,0.0,0.0,0.0,0.0,0.0,0.0,0.0,0.0,0.0,0.0,0.0,0.0,0.0,0.0,0.0,0.0,0.0,0.0,0.0,0.0,0.0,0.0,0.0,0.0,0.0,0.0,0.0,0.0,0.0,0.0,0.0,0.0,0.0,0.0,0.0,0.0,2.8816,3.0747,3.3224,3.5704,3.6269,3.4101,3.2246,3.0879,3.0098,2.7656,0.0,0.0,0.0,0.0,0.0,0.0,0.0,0.0,0.0,0.0,0.0,0.0,0.0,0.0,0.0,0.0,0.0,0.0,0.0,0.0,0.0,0.0,0.0,0.0,0.0,0.0,0.0,0.0,0.0,0.0,0.0,0.0,0.0,0.0,0.0,0.0,0.0,0.0,0.0,0.0,0.0,0.0,0.0,0.0,0.0,0.0,0.0,0.0,0.0,0.0,0.0,0.0,0.0,0.0,0.0,0.0,0.0,0.0,0.0,0.0,0.0,0.0,0.0,0.0,0.0,0.0,0.0,0.0,0.0,0.0,0.0,0.0,0.0,0.0,0.0,0.0,0.0,0.0,0.0,0.0,0.0,0.0,0.0,0.0,0.0,0.0,0.0,0.0,0.0,0.0,0.0,0.0,0.0,0.0,0.0,0.0,0.0,0.0,0.0,0.0,0.0,0.0,3.0253,3.304,3.552,3.6337,3.584,3.3652,3.1523,3.0098,2.9648,2.7207,0.0,0.0,0.0,0.0,0.0,0.0,0.0,0.0,0.0,0.0,0.0,0.0,0.0,0.0,0.0,0.0,0.0,0.0,0.0,0.0,0.0,0.0,0.0,0.0,0.0,0.0,0.0,0.0,0.0,0.0,0.0,0.0,0.0,0.0,0.0,0.0,0.0,0.0,0.0,0.0,0.0,0.0,0.0,0.0,0.0,0.0,0.0,0.0,0.0,0.0,0.0,0.0,0.0,0.0,0.0,0.0,0.0,0.0,0.0,0.0,0.0,0.0,0.0,0.0,0.0,0.0,0.0,0.0,0.0,0.0,0.0,0.0,0.0,0.0,0.0,0.0,0.0,0.0,0.0,0.0,0.0,0.0,0.0,0.0,0.0,0.0,0.0,0.0,0.0,0.0,0.0,0.0,0.0,0.0,0.0,0.0,0.0,0.0,0.0,0.0,0.0,0.0,3.1322,3.2903,3.5695,3.6172,3.5703,3.4336,3.2246,3.0723,3.0,0.0,0.0,0.0,0.0,0.0,0.0,0.0,0.0,0.0,0.0,0.0,0.0,0.0,0.0,0.0,0.0,0.0,0.0,0.0,0.0,0.0,0.0,0.0,0.0,0.0,0.0,0.0,0.0,0.0,0.0,0.0,0.0,0.0,0.0,0.0,0.0,0.0,0.0,0.0,0.0,0.0,0.0,0.0,0.0,0.0,0.0,0.0,0.0,0.0,0.0,0.0,0.0,0.0,0.0,0.0,0.0,0.0,0.0,0.0,0.0,0.0,0.0,0.0,0.0,0.0,0.0,0.0,0.0,0.0,0.0,0.0,0.0,0.0,0.0,0.0,0.0,0.0,0.0,0.0,0.0,0.0,0.0,0.0,0.0,0.0,0.0,0.0,0.0,0.0,0.0,0.0,0.0,0.0,0.0,0.0,0.0,0.0,0.0,0.0,0.0,0.0,0.0,3.0759,3.1948,3.3237,3.5354,3.5859,3.5488,3.4199,3.2129,3.0644,3.0039,0.0,0.0,0.0,0.0,0.0,0.0,0.0,0.0,0.0,0.0,0.0,0.0,0.0,0.0,0.0,0.0,0.0,0.0,0.0,0.0,0.0,0.0,0.0,0.0,0.0,0.0,0.0,0.0,0.0,0.0,0.0,0.0,0.0,0.0,0.0,0.0,0.0,0.0,0.0,0.0,0.0,0.0,0.0,0.0,0.0,0.0,0.0,0.0,0.0,0.0,0.0,0.0,0.0,0.0,0.0,0.0,0.0,0.0,0.0,0.0,0.0,0.0,0.0,0.0,0.0,0.0,0.0,0.0,0.0,0.0,0.0,0.0,0.0,0.0,0.0,0.0,0.0,0.0,0.0,0.0,0.0,0.0,0.0,0.0,0.0,0.0,0.0,0.0,0.0,0.0,0.0,0.0,0.0,0.0,0.0,0.0,0.0,0.0,0.0,0.0,0.0,0.0,2.9125,3.2074,3.4219,3.4648,3.5469,3.5117,3.2988,3.082,2.9626,0.0,0.0,0.0,0.0,0.0,0.0,0.0,0.0,0.0,0.0,0.0,0.0,0.0,0.0,0.0,0.0,0.0,0.0,0.0,0.0,0.0,0.0,0.0,0.0,0.0,0.0,0.0,0.0,0.0,0.0,0.0,0.0,0.0,0.0,0.0,0.0,0.0,0.0,0.0,0.0,0.0,0.0,0.0,0.0,0.0,0.0,0.0,0.0,0.0,0.0,0.0,0.0,0.0,0.0,0.0,0.0,0.0,0.0,0.0,0.0,0.0,0.0,0.0,0.0,0.0,0.0,0.0,0.0,0.0,0.0,0.0,0.0,0.0,0.0,0.0,0.0,0.0,0.0,0.0,0.0,0.0,0.0,0.0,0.0,0.0,0.0,0.0,0.0,0.0,0.0,0.0,0.0,0.0,0.0,0.0,0.0,0.0,0.0,0.0,0.0,0.0,0.0,0.0,3.0617,3.1963,3.3242,3.4551,3.4394,3.3926,3.3301,3.0976,2.9626,2.9626,0.0,0.0,0.0,0.0,0.0,0.0,0.0,0.0,0.0,0.0,0.0,0.0,0.0,0.0,0.0,0.0,0.0,0.0,0.0,0.0,0.0,0.0,0.0,0.0,0.0,0.0,0.0,0.0,0.0,0.0,0.0,0.0,0.0,0.0,0.0,0.0,0.0,0.0,0.0,0.0,0.0,0.0,0.0,0.0,0.0,0.0,0.0,0.0,0.0,0.0,0.0,0.0,0.0,0.0,0.0,0.0,0.0,0.0,0.0,0.0,0.0,0.0,0.0,0.0,0.0,0.0,0.0,0.0,0.0,0.0,0.0,0.0,0.0,0.0,0.0,0.0,0.0,0.0,0.0,0.0,0.0,0.0,0.0,0.0,0.0,0.0,0.0,0.0,0.0,0.0,0.0,0.0,0.0,0.0,0.0,0.0,0.0,0.0,0.0,0.0,0.0,0.0,3.0801,3.1523,3.2363,3.3555,3.3379,3.3027,3.2695,3.0605,2.9238,2.9062,0.0,0.0,0.0,0.0,0.0,0.0,0.0,0.0,0.0,0.0,0.0,0.0,0.0,0.0,0.0,0.0,0.0,0.0,0.0,0.0,0.0,0.0,0.0,0.0,0.0,0.0,0.0,0.0,0.0,0.0,0.0,0.0,0.0,0.0,0.0,0.0,0.0,0.0,0.0,0.0,0.0,0.0,0.0,0.0,0.0,0.0,0.0,0.0,0.0,0.0,0.0,0.0,0.0,0.0,0.0,0.0,0.0,0.0,0.0,0.0,0.0,0.0,0.0,0.0,0.0,0.0,0.0,0.0,0.0,0.0,0.0,0.0,0.0,0.0,0.0,0.0,0.0,0.0,0.0,0.0,0.0,0.0,0.0,0.0,0.0,0.0,0.0,0.0,0.0,0.0,0.0,0.0,0.0,0.0,0.0,0.0,0.0,0.0,0.0,0.0,0.0,0.0,3.0137,3.0918,3.1601,3.2109,3.248,3.2363,3.1582,2.9922,2.875,2.832,0.0,0.0,0.0,0.0,0.0,0.0,0.0,0.0,0.0,0.0,0.0,0.0,0.0,0.0,0.0,0.0,0.0,0.0,0.0,0.0,0.0,0.0,0.0,0.0,0.0,0.0,0.0,0.0,0.0,0.0,0.0,0.0,0.0,0.0,0.0,0.0,0.0,0.0,0.0,0.0,0.0,0.0,0.0,0.0,0.0,0.0,0.0,0.0,0.0,0.0,0.0,0.0,0.0,0.0,0.0,0.0,0.0,0.0,0.0,0.0,2.456,2.4844,0.0,0.0,0.0,0.0,0.0,0.0,0.0,0.0,0.0,0.0,0.0,0.0,0.0,0.0,0.0,0.0,0.0,0.0,0.0,0.0,0.0,0.0,0.0,0.0,0.0,0.0,0.0,0.0,0.0,0.0,0.0,0.0,0.0,0.0,0.0,0.0,0.0,0.0,0.0,0.0,3.0586,3.0586,3.0918,3.2111,3.1934,3.1719,3.1543,2.9922,2.875,2.832,2.6777,0.0,0.0,0.0,0.0,0.0,0.0,0.0,0.0,0.0,0.0,0.0,0.0,0.0,0.0,0.0,0.0,0.0,0.0,0.0,0.0,0.0,0.0,0.0,0.0,0.0,0.0,0.0,0.0,0.0,0.0,0.0,0.0,0.0,0.0,0.0,0.0,0.0,0.0,0.0,0.0,0.0,0.0,0.0,0.0,0.0,0.0,0.0,0.0,0.0,0.0,0.0,0.0,0.0,0.0,0.0,0.0,0.0,0.0,0.0,2.7154,2.6599,0.0,0.0,0.0,0.0,0.0,0.0,0.0,0.0,0.0,0.0,0.0,0.0,0.0,0.0,0.0,0.0,0.0,0.0,0.0,0.0,0.0,0.0,0.0,0.0,0.0,0.0,0.0,0.0,0.0,0.0,0.0,0.0,0.0,0.0,0.0,0.0,0.0,0.0,0.0,0.0,3.041,3.0176,3.0332,3.1445,3.1348,3.1133,3.0898,2.9668,2.8555,2.7734,2.666,0.0,0.0,0.0,0.0,0.0,0.0,0.0,0.0,0.0,0.0,0.0,0.0,0.0,0.0,0.0,0.0,0.0,0.0,0.0,0.0,0.0,0.0,0.0,0.0,0.0,0.0,0.0,0.0,0.0,0.0,0.0,0.0,0.0,0.0,0.0,0.0,0.0,0.0,0.0,0.0,0.0,0.0,0.0,0.0,0.0,0.0,0.0,0.0,0.0,0.0,0.0,0.0,0.0,2.9592,2.9801,3.2222,2.8238,2.9085,3.3384,3.0766,2.9547,2.9344,2.9987,0.0,0.0,0.0,0.0,0.0,0.0,0.0,0.0,0.0,0.0,0.0,0.0,0.0,0.0,0.0,0.0,0.0,0.0,0.0,0.0,0.0,0.0,3.3164,3.4219,3.4531,3.3965,3.1719,0.0,0.0,0.0,0.0,0.0,0.0,0.0,0.0,0.0,0.0,0.0,3.0,2.9785,2.9883,3.0684,3.0762,3.0586,3.0137,2.9375,2.8379,2.709,2.6543,2.5742,0.0,0.0,0.0,0.0,0.0,0.0,0.0,0.0,0.0,0.0,0.0,0.0,0.0,0.0,0.0,0.0,0.0,0.0,0.0,0.0,0.0,0.0,0.0,0.0,0.0,0.0,0.0,0.0,0.0,0.0,0.0,0.0,2.2311,2.2352,0.0,0.0,0.0,0.0,0.0,0.0,0.0,0.0,0.0,0.0,0.0,0.0,0.0,2.8386,3.0852,3.2907,3.4618,3.5946,3.463,3.3852,3.3548,3.2533,3.3483,3.5973,3.6367,0.0,3.4729,3.1906,0.0,0.0,0.0,0.0,0.0,0.0,0.0,0.0,0.0,0.0,0.0,0.0,0.0,0.0,0.0,0.0,0.0,0.0,0.0,0.0,0.0,0.0,3.3379,3.3555,3.3887,3.3867,3.2773,3.2578,3.2305,3.1191,3.0644,3.0488,0.0,0.0,0.0,0.0,0.0,0.0,2.9629,2.9609,2.9746,3.0234,3.0293,3.0117,2.9687,2.9199,2.8379,2.709,2.622,2.5566,2.5,2.4316,0.0,0.0,0.0,0.0,0.0,0.0,0.0,0.0,0.0,0.0,0.0,0.0,0.0,0.0,0.0,0.0,0.0,0.0,0.0,0.0,0.0,0.0,0.0,0.0,0.0,0.0,0.0,0.0,0.0,2.318,2.3674,2.3006,2.4581,2.5227,0.0,0.0,0.0,0.0,0.0,0.0,0.0,0.0,0.0,2.4062,2.6661,2.9047,3.1036,3.3456,3.5977,3.8496,3.6997,3.7154,3.8515,3.4572,3.4664,3.7819,3.6997,3.6788,3.6868,3.5953,3.4902,3.3937,0.0,0.0,0.0,0.0,3.1897,3.2897,3.2332,3.1966,3.2136,3.3743,0.0,0.0,0.0,0.0,0.0,0.0,0.0,3.3144,3.2773,3.3769,3.4883,3.4883,3.5215,3.5234,3.4101,3.3476,3.2851,3.1816,3.1445,3.1289,3.125,3.0664,0.0,0.0,0.0,2.9375,2.9863,2.9492,2.9453,3.0137,2.998,2.957,2.8906,2.8672,2.8027,2.6738,2.6074,2.5382,2.4727,2.4824,2.4922,0.0,0.0,0.0,0.0,0.0,0.0,0.0,0.0,0.0,0.0,0.0,0.0,0.0,0.0,0.0,0.0,0.0,0.0,0.0,0.0,0.0,0.0,0.0,0.0,0.0,0.0,0.0,0.0,2.3781,2.4655,2.4011,2.6142,2.6925,0.0,0.0,0.0,0.0,0.0,0.0,2.3955,2.4543,2.493,2.5077,2.8271,3.057,3.1845,3.5085,3.8009,4.0547,3.9249,3.9669,4.1571,3.7227,3.6359,3.8447,3.7826,3.7754,3.8094,3.888,3.8027,3.6191,3.5957,3.5664,3.5335,3.4864,3.5646,3.6879,3.6193,3.5793,3.5653,3.6282,3.4861,3.3018,3.3347,0.0,0.0,0.0,0.0,3.4258,3.4375,3.5293,3.6191,3.6191,3.6523,3.6445,3.5,3.4121,3.3281,3.2207,3.1816,3.1601,3.1387,3.0625,0.0,2.9883,2.9414,2.9277,2.9805,2.9512,2.9453,2.998,2.9766,2.918,2.8223,2.8125,2.7578,2.6309,2.5801,2.5215,2.4453,2.4797,2.4875,2.459,0.0,0.0,0.0,0.0,0.0,0.0,0.0,0.0,0.0,0.0,0.0,0.0,0.0,0.0,0.0,0.0,0.0,0.0,0.0,0.0,0.0,0.0,0.0,0.0,0.0,0.0,0.0,0.0,0.0,2.5464,2.6344,0.0,0.0,0.0,0.0,2.4649,2.4796,2.4836,2.4609,2.5157,2.5718,2.6279,3.1167,3.4283,3.5427,3.9825,4.2067,4.2305,4.2164,4.1309,3.9793,4.1682,4.0529,3.7108,4.1008,4.1254,3.8951,3.9128,3.8887,3.834,3.7519,3.7187,3.7168,3.7156,3.7449,3.7754,3.6942,3.7105,3.7747,3.776,3.7449,3.6755,3.5644,3.5254,0.0,0.0,3.4336,3.4766,3.5215,3.5976,3.6641,3.6641,3.6953,3.6797,3.5078,3.4355,3.3535,3.1875,3.0879,3.043,3.0859,0.0,2.9453,2.9043,2.9297,2.9394,2.9023,2.9648,3.0,2.9704,2.9646,2.9117,2.7865,2.7748,2.7148,2.581,2.5352,2.4902,2.4434,2.3627,2.3828,2.5067,2.4648,0.0,0.0,0.0,0.0,0.0,0.0,0.0,0.0,0.0,0.0,0.0,0.0,0.0,0.0,0.0,0.0,0.0,0.0,0.0,0.0,0.0,0.0,0.0,0.0,0.0,0.0,0.0,0.0,2.8072,2.8641,0.0,2.9094,2.8267,2.7082,2.5604,2.5585,2.5838,2.6306,2.6881,2.7482,2.8083,2.986,3.2419,3.5708,3.7304,3.9559,4.2422,4.2422,4.2078,4.1385,4.0715,3.9622,3.832,3.9769,3.8986,3.6744,3.9647,4.0293,3.9375,3.875,3.8359,3.8184,3.8769,3.9062,3.9238,3.9473,3.959,3.9375,3.7969,3.7051,3.6348,3.5605,3.5391,3.5391,3.5332,3.543,3.5644,3.6094,3.6445,3.668,3.668,3.6562,3.6074,3.4609,3.375,3.291,3.1738,3.1269,3.1016,3.0918,3.0371,2.9922,2.9766,2.9394,2.9199,2.9316,2.9121,2.9023,2.9141,2.8906,2.834,2.7324,2.7246,2.6699,2.5391,2.5156,2.4746,2.4043,2.3984,2.4043,2.4238,2.4102,2.4277,0.0,0.0,0.0,0.0,0.0,0.0,0.0,0.0,0.0,0.0,0.0,0.0,0.0,0.0,0.0,0.0,0.0,0.0,0.0,0.0,0.0,0.0,0.0,0.0,0.0,2.505,2.6716,2.9461,2.9933,3.0195,3.05,2.9475,2.8221,2.6813,2.6787,2.7188,2.7976,2.8377,2.8818,2.9325,3.0101,3.2306,3.6003,3.6728,3.8919,4.2637,4.25,4.2422,4.2342,4.0833,3.974,3.9068,3.9693,3.8482,3.6491,4.008,4.1094,4.0293,4.0,3.9687,3.9531,4.0117,4.041,4.0625,4.1191,4.1016,4.0254,3.8691,3.7676,3.6992,3.6426,3.625,3.6309,3.6582,3.666,3.6738,3.7012,3.709,3.7031,3.6738,3.6445,3.5879,3.457,3.3613,3.2754,3.1894,3.1504,3.1211,3.0937,3.0508,3.0254,3.041,2.9805,2.9512,2.9961,2.9394,2.8984,2.9121,2.875,2.8105,2.7109,2.7148,2.6562,2.4941,2.5028,2.4734,2.3828,2.4062,2.4199,2.4219,2.4219,2.4492,2.5106,0.0,0.0,0.0,0.0,0.0,0.0,0.0,0.0,0.0,0.0,0.0,0.0,0.0,0.0,0.0,0.0,0.0,0.0,0.0,0.0,0.0,0.0,0.0,2.4507,2.5795,2.7522,2.9591,2.9901,2.9932,3.0188,2.9733,2.9163,2.8292,2.8484,2.8898,2.9499,2.9513,2.9633,2.9927,3.2086,3.4417,3.6728,3.8586,4.0657,4.3027,4.2617,4.2402,4.2383,4.2383,4.1138,3.9177,4.096,4.0451,3.8437,4.0349,4.1172,4.1094,4.1172,4.1172,4.1172,4.1172,4.1426,4.1777,4.1777,4.123,4.0469,4.0039,3.959,3.9062,3.8203,3.7949,3.7949,3.7949,3.793,3.793,3.7949,3.793,3.7695,3.6875,3.666,3.6269,3.4961,3.4004,3.3164,3.2324,3.1484,3.0898,3.0898,3.0508,3.0371,3.082,3.0488,0.0,3.082,3.0469,3.0019,2.9609,2.9199,2.8437,2.7168,2.7422,2.6758,2.459,2.4824,2.4715,2.3828,2.3769,2.416,2.5047,2.5106,2.5106,2.5106,0.0,0.0,0.0,0.0,0.0,0.0,0.0,0.0,0.0,0.0,0.0,0.0,0.0,0.0,0.0,0.0,0.0,0.0,0.0,0.0,0.0,2.8595,2.9431,2.9581,2.7822,2.8227,3.2889,3.0944,3.0042,3.1945,3.0354,2.9213,2.9379,2.9513,2.9806,3.0394,3.0234,3.0154,3.0234,3.0635,3.2661,3.6333,3.6912,3.8861,4.2148,4.2031,4.1816,4.1523,4.1523,4.119,4.06,4.1152,4.0113,3.8218,4.0313,4.0275,3.8961,4.0588,4.1172,4.1172,4.1172,4.125,4.1348,4.1348,4.1191,4.0879,4.0137,3.9805,3.9551,3.8652,3.8398,3.8398,3.8398,3.8164,3.7988,3.832,3.793,3.7402,3.7187,3.6426,3.5469,3.4453,3.3574,3.2812,3.2266,3.1719,3.125,3.0937,3.0781,3.0742,3.0879,3.0488,3.0234,3.0371,3.0019,2.9687,2.9646,2.9453,2.9004,2.8027,2.7773,2.7012,2.5421,2.4883,2.4355,2.3809,2.3496,2.3574,2.4141,2.4793,2.5106,0.0,0.0,0.0,0.0,0.0,0.0,0.0,0.0,0.0,0.0,0.0,0.0,0.0,0.0,0.0,0.0,0.0,0.0,0.0,0.0,0.0,0.0,3.2121,3.3866,3.5664,3.2452,3.0992,3.3897,3.2965,3.2077,3.2069,3.1285,3.0682,3.0325,3.0287,3.0488,3.0942,3.0702,3.0541,3.0541,3.1229,3.3013,3.6184,3.6963,3.8858,4.1797,4.1621,4.1406,4.1172,4.1172,4.1172,4.1172,4.1172,3.9943,3.8054,4.0275,3.9864,3.8134,0.0,0.0,0.0,0.0,4.1172,4.1172,4.1172,4.1172,4.1035,4.0176,3.9902,3.9726,3.8848,3.8574,3.8535,3.8359,3.8125,3.791,3.7812,3.7402,3.6992,3.6797,3.6191,3.541,3.4531,3.3809,3.3144,3.2539,3.1934,0.0,3.1191,3.0996,3.0957,3.1133,3.0781,3.0547,3.0723,3.0215,2.9766,2.9646,2.9394,2.8945,2.8105,2.7969,0.0,0.0,0.0,2.4961,2.4355,2.4082,0.0,0.0,0.0,2.5254,2.5106,2.5332,0.0,0.0,2.5,2.5,0.0,0.0,0.0,0.0,0.0,0.0,0.0,0.0,0.0,0.0,0.0,0.0,0.0,0.0,0.0,0.0,3.5815,3.7921,4.1598,3.8535,3.551,3.4278,3.5138,3.456,3.1473,3.2294,3.2491,3.098,3.0849,3.0969,3.1263,3.0969,0.0,0.0,0.0,3.4292,3.6184,3.7844,3.9719,4.1797,4.1426,4.1211,4.1172,4.123,4.1211,4.1172,4.1172,4.0099,3.839,4.0353,4.0021,3.8469,4.0431,4.1172,4.1172,4.1172,4.1172,4.1172,4.1172,0.0,0.0,4.0234,3.9941,3.9746,3.8906,3.8613,3.8496,3.8105,3.7988,3.7832,3.707,3.6816,3.6641,3.625,3.6055,3.5723,3.4883,3.4375,3.3828,3.3027,3.2207,3.166,3.166,3.123,3.1016,3.1387,3.1133,3.1035,3.1406,3.0762,3.0137,2.9766,2.9316,0.0,2.8002,2.8125,2.7598,2.5927,2.6113,2.5859,2.5086,2.5086,2.5254,2.5615,2.5654,2.5566,2.5262,2.5176,2.5176,2.5262,2.5527,2.5469,0.0,0.0,0.0,0.0,0.0,0.0,0.0,0.0,0.0,0.0,0.0,0.0,0.0,0.0,0.0,3.802,3.9605,4.1419,4.357,4.3125,4.1677,3.9225,3.4602,3.2011,3.3067,3.1839,3.1049,3.1102,3.1142,3.1276,3.157,3.1076,3.0795,3.0795,3.0714,3.2412,3.6184,3.6158,3.8035,4.1797,4.1719,0.0,4.1191,4.1523,4.1484,4.1172,4.1172,4.0919,4.0607,4.1016,4.0919,4.0588,4.1016,4.1172,4.1172,4.1172,4.1172,4.1172,4.1172,4.1172,4.1094,4.0566,4.0176,3.9785,3.9238,3.8848,0.0,3.8476,3.8457,3.8418,3.8242,3.7695,3.7148,3.707,3.6269,3.5371,3.4824,3.4375,3.3926,3.3398,3.2891,3.2539,3.2539,3.1621,3.0918,3.0996,3.0937,3.0918,3.0996,3.0859,3.0723,3.0644,3.0234,2.9746,2.9238,2.8633,2.7851,2.6836,2.5859,2.5078,2.457,2.4883,2.5165,2.5195,2.5547,2.5879,2.6133,2.5781,2.5781,2.6113,2.5488,2.5352,0.0,0.0,0.0,0.0,0.0,0.0,0.0,0.0,0.0,0.0,0.0,3.4863,3.5293,0.0,3.959,4.0644,4.2461,4.4043,4.4922,4.4319,4.272,3.9635,3.7287,3.5042,3.2959,3.2676,3.2237,3.1504,3.1316,3.1289,3.1436,3.1036,3.0728,3.0581,3.1437,3.3204,3.6184,3.7097,3.9076,4.2109,4.2109,4.2012,4.1816,4.2012,4.1894,4.1484,4.1484,4.08,3.9531,3.9531,4.0178,4.1172,4.1172,4.1172,4.1172,4.1172,4.1172,4.1172,4.1172,4.1172,4.1094,4.0664,4.0234,3.9805,3.9336,3.8906,3.8535,3.8301,3.8242,3.8203,3.7988,3.7461,3.6992,3.6992,3.6328,3.5586,3.5137,3.4687,3.4258,3.3828,3.3242,3.2734,3.2519,3.1777,3.1211,3.1211,3.1035,3.0898,3.0898,3.0898,3.0801,3.0566,3.0156,2.9707,2.9277,2.8476,2.7793,2.7363,2.6328,2.5625,2.541,2.541,2.541,2.541,2.584,2.6172,2.6387,2.6172,2.6172,2.6367,2.5703,2.541,0.0,0.0,0.0,0.0,0.0,0.0,0.0,3.2676,3.3496,3.4707,3.6074,3.7383,3.8496,4.0254,4.1816,4.2676,4.4414,4.5703,4.5781,4.4282,4.1955,3.8794,3.9392,3.8071,3.2821,3.3372,3.3343,3.1826,3.145,3.1316,3.1316,3.1036,3.0742,3.0448,3.2299,3.4253,3.63,3.8078,4.0171,4.2558,4.2558,4.25,4.2422,4.2519,4.2285,4.1797,4.1719,4.0502,3.8548,3.8548,3.961,4.1172,4.1172,4.1172,4.1172,4.1172,4.0919,4.0588,4.0588,4.0588,4.053,4.0105,4.0027,3.9941,3.9473,3.9043,3.8613,3.8164,3.8047,3.7969,3.7637,3.7226,3.6894,3.6816,3.6465,3.6016,3.5508,3.5098,3.4687,3.418,3.3516,3.291,3.248,3.2051,3.168,3.1426,3.1113,3.0898,3.0898,3.0898,3.0742,3.0371,2.9863,2.9355,2.8848,2.8184,2.7806,2.7728,2.6934,2.6504,2.6504,2.6172,2.5927,2.5927,2.6328,2.6543,2.6641,2.6543,2.6562,2.6621,2.6094,2.5625,3.4297,3.332,3.2578,3.3086,3.2715,3.2617,0.0,3.4414,3.4746,3.5684,3.7207,3.8516,3.9043,4.1172,4.3144,4.4043,4.5019,4.5801,4.6172,4.4188,4.1743,3.92,3.698,3.5273,3.4445,3.2701,3.1625,3.165,3.1637,3.1623,3.1623,3.1343,3.1049,3.0755,3.1018,3.293,3.6695,3.685,3.8979,4.3008,4.3008,4.2793,4.2441,4.2832,4.2558,4.1777,4.1406,4.1133,4.0841,4.0841,4.1016,4.1172,4.1172,4.1172,4.1172,4.1172,3.9943,3.831,3.831,3.831,3.8292,3.8177,3.9193,4.0371,3.9941,3.9492,3.9043,3.8613,3.8496,3.8496,3.8457,3.8105,3.7695,3.7324,3.6894,3.6387,3.5566,3.5351,3.5078,3.4238,3.4004,3.3789,3.3359,3.293,3.2266,3.1133,3.0918,3.0898,3.0898,3.0898,3.0879,3.082,3.0078,2.9238,2.8437,2.8281,2.8066,2.7748,2.7207,2.6953,2.6953,2.6894,2.6875,2.6875,2.6914,2.7129,2.7571,2.7129,2.7148,2.7552,2.6699,2.6074,3.4394,3.3867,3.3613,3.3457,3.3926,3.4668,3.5625,3.623,3.6894,3.8047,3.9434,4.0742,4.166,4.3125,4.4492,4.5371,4.623,4.6758,4.668,4.5948,4.3809,3.9004,3.7605,3.5913,3.3205,3.2028,3.153,3.1664,3.1517,3.141,3.141,3.265,3.3257,3.2942,3.4186,3.6441,3.9565,3.9026,4.0482,4.3848,4.3574,4.334,4.3183,4.3359,4.2969,4.2148,4.1719,4.1406,4.1172,4.1172,4.1172,4.1172,4.1172,4.1172,4.1172,4.1172,4.0607,3.9786,3.9786,3.9786,3.9786,3.9786,4.0143,4.0488,4.0312,3.9766,3.916,3.8984,3.8769,3.8574,3.8574,3.8242,3.7871,3.7695,3.7148,3.6582,3.6211,3.5742,3.5195,3.457,3.4238,3.3867,3.3164,3.291,3.2441,3.1406,3.125,3.1172,3.0918,3.0898,3.0781,3.0508,3.0156,2.959,2.873,2.8652,2.8476,2.8066,2.7637,2.7402,2.7402,2.7148,2.7012,2.7012,2.7266,2.748,2.7728,2.748,2.748,2.7689,2.6797,2.6289,3.4375,3.4375,3.4668,3.4531,3.5527,3.6777,3.7695,3.8379,3.9219,4.0644,4.1582,4.2519,4.3691,4.4512,4.5312,4.6172,4.6914,4.7285,4.6973,4.6439,4.4056,3.8746,3.742,3.5544,3.1731,3.145,3.1543,3.1543,3.1423,3.1343,3.1343,3.3715,3.483,3.4592,3.6897,3.9222,4.1391,4.0836,4.1843,4.4199,4.3867,4.3419,4.285,4.2716,4.222,4.148,4.1734,4.1562,4.1172,4.1172,4.1172,4.1172,4.1172,4.1172,4.1172,4.1172,4.0841,4.0275,4.0275,4.0275,4.0275,4.0275,4.0472,4.0664,4.043,3.9902,3.9336,3.9101,3.8809,3.8574,3.8574,3.834,3.8066,3.7949,3.7363,3.6816,3.6699,3.6094,3.5391,3.4805,3.4453,3.3965,3.3125,3.2969,3.2676,3.1836,3.1699,3.1504,3.0957,3.0898,3.0703,3.0254,3.0312,2.998,2.9004,2.9023,2.8867,2.832,2.8008,2.7885,2.7885,2.7539,2.7363,2.7363,2.7676,2.7885,2.7885,2.7885,2.7885,2.7865,2.709,2.6738,3.3965,3.4375,3.5098,3.6758,3.7519,3.8418,4.0547,4.1055,4.1543,4.3242,4.3301,4.332,4.4219,4.4726,4.5312,4.6172,4.666,4.6953,4.6933,4.4132,4.1143,3.8396,3.529,3.2614,3.064,3.0902,3.1236,3.1236,3.1503,3.165,3.165,3.3938,3.5159,3.4937,3.7504,3.9614,4.0908,4.1251,4.2185,4.373,4.3711,4.2721,4.075,4.0354,3.9826,3.9214,4.0979,4.1562,4.1172,4.1172,4.1172,4.1172,4.1172,4.1172,4.1172,4.1172,3.9864,3.7975,3.7975,3.7975,3.7975,3.7975,3.9434,4.0996,4.0176,3.9902,3.9687,3.8828,3.8594,3.8574,3.8574,3.8555,3.8457,3.8027,3.7598,3.7168,3.6758,3.6309,3.5742,3.4863,3.4687,3.4414,3.3555,3.3398,3.3125,3.2285,3.2148,3.1836,3.0996,3.0898,3.0703,3.0254,3.0605,3.0332,2.9023,2.9316,2.9199,2.834,2.8281,2.8281,2.8281,2.8262,2.8262,2.8262,2.8262,2.8281,2.8281,2.8281,2.8281,2.8262,2.7832,2.7669,3.4453,3.6055,3.7969,3.9141,4.0176,4.125,4.2558,4.2851,4.293,4.3223,4.2266,4.1562,4.2148,4.2129,4.2598,4.4297,4.5664,4.6621,4.6894,4.6434,4.4539,4.0221,3.7845,3.5206,3.1628,3.0767,3.0595,3.1183,3.1142,3.2066,3.4428,3.6545,3.8585,4.0436,4.237,4.3809,4.4481,4.3995,4.4213,4.5,4.3121,4.1849,4.1078,3.9098,3.8595,3.9264,3.9722,4.0409,4.1172,4.1172,4.1172,4.1172,4.1172,4.1172,4.1172,4.1172,4.0763,4.0099,4.0099,4.0099,4.0099,4.0099,4.0607,4.1113,4.084,4.0351,3.9824,3.9531,3.9238,3.8926,3.8652,3.8789,3.8887,3.8457,3.7812,3.7266,3.7109,3.6523,3.584,3.5273,3.4902,3.4512,3.3945,3.3613,3.3144,3.2285,3.168,3.1211,3.0918,3.0898,3.084,3.0684,3.0801,3.0586,2.9824,2.9648,2.9316,2.875,2.8437,2.8301,2.8301,2.8301,2.8301,2.8301,2.8301,2.8301,2.8301,2.8301,2.8301,2.8281,2.7904,2.7728,3.6016,3.8066,4.0195,4.1367,4.1721,4.2195,4.3837,4.3241,4.2506,4.2787,4.1348,4.0098,4.0215,3.9512,3.9668,4.1973,4.3144,4.4355,4.6016,4.6191,4.4904,4.1568,3.9929,3.7718,3.429,3.2193,3.1035,3.0941,3.1036,3.2589,3.5787,3.8127,4.0617,4.3217,4.5116,4.6113,4.6074,4.5527,4.5312,4.543,4.2654,4.1308,4.1164,3.854,3.8032,3.9264,3.9094,3.9882,4.1172,4.1172,4.1172,4.1172,4.1172,4.1172,4.1172,4.1172,4.1172,4.1172,4.1172,4.1172,4.1172,4.1172,4.1172,4.1113,4.0801,4.043,4.0059,3.9746,3.9551,3.9394,3.9121,3.9121,3.9141,3.8867,3.8027,3.7305,3.7305,3.6621,3.5898,3.5469,3.5019,3.457,3.4141,3.3594,3.3008,3.248,3.166,3.1055,3.0918,3.0898,3.0898,3.0898,3.0898,3.0703,3.0234,2.9805,2.9394,2.8945,2.8516,2.8301,2.8301,2.8301,2.8359,2.8516,2.8359,2.8359,2.8516,2.8359,2.8301,2.8281,2.8008,2.7891,3.8496,4.0256,4.1619,4.3234,4.2153,4.1346,4.4051,4.2217,4.0323,4.1779,4.0335,3.8716,3.8359,3.6992,3.6777,3.9414,3.9629,4.0801,4.459,4.375,4.2716,4.2582,4.1469,3.9951,3.8073,3.5328,3.2822,3.1004,3.1342,3.2963,3.5847,3.8574,4.1127,4.3307,4.5668,4.6562,4.5742,4.5723,4.5508,4.5012,4.2512,4.115,4.084,3.8298,3.7844,3.9022,3.9004,3.9882,4.1172,4.1172,4.1172,4.1172,4.1172,4.1172,4.1172,4.1172,4.1172,4.1172,4.1172,4.1172,4.1172,4.1172,4.1172,4.1016,4.0215,4.0215,4.0351,3.9512,3.959,3.9922,3.9902,3.957,3.9238,3.9199,3.8223,3.7305,3.7305,3.6621,3.5898,3.5508,3.5039,3.457,3.4141,3.3379,3.2812,3.2793,3.209,3.1406,3.0976,3.0898,3.0898,3.0898,3.0898,3.0703,3.0273,2.9844,2.9434,2.9004,2.8594,2.8359,2.8359,2.8359,2.8555,2.8945,2.8555,2.8535,2.8926,2.8516,2.832,2.8301,2.8301,2.8301,4.0195,4.1128,4.1794,4.2284,4.1107,3.9773,3.9858,3.8615,3.7511,3.7613,3.5264,3.3427,3.4134,3.4434,3.5527,3.8437,4.125,4.3867,4.6133,4.6894,4.6756,4.5491,4.3844,4.2347,4.0856,3.8825,3.746,3.7099,3.3177,3.2478,3.6474,3.8845,4.1366,4.4008,4.6257,4.7168,4.6621,4.6289,4.6094,4.589,4.1622,4.0324,4.1563,3.7088,3.6551,3.9317,3.9112,3.9882,4.1172,4.1172,4.1172,4.1172,4.1172,4.1172,4.1172,4.1172,4.1172,4.1172,4.1172,4.1172,4.1172,4.1172,4.1172,4.1133,4.0918,4.0703,4.0469,4.0254,4.0273,4.0293,3.998,3.9805,3.9629,3.9277,3.8223,3.7305,3.7305,3.6621,3.5996,3.5879,3.5234,3.457,3.4141,3.3613,3.3164,3.2851,3.2344,3.1836,3.1406,3.1094,3.0898,3.0898,3.0898,3.084,3.0723,3.0293,3.0,2.9883,2.9473,2.9238,2.9238,2.9238,2.9297,2.9394,2.9297,2.9141,2.8926,2.8809,2.8594,2.8301,2.8301,2.8301,4.2667,4.2045,4.0971,4.2407,4.0139,3.7643,3.7977,3.6392,3.4945,3.4865,3.285,3.1133,3.1364,3.1777,3.3086,3.6113,3.9238,4.2344,4.5391,4.6445,4.6953,4.7109,4.6146,4.5163,4.4379,4.2353,4.0691,3.9931,3.5602,3.5114,4.0054,4.0466,4.2261,4.5926,4.7223,4.7558,4.6933,4.6504,4.6308,4.6289,4.3383,4.2435,4.3205,3.9072,3.846,4.0644,3.9504,3.9882,4.1172,4.1172,4.1172,4.1172,4.1172,4.1172,4.1172,4.1172,4.1172,4.1172,4.1172,4.1172,4.1172,4.1172,4.1172,4.1133,4.0957,4.084,4.0762,4.0586,4.0664,4.0762,4.0508,4.0176,3.9824,3.957,3.8516,3.7519,3.7344,3.6777,3.6191,3.582,3.5351,3.4805,3.418,3.3867,3.3555,3.3125,3.2559,3.207,3.1836,3.1269,3.0898,3.0898,3.0898,3.0898,3.0898,3.0469,3.0195,3.0195,2.9805,2.9626,2.9626,2.9626,2.9648,2.9844,2.9668,2.9551,2.9473,2.9297,2.9082,2.8848,2.8652,2.8574,4.4208,4.2205,3.944,4.2047,3.878,3.5167,3.6624,3.4462,3.2264,3.2646,3.1436,3.0064,2.9473,2.9509,3.0605,3.3809,3.6191,3.9223,4.3626,4.4257,4.5145,4.7534,4.7495,4.7373,4.7754,4.5725,4.3648,4.1764,3.9053,3.929,4.3416,4.2121,4.339,4.8118,4.8183,4.7773,4.7031,4.6543,4.6308,4.6289,4.557,4.523,4.4915,4.2173,4.1509,4.2339,4.0421,4.0197,4.125,4.125,4.123,4.1172,4.1172,4.1172,4.1172,4.1172,4.1172,4.1172,4.1172,4.1172,4.1172,4.1172,4.1172,4.1094,4.0723,4.0879,4.1094,4.0723,4.0879,4.1172,4.1172,4.0547,3.9902,3.9902,3.8848,3.7734,3.7383,3.6914,3.6367,3.5625,3.543,3.5156,3.4375,3.416,3.3945,3.3555,3.2793,3.2226,3.2229,3.1426,3.0898,3.0898,3.0898,3.0898,3.0898,3.0527,3.0293,3.0293,2.9941,2.9746,2.9746,2.9746,2.9922,3.0293,2.9922,2.9902,3.0195,2.9824,2.9629,2.9607,2.918,2.8965,4.0544,3.8778,3.7141,3.739,3.4886,3.2228,3.1826,3.0316,2.9026,2.9189,2.7989,2.716,2.7878,2.8922,3.0918,3.5019,3.7793,4.0374,4.2931,4.365,4.4252,4.5423,4.5496,4.6318,4.8449,4.8279,4.7819,4.7471,4.501,4.2025,3.8738,4.0239,4.3512,4.8658,4.8066,4.7617,4.7461,4.6699,4.6308,4.6308,4.4114,4.379,4.4934,4.2469,4.1936,4.2969,4.2543,4.214,4.1699,4.1699,4.1484,4.1172,4.1172,4.1172,4.1172,4.1172,4.1172,4.1172,4.1172,4.1172,4.1172,4.1172,4.1172,4.1152,4.1074,4.1113,4.1152,4.1074,4.1113,4.1172,4.1172,4.0547,3.9902,3.9902,3.8613,3.7383,3.7324,3.668,3.6094,3.5937,3.5625,3.5351,3.5195,3.4551,3.4043,3.3965,3.3223,3.2559,3.2207,3.1426,3.0898,3.0898,3.0898,3.0898,3.0898,3.082,3.0762,3.0762,3.0703,3.0664,3.0664,3.0664,3.0703,3.0762,3.0703,3.0508,3.0195,3.0117,2.9922,2.9626,2.9492,2.9258,3.9977,3.7658,3.5181,3.6474,3.458,3.2171,3.0951,3.0046,2.9152,2.8169,2.6682,2.5594,2.5867,2.7166,2.9068,3.1834,3.5384,3.8517,4.0493,4.1511,4.2766,4.4768,4.5183,4.6295,4.8682,4.9062,4.8524,4.7027,4.5755,4.4494,4.3452,4.4512,4.6243,4.8424,4.791,4.748,4.7246,4.6621,4.6308,4.6308,4.5109,4.4671,4.4934,4.3785,4.3166,4.3086,4.3086,4.2715,4.2129,4.2129,4.1875,4.1504,4.1504,4.1367,4.1172,4.1172,4.1172,4.1172,4.1172,4.1172,4.1172,4.1172,4.1172,4.1172,4.1172,4.1172,4.1172,4.1172,4.1172,4.1172,4.1172,4.0547,3.9902,3.9902,3.8574,3.7305,3.7305,3.6621,3.6016,3.6016,3.5859,3.5644,3.543,3.4844,3.4316,3.4101,3.334,3.2715,3.2519,3.1953,3.1387,3.0937,3.0898,3.0898,3.0898,3.0898,3.0898,3.0898,3.0898,3.0898,3.0898,3.0898,3.0898,3.0898,3.0898,3.0781,3.0547,3.0547,3.0449,3.0254,3.0019,2.9785,3.8985,3.6509,3.39,3.5932,3.4501,3.2237,3.1119,3.0387,2.9524,2.8125,2.6565,2.5301,2.4937,2.5908,2.7345,2.8957,3.2568,3.5978,3.8168,3.8975,4.0808,4.453,4.4869,4.5984,4.8745,4.9316,4.8456,4.5979,4.5849,4.6523,4.7976,4.857,4.8691,4.8359,4.7851,4.7422,4.707,4.6562,4.6308,4.6308,4.6308,4.5859,4.5019,4.5019,4.4355,4.3223,4.3223,4.2969,4.2558,4.2558,4.2266,4.1797,4.1797,4.1543,4.1172,4.1172,4.1172,4.1172,4.1172,4.1172,4.1172,4.1172,4.1172,4.1172,4.1172,4.1172,4.1172,4.1172,4.1172,4.1172,4.1172,4.0547,3.9824,3.9551,3.8359,3.7266,3.7187,3.6562,3.6016,3.6016,3.6016,3.5918,3.5586,3.5078,3.459,3.4258,3.3476,3.2891,3.2812,3.25,3.2012,3.125,3.1074,3.1035,3.1035,3.0937,3.0898,3.0898,3.0898,3.0898,3.0898,3.0898,3.0898,3.0898,3.0898,3.0898,3.0898,3.0898,3.0898,3.0879,3.0508,3.0293,3.4928,3.38,3.3514,3.37,3.1948,3.035,3.0821,2.921,2.7755,2.8157,2.7474,2.6788,2.6749,2.6555,2.7402,3.0238,3.1737,3.3813,3.7478,3.6744,3.8171,4.4271,4.3321,4.4027,4.8985,4.9512,4.9243,4.859,4.857,4.7605,4.5455,4.7605,4.8848,4.8808,4.8008,4.7558,4.7519,4.6699,4.6308,4.6308,4.6308,4.5859,4.5019,4.5019,4.4512,4.3652,4.3652,4.3398,4.3027,4.3027,4.2539,4.1797,4.1797,4.1543,4.1172,4.1172,4.1172,4.1172,4.1172,4.1172,4.1172,4.1172,4.1172,4.1172,4.1172,4.1172,4.1172,4.1172,4.1172,4.1172,4.1172,4.0547,3.959,3.8379,3.7695,3.7187,3.6816,3.6348,3.6016,3.6016,3.6016,3.6016,3.5976,3.5254,3.4687,3.4648,3.3906,3.3223,3.2851,3.2754,3.2559,3.215,3.1699,3.1465,3.1465,3.1113,3.0898,3.0898,3.0898,3.0898,3.0898,3.0898,3.0898,3.0898,3.0898,3.0898,3.0898,3.0898,3.0898,3.0898,3.084,3.0605,3.3447,3.328,3.3374,3.32,3.2605,3.1873,3.1168,3.0188,2.9305,2.8771,2.7313,2.6128,2.6128,2.5811,2.605,2.7489,2.9124,3.1047,3.334,3.3782,3.6086,4.2371,4.2746,4.4548,4.9408,5.0156,5.0,4.9316,4.9258,4.8656,4.7419,4.8366,4.873,4.8476,4.7891,4.7578,4.7578,4.6738,4.6426,4.668,4.6426,4.5859,4.5019,4.5019,4.4551,4.3711,4.3711,4.3613,4.3437,4.3183,4.2715,4.2148,4.1894,4.1543,4.1172,4.1172,4.1172,4.1172,4.1172,4.1172,4.1172,4.1172,4.1172,4.1172,4.1172,4.1172,4.1172,4.1172,4.1172,4.1172,4.1172,4.0547,3.9629,3.8574,3.7793,3.7246,3.709,3.6504,3.6016,3.6016,3.6016,3.6016,3.6016,3.5508,3.5019,3.4746,3.4199,3.3652,3.3223,3.3164,3.3105,3.2949,3.207,3.1523,3.1523,3.1133,3.0898,3.0898,3.0898,3.0898,3.0898,3.0898,3.0898,3.0898,3.0898,3.0898,3.0898,3.0898,3.0898,3.0898,3.0898,3.0801,3.2463,3.2866,3.3347,3.3053,3.2761,3.2352,3.1353,3.0561,2.9852,2.9069,2.7454,2.6212,2.6212,2.5512,2.5209,0.0,0.0,2.9105,3.1509,3.2434,3.5028,4.1115,4.1985,4.4046,4.8726,4.9961,5.0176,4.957,4.9414,4.9199,4.8867,4.8867,4.8652,4.8223,4.7793,4.7519,4.7383,4.666,4.6445,4.6738,4.6445,4.5859,4.5019,4.5019,4.4551,4.3711,4.3711,4.3633,4.3496,4.3203,4.2754,4.2207,4.1914,4.1543,4.1172,4.1172,4.1172,4.1172,4.1172,4.1172,4.1172,4.1172,4.1172,4.1172,4.1172,4.1172,4.1172,4.1172,4.1172,4.1074,4.0684,4.0254,3.9668,3.8789,3.791,3.7324,3.7461,3.6816,3.625,3.6367,3.6387,3.6367,3.623,3.5859,3.543,3.4961,3.4531,3.4101,3.3672,3.3613,3.3555,3.3437,3.25,3.1894,3.1894,3.1504,3.1211,3.1094,3.1074,3.1016,3.0898,3.0898,3.0898,3.0898,3.0898,3.0898,3.0898,3.0898,3.0898,3.0898,3.0898,3.0898,3.138,3.2091,3.3347,3.3053,3.1777,3.0736,3.1043,2.9529,2.8201,2.8793,2.8242,2.7656,2.7656,2.6106,2.5436,2.7369,2.7154,0.0,3.3384,3.3321,3.5029,4.1093,4.0684,4.1776,4.6473,4.8535,4.9531,4.9531,4.9121,4.8867,4.8867,4.8867,4.8652,4.8223,4.7793,4.7383,4.6933,4.6504,4.6308,4.6308,4.6308,4.5859,4.5019,4.5019,4.4551,4.3711,4.3711,4.3476,4.3086,4.3086,4.2578,4.1816,4.1797,4.1543,4.1172,4.1172,4.1172,4.1172,4.1172,4.1172,4.1172,4.1172,4.1172,4.1172,4.1172,4.1172,4.1172,4.1172,4.1172,4.0879,3.957,3.9551,3.9668,3.8789,3.791,3.7402,3.7832,3.7266,3.6777,3.7207,3.7285,3.7148,3.6738,3.6309,3.5879,3.5449,3.498,3.4531,3.4121,3.4062,3.3906,3.3476,3.3047,3.2793,3.2793,3.2402,3.1973,3.1543,3.1504,3.1328,3.0918,3.0898,3.0898,3.0898,3.0898,3.0898,3.0898,3.0898,3.0898,3.0898,3.0898,3.0898,3.0016,3.0453,3.106,3.0922,3.1029,3.1291,3.1473,3.0452,2.9565,2.975,2.9355,2.8867,2.8574,2.8022,2.7994,2.9222,2.9487,3.041,3.2867,3.4988,3.7773,4.1776,4.5491,4.8379,4.9847,5.0254,5.0273,5.0,4.957,4.918,4.8867,4.8867,4.8652,4.8223,4.7793,4.7519,4.7383,4.666,4.6308,4.6308,4.6308,4.5703,4.4609,4.4902,4.4551,4.3691,4.3398,4.3203,4.3027,4.2441,4.2051,4.1777,4.1484,4.1289,4.1172,4.1172,4.1172,4.1172,4.1172,4.1172,4.1172,4.1172,4.1172,4.1172,4.1172,4.1172,4.1172,4.1172,4.1172,4.0937,3.9941,3.9785,3.9668,3.8789,3.8144,3.7754,3.7891,3.748,3.7148,3.7266,3.7305,3.7266,3.7129,3.6738,3.6328,3.5879,3.5449,3.5019,3.4551,3.4492,3.4336,3.3906,3.375,3.3437,3.2851,3.2402,3.2109,3.1973,3.168,3.1465,3.1328,3.1055,3.0898,3.0898,3.0898,3.0898,3.0898,3.0898,3.0898,3.0898,3.0898,3.0898,2.8867,2.895,2.9289,2.9574,3.017,3.0736,3.1354,3.0828,3.0195,3.0195,2.9863,2.9434,2.9004,2.8468,2.8363,2.9303,2.9661,3.0524,3.2536,3.5625,3.8984,4.25,4.709,4.998,4.998,5.0332,5.0391,4.9961,4.9531,4.916,4.8867,4.8711,4.8418,4.7988,4.7715,4.7422,4.7109,4.6562,4.6308,4.6308,4.6152,4.5566,4.4629,4.4746,4.4394,4.3691,4.3262,4.2988,0.0,4.209,4.1699,4.1543,4.1269,4.1172,4.1172,4.1172,4.1172,4.1172,4.1172,4.1172,4.1172,4.1172,4.1172,4.1172,4.1172,4.1172,4.1133,4.0976,4.1055,4.0937,3.9902,3.9766,3.9668,3.8789,3.8242,3.7969,3.8125,3.7832,3.7578,3.7754,3.7773,3.7734,3.7559,3.7324,3.6992,3.6562,3.6152,3.5703,3.5254,3.5059,3.4785,3.4355,3.4316,3.4023,3.334,3.2891,3.2578,3.2422,3.2148,3.1934,3.1777,3.1348,3.1133,3.1133,3.0976,3.0898,3.0898,3.0898,3.0898,3.0898,3.0898,3.0898,0.0,2.786,2.8027,2.9076,2.9299,2.9572,3.0848,3.0649,0.0,3.0254,2.9941,2.9531,2.9082,2.7882,2.7308,2.8319,2.8371,2.9368,3.2451,3.5703,3.9316,4.3574,4.6308,4.7832,4.7773,4.9238,5.0019,4.9609,4.9121,4.8867,4.8867,4.8437,4.8008,4.7598,4.7519,4.7109,4.6308,4.6269,4.625,4.6211,4.582,4.5391,4.4922,4.4531,4.4101,4.3633,4.3183,4.2754,4.2344,4.1933,4.1523,4.1172,4.1172,4.1172,4.1172,4.1172,4.1172,4.1172,4.1172,4.1172,4.1172,4.1172,4.1172,4.1172,4.1172,4.1172,4.1094,4.0684,4.0859,4.0879,3.9629,3.959,3.9687,3.8828,3.8281,3.8086,3.8496,3.8262,3.8086,3.8496,3.8574,3.8437,3.8047,3.7949,3.7793,3.7402,3.6992,3.6562,3.6152,3.5742,3.5312,3.4844,3.4766,3.457,3.416,3.3711,3.3281,3.2871,3.2812,3.2617,3.2226,3.1797,3.1543,3.1523,3.1113,3.0898,3.0898,3.0898,3.0898,3.0898,3.0898,3.0898,2.9478,0.0,2.9077,2.9165,2.9798,3.0616,0.0,3.1048,3.0723,3.0723,3.0644,3.0449,2.998,2.96,2.9564,3.0177,3.0839,3.1822,3.3574,3.8633,4.3555,4.7207,4.9355,5.0273,4.9629,4.9941,5.0137,5.0039,4.9297,4.8867,4.8867,4.8437,4.8008,4.7598,4.6953,4.6504,4.6308,4.5976,4.5664,4.5312,4.5234,4.4766,4.4004,4.3906,4.3633,4.3183,4.2422,4.2051,4.1914,4.1484,4.1269,4.1172,4.1172,4.1172,4.1172,4.1172,4.1172,4.1172,4.1172,4.1172,4.1172,4.1172,4.1172,4.1172,4.1172,4.1172,4.1152,4.1055,4.1094,4.1035,4.0391,4.0059,3.9746,3.918,3.873,3.8457,3.8555,3.8496,3.8457,3.8555,3.8574,3.8535,3.8437,3.8144,3.7891,3.7793,3.7422,3.7109,3.7012,3.6621,3.6191,3.5762,3.543,3.5039,3.459,3.416,3.373,3.3301,3.2969,3.2754,3.2656,3.2246,3.1855,3.1523,3.1113,3.0898,3.0898,3.0898,3.0898,3.0898,3.0898,3.0898,3.1033,2.9805,2.8724,2.9044,2.9601,3.0303,3.1286,3.1191,3.0898,3.0898,3.0723,3.0488,3.0234,2.9726,2.9531,3.0176,3.1172,3.3008,3.6289,4.0605,4.4629,4.7891,4.9453,5.0234,5.0176,5.0,4.9785,4.959,4.9121,4.8769,4.8574,4.8144,4.7637,4.7012,4.6367,4.6016,4.6016,4.5586,4.5254,4.5019,4.4824,4.4492,4.4023,4.3808,4.3476,4.3047,4.2383,4.1973,4.1758,4.1348,4.1172,4.1172,4.1172,4.1172,4.1172,4.1172,4.1172,4.1172,4.1172,4.1172,4.1172,4.1172,4.1172,4.1172,4.1172,4.1172,4.1172,4.1172,4.1172,4.1074,4.0644,4.0351,4.0019,3.9355,3.9023,3.8809,3.8613,3.8574,3.8574,3.8574,3.873,3.8867,3.8867,3.8672,3.8516,3.8516,3.7988,3.7578,3.7578,3.7226,3.6875,3.6621,3.623,3.5801,3.5351,3.4922,3.4394,3.375,3.3516,3.3301,3.3086,3.2676,3.2168,3.1523,3.1113,3.0996,3.1172,3.0996,3.0996,3.1172,3.0976,3.0898,3.2559,3.0699,2.8961,2.9335,2.9446,2.9828,3.1206,3.1191,3.0879,3.0801,3.0469,3.0156,3.0019,2.9277,2.8906,2.9551,3.1211,3.4297,3.9726,4.2266,4.459,4.7344,4.8496,4.9297,4.9922,4.9707,4.9375,4.8984,4.8887,4.8672,4.8223,4.7812,4.7226,4.6426,4.5859,4.5566,4.5566,4.5156,4.4922,4.4922,4.4492,4.4297,4.4277,4.375,4.332,4.2949,4.2441,4.2031,4.168,4.1328,4.1172,4.1172,4.1172,4.1172,4.1172,4.1172,4.1172,4.1172,4.1172,4.1172,4.1172,4.1172,4.1172,4.1172,4.1172,4.1172,4.1172,4.1172,4.1172,4.1094,4.0723,4.0566,4.0312,3.9492,3.9316,3.9199,3.8769,3.873,3.8769,3.8769,3.9062,3.9316,3.9316,3.9316,3.9277,3.9219,3.8594,3.8105,3.8027,3.7656,3.7402,3.7402,3.6953,3.6523,3.6152,3.5723,3.5137,3.4316,3.4141,3.3887,3.3437,3.2949,3.2363,3.1621,3.1133,3.1094,3.1523,3.1152,3.1172,3.1504,3.1152,3.0957,3.3262,3.3695,3.3762,3.1645,3.1146,3.1206,3.1464,3.1191,3.0781,3.0391,3.0254,2.998,2.9258,2.9863,3.041,3.0137,3.3652,3.7988,4.248,4.4668,4.6387,4.793,4.9219,4.9726,4.9121,4.9336,4.9492,4.9433,4.9062,4.8672,4.8223,4.7812,4.7344,4.6855,4.5723,4.5117,4.5117,4.4707,4.4492,4.4492,4.4023,4.3808,4.3789,4.2988,4.2598,4.248,4.1699,4.1328,4.1269,4.1211,4.1172,4.1172,4.1172,4.1172,4.1172,4.1172,4.1172,4.1172,4.1172,4.1172,4.1172,4.1172,4.1172,4.1172,4.1172,4.1172,4.1172,4.1172,4.1172,4.1152,4.1094,4.0801,4.0391,3.9902,3.9785,3.9668,3.9199,3.9414,3.9687,3.9687,3.9746,3.9785,3.9785,3.9785,3.9648,3.9258,3.9082,3.8887,3.8516,3.8105,3.7832,3.7832,3.7129,3.6641,3.6582,3.6172,3.5723,3.5215,3.4492,3.3887,3.3437,3.2676,3.2207,3.207,3.1289,3.1094,3.1523,3.1445,3.1445,3.1523,3.1445,3.123,3.2812,3.3184,3.3476,3.2734,3.2891,3.3066,3.2363,3.1875,3.1445,3.0996,3.0723,3.0449,3.0059,3.0664,3.1992,3.4336,3.7148,4.0137,4.3262,4.4805,4.6094,4.7363,4.8457,4.9141,4.9219,4.918,4.916,4.916,4.875,4.832,4.7891,4.7246,4.6582,4.5918,4.5117,4.457,4.4316,4.4121,4.4023,4.4023,4.3574,4.3359,4.334,4.2715,4.2305,4.207,4.168,4.1387,4.1172,4.1172,4.1172,4.1172,4.1172,4.1172,4.1172,4.1172,4.1172,4.1172,4.1172,4.1172,4.1172,4.1172,4.1172,4.1172,4.1172,4.1172,4.1172,4.1172,4.1172,4.1172,4.1172,4.1035,4.0762,4.0332,4.0234,4.0117,3.9668,3.9746,3.9902,3.9902,4.0078,4.0234,4.0234,4.0234,4.0156,3.9941,3.9726,3.9414,3.8965,3.873,3.8535,3.8301,3.7715,3.7266,3.7031,3.6621,3.6094,3.543,3.457,3.3984,3.3789,3.2949,3.25,3.25,3.1894,3.1797,3.2207,3.1973,3.1875,3.1875,3.1875,3.1523,3.2519,3.2539,3.2715,3.3164,3.3613,3.3887,3.3613,3.2988,3.2461,3.2441,3.209,3.1621,3.1133,3.1621,3.3594,3.8144,4.0215,4.2051,4.4297,4.5273,4.6172,4.7246,4.7969,4.8633,4.9297,4.9062,4.8808,4.8711,4.8398,4.793,4.7305,4.666,4.5898,4.5058,4.4609,4.418,4.3711,4.3613,4.3555,4.3555,4.3223,4.3027,4.291,4.248,4.2109,4.1797,4.1699,4.1465,4.1172,4.1172,4.1172,4.1172,4.1172,4.1172,4.1172,4.1172,4.1172,4.1172,4.1172,4.1172,4.1172,4.1172,4.1172,4.1172,4.1172,4.1172,4.1172,4.1172,4.1172,4.1172,4.1172,4.1172,4.1055,4.0625,4.0605,4.0566,4.0137,4.0117,4.0195,4.0195,4.0449,4.0684,4.0684,4.0684,4.0644,4.0547,4.0156,3.9726,3.9258,3.9121,3.8926,3.8613,3.8184,3.7715,3.7187,3.6855,3.6348,3.5586,3.4609,3.4082,3.4082,3.3242,3.2793,3.2793,3.2383,3.2383,3.2793,3.248,3.2324,3.2324,3.2324,3.1914,3.3242,3.3633,3.375,3.3027,3.2285,3.2461,3.5176,3.4512,3.3672,3.4863,3.4746,3.3828,3.1836,3.2793,3.5195,3.916,4.1875,4.4375,4.6933,4.7695,4.8164,4.8652,4.8769,4.8828,4.8906,4.8867,4.8691,4.8281,4.8223,4.7676,4.6465,4.6328,4.5898,4.5058,4.4609,4.418,4.3711,4.332,4.3125,4.3125,4.3086,4.2871,4.2461,4.2031,4.1836,4.1777,4.1387,4.1211,4.1172,4.1172,4.1172,4.1172,4.1172,4.1172,4.1172,4.1172,4.1172,4.1172,4.1172,4.1172,4.1172,4.1172,4.1172,4.1172,4.1172,4.1172,4.1172,4.1172,4.1172,4.1172,4.1172,4.1172,4.1055,4.0625,4.084,4.1016,4.0566,4.0801,4.1074,4.1074,4.1113,4.1133,4.1133,4.1133,4.0996,4.0586,4.0156,3.9726,3.9258,3.8867,3.8613,3.8574,3.8184,3.7598,3.6777,3.668,3.6465,3.5996,3.4785,3.4082,3.4082,3.3242,3.2793,3.2793,3.2383,3.2383,3.2793,3.2773,3.2754,3.2754,3.2754,3.25,3.2988,3.3535,3.3926,3.334,3.2949,3.3281,3.5508,3.5508,3.541,3.6699,3.6816,3.6309,3.4961,3.6113,3.8184,4.1016,4.3633,4.5937,4.7715,4.8574,4.8984,4.8867,4.9101,4.916,4.8887,4.8613,4.8379,4.8223,4.748,4.6816,4.6328,4.5547,4.4961,4.4648,4.3945,4.3496,4.332,4.2891,4.2539,4.2285,4.2285,4.2207,4.2031,4.1601,4.1406,4.1406,4.125,4.1172,4.1172,4.1172,4.1172,4.1172,4.1172,4.1172,4.1172,4.1172,4.1172,4.1172,4.1172,4.1172,4.1172,4.1172,4.1172,4.1172,4.1172,4.1172,4.1172,4.1172,4.1172,4.1172,4.1172,4.1172,4.1133,4.0976,4.1055,4.1133,4.0957,4.1055,4.1172,4.1172,4.1172,4.1172,4.1172,4.1172,4.1113,4.0957,4.0566,4.0137,3.9687,3.9238,3.8867,3.8613,3.8184,3.7695,3.7109,3.6816,3.6484,3.6055,3.5312,3.4766,3.4473,3.3906,3.3457,3.3184,3.3027,3.3027,3.3184,3.3184,3.3047,3.2793,3.3066,3.2812,3.2559,3.2832,3.3066,3.3027,3.3223,3.4062,3.6465,3.6719,3.6973,3.8945,3.8691,3.7988,3.7559,3.8301,3.9746,4.2051,4.4609,4.6738,4.8027,4.8848,4.9199,4.8887,4.9121,4.9141,4.8691,4.8379,4.8047,4.7637,4.6797,4.6055,4.5508,4.4648,4.4062,4.3789,4.3183,4.2812,4.2676,4.2383,4.2012,4.1601,4.1601,4.1601,4.1601,4.1308,4.1172,4.1172,4.1172,4.1172,4.1172,4.1172,4.1172,4.1172,4.1172,4.1172,4.1172,4.1172,4.1172,4.1172,4.1172,4.1172,4.1172,4.1172,4.1172,4.1172,4.1172,4.1172,4.1172,4.1172,4.1172,4.1172,4.1172,4.1172,4.1172,4.1172,4.1172,4.1172,4.1172,4.1172,4.1172,4.1172,4.1172,4.1172,4.1172,4.1172,4.1172,4.1172,4.0801,4.041,4.0137,3.957,3.9043,3.8613,3.8301,3.7949,3.7539,3.7109,3.668,3.625,3.582,3.5391,3.4941,3.4375,3.3926,3.3633,3.3496,3.3418,3.3418,3.3418,3.3281,3.3008,3.3281,3.3105,3.207,3.1582,3.1152,3.1992,3.2832,3.4473,3.832,3.8223,3.8281,4.1738,4.0391,3.873,3.9141,3.8887,3.9434,4.1992,4.459,4.6738,4.8008,4.8574,4.8848,4.8848,4.8848,4.8672,4.8242,4.8203,4.7676,4.6406,4.6289,4.5527,4.3789,4.3691,4.3301,4.2461,4.2422,4.2226,4.1797,4.1797,4.1582,4.1172,4.1172,4.1172,4.1172,4.1172,4.1172,4.1172,4.1172,4.1172,4.1172,4.1172,4.1172,4.1172,4.1172,4.1172,4.1172,4.1172,4.1172,4.1172,4.1172,4.1172,4.1172,4.1172,4.1172,4.1172,4.1172,4.1172,4.1172,4.1172,4.1172,4.1172,4.1172,4.1172,4.1172,4.1172,4.1172,4.1172,4.1172,4.1172,4.1172,4.1172,4.1172,4.1172,4.1172,4.1172,4.1172,4.1172,4.0801,4.0527,4.0508,3.9746,3.9043,3.8633,3.8574,3.8398,3.7969,3.7539,3.7129,3.6699,3.6269,3.584,3.541,3.4551,3.4082,3.4082,3.3652,3.3418,3.3418,3.3418,3.3418,3.3418,3.3418,3.3418,3.3476,3.4219,3.4785,3.4121,3.5059,3.668,3.873,3.8906,3.9531,4.2676,4.1992,4.0703,4.0215,4.0273,4.0644,4.1426,4.3711,4.5742,4.6719,4.75,4.7969,4.7969,4.7969,4.791,4.7773,4.748,4.7031,4.6348,4.5469,4.459,4.375,4.3125,4.2695,4.2441,4.2148,4.1933,4.1797,4.1504,4.1308,4.1172,4.1172,4.1172,4.1172,4.1172,4.1172,4.1172,4.1172,4.1172,4.1172,4.1172,4.1172,4.1172,4.1172,4.1172,4.1172,4.1172,4.1172,4.1172,4.1172,4.1172,4.1172,4.1172,4.1172,4.1172,4.1172,4.1172,4.1172,4.1172,4.1172,4.1172,4.1172,4.1172,4.1172,4.1172,4.1172,4.1172,4.1172,4.1172,4.1172,4.1172,4.1172,4.1172,4.1172,4.1172,4.1172,4.1172,4.0801,4.041,4.0117,3.9844,3.9512,3.9062,3.9004,3.873,3.7988,3.7812,3.7441,3.6719,3.6816,3.6465,3.543,3.5137,3.4707,3.4082,3.3945,3.373,3.3418,3.3418,3.3418,3.3418,3.3418,3.3418,3.3262,3.4082,3.4941,3.5176,3.6269,3.7715,3.9355,4.0391,4.1601,4.3789,4.293,4.1699,4.1348,4.1074,4.1133,4.1816,4.3535,4.5137,4.6152,4.6894,4.7324,4.7324,4.7324,4.7266,4.709,4.668,4.6191,4.5586,4.4668,4.3789,4.2988,4.2461,4.2109,4.1933,4.168,4.1543,4.1543,4.1308,4.1172,4.1172,4.1172,4.1172,4.1172,4.1172,4.1172,4.1172,4.1172,4.1172,4.1172,4.1172,4.1172,4.1172,4.1172,4.1172,4.1172,4.1172,4.1172,4.1172,4.1172,4.1172,4.1172,4.1172,4.1172,4.1172,4.1172,4.1172,4.1172,4.1172,4.1172,4.1172,4.1172,4.1172,4.1172,4.1172,4.1172,4.1172,4.1172,4.1172,4.1172,4.1172,4.1172,4.1172,4.1172,4.1172,4.1172,4.1172,4.0957,4.0625,4.0195,4.0156,3.9902,3.9277,3.9199,3.8926,3.8242,3.8027,3.7715,3.7207,3.7246,3.6953,3.6191,3.582,3.5312,3.4609,3.4414,3.4101,3.3691,3.3691,3.3691,3.3691,3.3691,3.3691,3.2344,3.2559,3.3203,3.5605,3.6953,3.8223,4.0234,4.2187,4.3808,4.4629,4.3262,4.2012,4.2363,4.1445,4.1152,4.2715,4.3711,4.4707,4.5898,4.6387,4.666,4.6738,4.6719,4.6562,4.6211,4.5801,4.5215,4.4394,4.3867,4.3066,4.1855,4.1758,4.1562,4.1191,4.1172,4.1172,4.1172,4.1172,4.1172,4.1172,4.1172,4.1152,4.1113,4.1152,4.1172,4.1172,4.1094,4.1074,4.1113,4.1074,4.1074,4.1113,4.1113,4.1133,4.1172,4.1172,4.1172,4.1172,4.1172,4.1172,4.1172,4.1172,4.1172,4.1172,4.1172,4.1172,4.1172,4.1172,4.1172,4.1172,4.1172,4.1172,4.1172,4.1172,4.1172,4.1172,4.1172,4.1172,4.1172,4.1172,4.1172,4.1172,4.1172,4.1172,4.1172,4.1172,4.1172,4.1035,4.0644,4.0586,4.0254,3.9414,3.9316,3.916,3.873,3.8301,3.8027,3.7988,3.7617,3.7383,3.7305,3.6504,3.5879,3.5449,3.5,3.4551,3.4121,3.4121,3.4121,3.4121,3.4121,3.4121,3.457,3.543,3.6406,3.7285,3.918,4.1035,4.1836,4.2363,4.2754,4.2949,4.2891,4.2734,4.248,4.1933,4.1641,4.2012,4.2793,4.3574,4.418,4.4336,4.4648,4.5351,4.5137,4.5039,4.5273,4.4922,4.4453,4.3887,4.3144,4.2441,4.1836,4.1484,4.1269,4.1172,4.1172,4.1172,4.1172,4.1172,4.1172,4.1172,4.1172,4.0996,4.0684,4.1016,4.1172,4.1133,4.0469,4.0351,4.0644,4.0312,4.0371,4.0664,4.0664,4.0879,4.1172,4.1172,4.1172,4.1172,4.1172,4.1172,4.1172,4.1172,4.1172,4.1172,4.1172,4.1172,4.1172,4.1172,4.1172,4.1172,4.1172,4.1172,4.1172,4.1172,4.1172,4.1172,4.1172,4.1172,4.1172,4.1172,4.1172,4.1172,4.1172,4.1172,4.1172,4.1172,4.1172,4.1133,4.1035,4.1035,4.082,4.0293,4.0234,4.0078,3.9648,3.9199,3.8789,3.8457,3.834,3.8008,3.7324,3.6797,3.6328,3.5898,3.5469,3.5019,3.457,3.457,3.457,3.457,3.457,3.457,3.4336,3.5391,3.6777,3.8457,4.0351,4.1797,4.1816,4.2129,4.2305,4.1914,4.2168,4.2402,4.2168,4.1777,4.1562,4.1758,4.2168,4.2695,4.332,4.3398,4.3574,4.4043,4.3906,4.3848,4.4062,4.3711,4.3359,4.3105,4.25,4.1953,4.1523,4.1289,4.1172,4.1172,4.1172,4.1172,4.1172,4.1172,4.1074,4.0859,4.0859,4.0644,4.0234,4.0449,4.0566,4.0527,4.0098,4.0019,4.0195,3.998,4.0019,4.0215,4.0215,4.0488,4.0859,4.0859,4.0996,4.1172,4.1172,4.1172,4.1172,4.1172,4.1172,4.1172,4.1172,4.1172,4.1172,4.1172,4.1172,4.1172,4.1172,4.1172,4.1172,4.1172,4.1172,4.1172,4.1172,4.1172,4.1172,4.1172,4.1172,4.1172,4.1172,4.1172,4.1172,4.1172,4.1172,4.1172,4.1172,4.1172,4.1016,4.0566,4.0527,4.0351,3.9922,3.9668,3.9355,3.8906,3.8887,3.8574,3.793,3.75,3.707,3.6641,3.6211,3.5781,3.5332,3.5137,3.5039,3.5039,3.5039,3.5039,3.3476,3.4609,3.6367,3.9101,4.0742,4.1601,4.125,4.1699,4.2012,4.1308,4.1504,4.1777,4.1699,4.1406,4.1289,4.1641,4.1699,4.1973,4.2754,4.2793,4.2793,4.2949,4.291,4.2891,4.2949,4.2578,4.2324,4.2324,4.1933,4.1543,4.1191,4.1172,4.1172,4.1172,4.1094,4.1055,4.1055,4.0996,4.0762,4.041,4.0332,4.0117,3.9766,3.9707,3.9746,3.9883,3.9726,3.9707,3.9766,3.9707,3.9707,3.9766,3.9766,4.0039,4.041,4.041,4.0684,4.1055,4.1055,4.1055,4.1055,4.1055,4.1055,4.1055,4.1055,4.1113,4.1172,4.1172,4.1172,4.1172,4.1172,4.1172,4.1172,4.1172,4.1172,4.1172,4.1172,4.1172,4.1172,4.1172,4.1172,4.1172,4.1172,4.1172,4.1172,4.1172,4.1172,4.1172,4.1172,4.1172,4.1035,4.0684,4.0644,4.0488,4.0137,4.0039,3.9844,3.9453,3.9277,3.9043,3.8691,3.8262,3.7871,3.7519,3.6953,3.6484,3.6133,3.5703,3.5508,3.5508,3.5508,3.5508,3.418,3.5488,3.7402,3.8926,4.0293,4.125,4.1191,4.125,4.1308,4.1191,4.1504,4.168,4.1328,4.1211,4.1191,4.125,4.125,4.1426,4.1914,4.166,4.1699,4.2422,4.2187,4.2109,4.248,4.2129,4.1894,4.1894,4.1484,4.123,4.1172,4.1172,4.1172,4.1172,4.0801,4.0605,4.0605,4.0254,4.0039,3.998,3.957,3.9355,3.9277,3.8926,3.918,3.9863,3.9082,3.8965,3.9258,3.8906,3.8965,3.9297,3.9297,3.957,3.998,3.998,4.0254,4.0605,4.0605,4.0605,4.0605,4.0605,4.0605,4.0605,4.0605,4.0879,4.1172,4.1172,4.1172,4.1172,4.1172,4.1172,4.1172,4.1172,4.1172,4.1172,4.1172,4.1172,4.1172,4.1172,4.1172,4.1172,4.1172,4.1172,4.1172,4.1172,4.1172,4.1172,4.1172,4.1172,4.1152,4.1094,4.1094,4.1055,4.0996,4.0664,4.041,4.0351,3.9629,3.918,3.9121,3.8711,3.8457,3.8398,3.7266,3.6641,3.6582,3.6152,3.5937,3.5937,3.5937,3.5937,3.5137,3.5684,3.6699,3.8711,3.9453,3.9844,4.0351,4.0449,4.0449,4.0449,4.0605,4.082,4.1113,4.0976,4.0879,4.1133,4.0976,4.0957,4.1387,4.1289,4.1308,4.168,4.1562,4.1523,4.1699,4.1562,4.1445,4.1445,4.1269,4.1172,4.1172,4.1172,4.1172,4.1172,4.0742,4.0527,4.0527,4.0098,3.9766,3.9492,3.9062,3.8848,3.8848,3.8652,3.8789,3.9141,3.875,3.8672,3.8828,3.8652,3.8691,3.8848,3.8848,3.9121,3.9512,3.9512,3.9785,4.0176,4.0176,4.0332,4.0488,4.0254,4.0332,4.0527,4.0527,4.0664,4.0859,4.1113,4.1172,4.1172,4.1172,4.1172,4.1172,4.1172,4.1172,4.1172,4.1172,4.1172,4.1172,4.1172,4.1172,4.1172,4.1172,4.1172,4.1172,4.1172,4.1172,4.1172,4.1172,4.1172,4.1172,4.1172,4.1172,4.1172,4.1172,4.0996,4.0781,4.0547,3.9941,3.9473,3.9219,3.8789,3.8574,3.8574,3.7559,3.7031,3.7012,3.6348,3.6152,3.6387,3.6387,3.6504,3.5215,3.5215,3.5547,3.7559,3.8066,3.832,3.9199,3.9394,3.9434,3.9531,3.9648,3.9922,4.0547,4.0508,4.0469,4.0801,4.0586,4.0469,4.0801,4.084,4.0898,4.0996,4.1016,4.1055,4.1172,4.1172,4.1172,4.1172,4.1074,4.1055,4.1172,4.0957,4.0898,4.0996,4.0469,4.0195,4.0195,3.9766,3.9375,3.9043,3.873,3.8574,3.8574,3.8574,3.8574,3.8574,3.8574,3.8574,3.8574,3.8574,3.8574,3.8574,3.8574,3.8769,3.9043,3.9043,3.9336,3.9726,3.9726,3.9922,4.0137,3.9824,3.9941,4.0215,4.0332,4.043,4.0605,4.1055,4.1172,4.1172,4.1172,4.1172,4.1172,4.1172,4.1172,4.1172,4.1172,4.1172,4.1172,4.1172,4.1172,4.1172,4.1172,4.1172,4.1172,4.1172,4.1172,4.1172,4.1172,4.1172,4.1172,4.1172,4.1172,4.1172,4.1172,4.1172,4.1035,4.0703,4.0293,3.9902,3.9551,3.9141,3.8848,3.873,3.8008,3.7578,3.7461,3.6719,3.6504,3.6836,3.6836,3.6992,3.3652,3.3848,3.4258,3.4805,3.5859,3.6992,3.7832,3.8027,3.8144,3.8555,3.8965,3.9258,3.9297,3.9648,3.9941,3.9961,3.9941,3.9941,3.9961,3.9961,4.0117,4.0508,4.0566,4.0723,4.1133,4.1172,4.1172,4.1172,4.0781,4.0742,4.1152,4.041,4.0137,4.0547,3.9726,3.9277,3.9277,3.8848,3.8633,3.8613,3.8594,3.8574,3.8574,3.8574,3.8574,3.8574,3.8574,3.8574,3.8574,3.8574,3.8574,3.8574,3.8574,3.8594,3.8613,3.8613,3.8887,3.9238,3.9238,3.9258,3.9258,3.9238,3.9258,3.9355,3.9805,4.0215,4.0605,4.1055,4.1172,4.1172,4.1172,4.1172,4.1172,4.1172,4.1172,4.1172,4.1172,4.1172,4.1172,4.1172,4.1172,4.1172,4.1172,4.1172,4.1172,4.1172,4.1172,4.1172,4.1172,4.1172,4.1172,4.1172,4.1172,4.1172,4.1172,4.1172,4.1172,4.1152,4.0723,4.0469,4.0449,4.0059,3.9609,3.918,3.873,3.8301,3.7891,3.7441,3.7246,3.7266,3.7266,3.7266,3.4355,3.3555,3.3086,3.4043,3.4648,3.5234,3.6094,3.6719,3.7168,3.7324,3.7695,3.7988,3.7988,3.8574,3.9141,3.9414,3.8984,3.8828,3.9375,3.9453,3.9609,4.0059,4.0117,4.0176,4.0332,4.0351,4.0351,4.0351,4.0215,4.0195,4.0351,4.0059,3.9961,4.0117,3.9531,3.9062,3.8809,3.8652,3.8574,3.8574,3.8574,3.8574,3.8574,3.8574,3.8574,3.8574,3.8574,3.8574,3.8574,3.8574,3.8574,3.8574,3.8574,3.8574,3.8574,3.8574,3.8672,3.8789,3.8789,3.8965,3.916,3.8887,3.8984,3.9297,3.9766,4.0,4.0273,4.0976,4.1172,4.1172,4.1172,4.1172,4.1172,4.1172,4.1172,4.1172,4.1172,4.1172,4.1172,4.1172,4.1172,4.1172,4.1172,4.1172,4.1172,4.1172,4.1172,4.1172,4.1172,4.1172,4.1172,4.1172,4.1172,4.1172,4.1172,4.1172,4.1172,4.1172,4.0762,4.0527,4.0527,4.0117,3.9668,3.9219,3.9062,3.8633,3.793,3.75,3.7441,3.7695,3.7695,3.7851,3.4726,3.3457,3.2578,3.3437,3.3418,3.3516,3.4687,3.5273,3.5703,3.6152,3.6582,3.6914,3.707,3.7559,3.8066,3.8496,3.8086,3.791,3.8476,3.8555,3.873,3.918,3.9375,3.9512,3.9648,3.9805,3.9902,3.9902,3.9746,3.9726,3.9883,3.9609,3.9453,3.9453,3.916,3.8867,3.8574,3.8574,3.8574,3.8574,3.8574,3.8574,3.8574,3.8574,3.8574,3.8574,3.8574,3.8574,3.8574,3.8574,3.8574,3.8574,3.8574,3.8574,3.8574,3.8574,3.8574,3.8574,3.8574,3.875,3.8945,3.8672,3.8769,3.9082,3.9531,3.9766,4.0019,4.0586,4.0957,4.1133,4.0996,4.1055,4.1172,4.1172,4.1172,4.1172,4.1172,4.1172,4.1172,4.1172,4.1172,4.1172,4.1172,4.1172,4.1172,4.1172,4.1172,4.1172,4.1172,4.1172,4.1172,4.1172,4.1172,4.1172,4.1172,4.1172,4.1172,4.1172,4.0898,4.0742,4.0742,4.0469,4.0117,3.9648,3.9648,3.9297,3.8594,3.8008,3.7871,3.8144,3.8144,3.8301,0.0,0.0,0.0,3.2793,3.2168,3.1973,3.3652,3.3711,3.3789,3.5078,3.5703,3.6133,3.6543,3.6641,3.6777,3.7168,3.7246,3.7266,3.7266,3.7285,3.7441,3.7851,3.8281,3.8691,3.9101,3.957,3.9844,3.9844,3.9434,3.9375,3.9824,3.9043,3.8574,3.8574,3.8574,3.8574,3.8574,3.8574,3.8574,3.8574,3.8574,3.8574,3.8574,3.8574,3.8574,3.8574,3.8574,3.8574,3.8574,3.8574,3.8574,3.8574,3.8574,3.8574,3.8574,3.8574,3.8574,3.8574,3.8574,3.8574,3.8574,3.8574,3.8574,3.8652,3.9082,3.9531,3.9902,3.9902,4.0527,4.1074,4.0644,4.0859,4.1172,4.1172,4.1172,4.1172,4.1172,4.1172,4.1172,4.1172,4.1172,4.1172,4.1172,4.1172,4.1172,4.1172,4.1172,4.1172,4.1172,4.1172,4.1172,4.1172,4.1172,4.1172,4.1172,4.1172,4.1172,4.1172,4.1172,4.1172,4.1172,4.1172,4.0976,4.0527,4.0527,4.0312,3.9902,3.9023,3.8594,3.8594,3.8574,3.8574,3.5781,0.0,0.0,0.0,0.0,0.0,3.2969,3.3281,3.3613,3.4297,3.5039,3.5508,3.5293,3.5762,3.6133,3.5957,3.6172,3.6484,3.6797,3.6836,3.7012,3.7422,3.7578,3.7695,3.7812,3.8223,3.8476,3.8476,3.8652,3.8809,3.8926,3.8711,3.8574,3.8574,3.8574,3.8574,3.8574,3.8574,3.8574,3.8574,3.8574,3.8574,3.8574,3.8574,3.8574,3.8574,3.8574,3.8574,3.8574,3.8574,3.8574,3.8574,3.8574,3.8574,3.8574,3.8574,3.8574,3.8574,3.8574,3.8574,3.8574,3.8574,3.8574,3.8652,3.9082,3.9531,3.9961,4.0273,4.0742,4.1152,4.1035,4.1074,4.1172,4.1172,4.1172,4.1172,4.1172,4.1172,4.1172,4.1172,4.1172,4.1172,4.1172,4.1172,4.1172,4.1172,4.1172,4.1172,4.1172,4.1172,4.1172,4.1172,4.1172,4.1172,4.1172,4.1172,4.1172,4.1172,4.1172,4.1172,4.1172,4.1172,4.0976,4.0527,4.0527,4.0312,3.9902,3.9316,3.9023,3.9023,3.8711,3.8574,3.6035,3.5059,3.4219,3.3711,0.0,0.0,3.3184,3.3242,3.334,3.3945,3.4473,3.4805,3.4726,3.5117,3.5449,3.541,3.5605,3.5918,3.6348,3.6406,3.6484,3.6738,3.6914,3.7031,3.7031,3.7422,3.7656,3.7656,3.8066,3.8379,3.8555,3.8574,3.8574,3.8574,3.8574,3.8574,3.8574,3.8574,3.8574,3.8574,3.8574,3.8574,3.8574,3.8574,3.8574,3.8574,3.8574,3.8574,3.8574,3.8574,3.8574,3.8574,3.8574,3.8574,3.8574,3.8574,3.8574,3.8574,3.8574,3.8574,3.8574,3.8574,3.8574,3.8613,3.8867,3.9258,3.9668,3.9902,4.043,4.0937,4.1133,4.1172,4.1172,4.1172,4.1172,4.1172,4.1172,4.1172,4.1172,4.1172,4.1172,4.1172,4.1172,4.1172,4.1172,4.1172,4.1172,4.1172,4.1172,4.1172,4.1172,4.1172,4.1172,4.1172,4.1172,4.1172,4.1172,4.1172,4.1172,4.1172,4.1172,4.1172,4.1055,4.0801,4.0801,4.0586,4.0156,3.9512,3.9101,3.8926,3.8691,3.8574,3.5937,3.5234,3.4844,3.4785,3.3848,0.0,3.3906,3.3437,3.3086,3.3848,3.4004,3.4101,3.4434,3.4531,3.4668,3.5039,3.5234,3.5488,3.5957,3.6016,3.5996,3.5957,3.6328,3.6582,3.6523,3.6953,3.7226,3.7226,3.7656,3.8105,3.8555,3.8574,3.8574,3.8574,3.8574,3.8574,3.8574,3.8574,3.8574,3.8574,3.8574,3.8574,3.8574,3.8574,3.8574,3.8574,3.8574,3.8574,3.8574,3.8574,3.8574,3.8574,3.8574,3.8574,3.8574,3.8574,3.8574,3.8574,3.8574,3.8574,3.8574,3.8574,3.8574,3.8574,3.8574,3.8906,3.9297,3.9394,3.998,4.0684,4.1074,4.1172,4.1172,4.1172,4.1172,4.1172,4.1172,4.1172,4.1172,4.1172,4.1172,4.1172,4.1172,4.1172,4.1172,4.1172,4.1172,4.1172,4.1172,4.1172,4.1172,4.1172,4.1172,4.1172,4.1172,4.1172,4.1172,4.1172,4.1172,4.1172,4.1172,4.1172,4.1172,4.1172,4.1172,4.0957,4.0527,3.9726,3.9101,3.8652,3.8652,3.8613,3.7187,3.6348,3.5684,3.5332,3.4531,0.0,3.4023,3.3672,3.334,3.3516,3.3555,3.3476,3.3223,3.3437,3.3594,3.334,3.416,3.5117,3.5918,3.6016,3.5898,3.5566,3.5898,3.6016,3.5684,3.6348,3.6797,3.6797,3.75,3.8105,3.8555,3.8574,3.8574,3.8574,3.8574,3.8574,3.8574,3.8574,3.8574,3.8574,3.8574,3.8574,3.8574,3.8574,3.8574,3.8574,3.8574,3.8574,3.8574,3.8574,3.8574,3.8574,3.8574,3.8574,3.8574,3.8574,3.8574,3.8574,3.8574,3.8574,3.8574,3.8574,3.8574,3.8574,3.8574,3.9121,3.9902,4.0586,4.0918,4.1074,4.1152,4.1172,4.1172,4.1172,4.1172,4.1172,4.1172,4.1172,4.1172,4.1172,4.1172,4.1172,4.1172,4.1172,4.1172,4.1172,4.1172,4.1172,4.1172,4.1172,4.1172,4.1172,4.1172,4.1172,4.1172,4.1172,4.1172,4.1172,4.1172,4.1172,4.1172,4.1172,4.1172,4.1172,4.1172,4.0957,4.0527,4.0351,3.9863,3.9082,3.9082,3.8906,3.7266,3.668,3.623,3.582,3.5215,0.0,0.0,3.4219,3.375,3.375,3.3398,3.3047,3.2832,3.2793,3.2793,3.2793,3.3691,3.4473,3.4687,3.5293,3.5547,3.5098,3.543,3.5625,3.541,3.5976,3.6445,3.666,3.7266,3.7793,3.8223,3.8457,3.8574,3.8574,3.8574,3.8574,3.8574,3.8574,3.8574,3.8574,3.8574,3.8574,3.8574,3.8574,3.8574,3.8574,3.8574,3.8574,3.8574,3.8574,3.8574,3.8574,3.8574,3.8574,3.8574,3.8574,3.8574,3.8574,3.8574,3.8574,3.8574,3.8574,3.8711,3.8887,3.8887,3.9512,4.0293,4.0723,4.1016,4.1172,4.1172,4.1172,4.1172,4.1172,4.1172,4.1172,4.1172,4.1172,4.1172,4.1172,4.1172,4.1172,4.1172,4.1172,4.1172,4.1172,4.1172,4.1172,4.1172,4.1172,4.1172,4.1172,4.1172,4.1172,4.1172,4.1172,4.1172,4.1172,4.1172,4.1172,4.1172,4.1172,4.1172,4.1172,4.1172,4.1074,4.084,4.084,4.0273,3.9199,3.9199,3.8965,3.7012,3.6601,3.6484,3.6211,3.582,3.5508,0.0,0.0,0.0,3.4101,3.3457,3.2891,3.2812,3.2383,3.2129,3.2383,3.3144,3.3535,3.3008,3.4004,3.4668,3.4375,3.4883,3.5234,3.5156,3.5508,3.6016,3.6621,3.6836,3.7226,3.7891,3.8262,3.8496,3.8574,3.8574,3.8574,3.8574,3.8574,3.8613,3.8691,3.8613,3.8613,3.8691,3.8613,3.8574,3.8574,3.8574,3.8574,3.8574,3.8574,3.8574,3.8574,3.8574,3.8574,3.8574,3.8574,3.8574,3.8574,3.8574,3.8574,3.8574,3.8574,3.8867,3.9238,3.9394,3.9961,4.0547,4.0625,4.0898,4.1172,4.1172,4.1172,4.1172,4.1172,4.1172,4.1172,4.1172,4.1172,4.1172,4.1172,4.1172,4.1172,4.1172,4.1172,4.1172,4.1172,4.1172,4.1172,4.1172,4.1172,4.1172,4.1172,4.1172,4.1172,4.1172,4.1172,4.1172,4.1172,4.1172,4.1172,4.1172,4.1172,4.1172,4.1172,4.1172,4.1172,4.1172,4.1172,4.0586,3.9453,3.9453,3.918,3.7012,3.6387,3.6172,3.6504,3.6269,3.5957,3.5957,0.0,3.5019,3.4238,0.0,3.3242,3.2871,0.0,0.0,3.1172,3.1816,3.2109,3.1289,3.1953,3.2656,3.2969,3.4062,3.4629,3.4258,3.4609,3.5351,3.6582,3.6016,3.6289,3.7851,3.7969,3.8164,3.8555,3.8574,3.8574,3.8574,3.8574,3.8769,3.9121,3.875,3.8769,3.9121,3.875,3.8574,3.8574,3.8574,3.8574,3.8574,3.8574,3.8574,3.8574,3.8574,3.8574,3.8574,3.8574,3.8574,3.8574,3.8574,3.8574,3.8574,3.8574,3.8867,3.9355,4.0137,4.0449,4.0605,4.0996,4.1133,4.1172,4.1172,4.1172,4.1172,4.1172,4.1172,4.1172,4.1172,4.1172,4.1172,4.1172,4.1172,4.1172,4.1172,4.1172,4.1172,4.1172,4.1172,4.1172,4.1172,4.1172,4.1172,4.1172,4.1172,4.1172,4.1172,4.1172,4.1172,4.1172,4.1172,4.1172,4.1172,4.1172,4.1172,4.1172,4.1172,4.1172,4.1172,4.1172,4.0898,4.0371,4.0371,3.9922,3.7383,3.7266,3.7422,3.7109,3.709,3.7051,3.6816,3.6445,3.6035,3.5644,0.0,0.0,0.0,0.0,0.0,0.0,3.1973,3.2051,3.0684,3.1465,3.2148,3.207,3.2754,3.3555,3.4355,3.459,3.5137,3.6211,3.5742,3.6035,3.748,3.7793,3.8125,3.8555,3.8574,3.8574,3.8574,3.8574,3.8789,3.9199,3.9023,3.9023,3.9199,3.9023,3.8809,3.8574,3.8574,3.8711,3.8926,3.8672,3.8711,3.8906,3.8672,3.8574,3.8574,3.8574,3.8574,3.8613,3.8848,3.8789,3.8652,3.918,3.9453,3.9766,4.0644,4.0898,4.0937,4.1113,4.1172,4.1172,4.1172,4.1172,4.1172,4.1172,4.1172,4.1172,4.1172,4.1172,4.1172,4.1172,4.1172,4.1172,4.1172,4.1172,4.1172,4.1172,4.1172,4.1172,4.1172,4.1172,4.1172,4.1172,4.1172,4.1172,4.1172,4.1172,4.1172,4.1172,4.1172,4.1172,4.1172,4.1172,4.1172,4.1172,4.1172,4.1172,4.1172,4.1172,4.1074,4.0879,4.0391,3.9687,3.7812,3.793,3.8242,3.7617,3.7617,3.7695,3.7519,3.7051,3.668,3.668,3.5566,0.0,0.0,0.0,3.2519,3.1953,0.0,3.1953,3.0586,3.1094,3.1465,3.1035,3.1582,3.2559,3.4043,3.4062,3.4414,3.541,3.5098,3.5469,3.6875,3.7461,3.7949,3.8379,3.8516,3.8574,3.8574,3.8574,3.8789,3.9199,3.9082,3.9082,3.9199,3.9082,3.8867,3.8574,3.8574,3.875,3.9004,3.8691,3.875,3.9004,3.8691,3.8574,3.8574,3.8574,3.8574,3.8613,3.8926,3.8828,3.875,3.9746,3.998,4.0059,4.0918,4.1172,4.1172,4.1172,4.1172,4.1172,4.1172,4.1172,4.1172,4.1172,4.1172,4.1172,4.1172,4.1172,4.1172,4.1172,4.1172,4.1172,4.1172,4.1172,4.1172,4.1172,4.1172,4.1172,4.1172,4.1172,4.1172,4.1172,4.1172,4.1172,4.1172,4.1172,4.1172,4.1172,4.1172,4.1172,4.1172,4.1172,4.1172,4.1172,4.1172,4.1172,4.1172,4.1172,4.1113,4.0976,4.0488,3.9844,3.8262,3.793,3.793,3.791,3.7617,3.7422,3.7812,3.7266,3.668,3.668,3.6289,3.584,3.543,3.4609,0.0,0.0,3.207,0.0,0.0,3.0508,3.0098,2.9687,3.0762,3.1875,3.2773,3.248,3.2773,3.4043,3.373,3.4238,3.5976,3.6855,3.75,3.793,3.8359,3.8574,3.8574,3.8574,3.8789,3.9199,3.8789,3.8809,3.9199,3.8789,3.8594,3.8574,3.8574,3.8574,3.8594,3.8574,3.8574,3.8594,3.8574,3.8574,3.8574,3.8574,3.8574,3.8574,3.8594,3.8594,3.8789,4.0078,4.0234,4.0059,4.0918,4.1172,4.1172,4.1172,4.1172,4.1172,4.1172,4.1172,4.1172,4.1172,4.1172,4.1172,4.1172,4.1172,4.1172,4.1172,4.1172,4.1172,4.1172,4.1172,4.1172,4.1172,4.1172,4.1172,4.1172,4.1172,4.1172,4.1172,4.1172,4.1172,4.1172,4.1172,4.1172,4.1172,4.1172,4.1172,4.1172,4.1172,4.1172,4.1172,4.1172,4.1172,4.1172,4.1172,4.0957,4.0547,4.0957,4.0898,3.8984,3.9199,3.9492,3.8906,3.8887,3.8906,3.8457,3.791,3.7578,3.7871,3.7148,3.6484,3.6621,3.5723,0.0,0.0,0.0,0.0,0.0,3.084,3.0137,3.0,3.0898,3.1738,3.2324,3.25,3.2988,3.4004,3.3945,3.4609,3.6367,3.6992,3.7617,3.834,3.8496,3.8574,3.8574,3.8574,3.8789,3.9199,3.9062,3.9062,3.9199,3.9062,3.8828,3.8574,3.8574,3.873,3.8965,3.8691,3.875,3.8965,3.8691,3.8574,3.8574,3.8574,3.8574,3.8613,3.8887,3.9199,3.957,4.0293,4.0234,4.0059,4.0918,4.1172,4.1172,4.1172,4.1172,4.1172,4.1172,4.1172,4.1172,4.1172,4.1172,4.1172,4.1172,4.1172,4.1172,4.1172,4.1172,4.1172,4.1172,4.1172,4.1172,4.1172,4.1172,4.1172,4.1172,4.1172,4.1172,4.1172,4.1172,4.1172,4.1172,4.1172,4.1172,4.1172,4.1172,4.1172,4.1172,4.1172,4.1172,4.1172,4.1172,4.1172,4.1172,4.1172,4.1094,4.0957,4.1113,4.0781,3.9805,4.0078,4.0351,3.9629,3.9668,3.9668,3.8769,3.8359,3.8144,3.8125,3.7578,3.707,3.6875,3.6289,0.0,0.0,0.0,0.0,0.0,3.1777,3.123,3.0937,3.1133,3.1465,3.1894,3.2051,3.2402,3.3105,3.3437,3.4238,3.5664,3.6738,3.7617,3.832,3.8496,3.8574,3.8574,3.873,3.8926,3.9199,3.9375,3.9355,3.9199,3.9199,3.8965,3.8574,3.8574,3.873,3.8965,3.8691,3.8828,3.918,3.8906,3.8789,3.8789,3.8633,3.8574,3.8633,3.9062,3.9394,3.9746,4.0332,4.0332,4.0254,4.0957,4.1172,4.1152,4.0976,4.1055,4.1133,4.0976,4.1055,4.1172,4.1172,4.1172,4.1172,4.1172,4.1172,4.1172,4.1172,4.1172,4.1172,4.1172,4.1172,4.1172,4.1172,4.1172,4.1172,4.1172,4.1172,4.1172,4.1172,4.1172,4.1172,4.1172,4.1172,4.1172,4.1172,4.1172,4.1172,4.1172,4.1172,4.1172,4.1172,4.1172,4.1172,4.1172,4.1172,4.1172,4.1172,4.1172,4.0879]}]]